<?xml version="1.0" encoding="UTF-8" standalone="no" ?>
<gpx xmlns="http://www.topografix.com/GPX/1/1" xmlns:xsi="http://www.w3.org/2001/XMLSchema-instance" xsi:schemaLocation="http://www.topografix.com/GPX/1/1 http://www.topografix.com/GPX/1/1/gpx.xsd" version="1.1" creator="VisuGPX - https://www.visugpx.com">
  <metadata>
    <name>ONmove 220 - 15/08/2019</name>
    <desc><![CDATA[Sortie voile avec Potemkine le 14-08-2019]]></desc>
  </metadata>
  <trk>
    <name><![CDATA[ONmove 220 - 15/08/2019]]></name>
    <trkseg>
      <trkpt lat="44.49435" lon="-1.07943">
        <ele>18</ele>
        <time>2019-08-15T12:55:05Z</time>
      </trkpt>
      <trkpt lat="44.49432" lon="-1.07949">
        <ele>18</ele>
        <time>2019-08-15T12:55:10Z</time>
      </trkpt>
      <trkpt lat="44.49422" lon="-1.07963">
        <ele>18</ele>
        <time>2019-08-15T12:55:15Z</time>
      </trkpt>
      <trkpt lat="44.49424" lon="-1.0796">
        <ele>18</ele>
        <time>2019-08-15T12:55:20Z</time>
      </trkpt>
      <trkpt lat="44.49422" lon="-1.07959">
        <ele>18</ele>
        <time>2019-08-15T12:55:25Z</time>
      </trkpt>
      <trkpt lat="44.49423" lon="-1.07957">
        <ele>18</ele>
        <time>2019-08-15T12:55:30Z</time>
      </trkpt>
      <trkpt lat="44.49421" lon="-1.07955">
        <ele>18</ele>
        <time>2019-08-15T12:55:35Z</time>
      </trkpt>
      <trkpt lat="44.49418" lon="-1.07956">
        <ele>18</ele>
        <time>2019-08-15T12:55:40Z</time>
      </trkpt>
      <trkpt lat="44.49413" lon="-1.07961">
        <ele>18</ele>
        <time>2019-08-15T12:55:45Z</time>
      </trkpt>
      <trkpt lat="44.49408" lon="-1.0797">
        <ele>18</ele>
        <time>2019-08-15T12:55:50Z</time>
      </trkpt>
      <trkpt lat="44.49403" lon="-1.07977">
        <ele>18</ele>
        <time>2019-08-15T12:55:55Z</time>
      </trkpt>
      <trkpt lat="44.49396" lon="-1.07987">
        <ele>18</ele>
        <time>2019-08-15T12:56:00Z</time>
      </trkpt>
      <trkpt lat="44.4939" lon="-1.07998">
        <ele>18</ele>
        <time>2019-08-15T12:56:05Z</time>
      </trkpt>
      <trkpt lat="44.49383" lon="-1.08009">
        <ele>18</ele>
        <time>2019-08-15T12:56:10Z</time>
      </trkpt>
      <trkpt lat="44.49376" lon="-1.0802">
        <ele>18</ele>
        <time>2019-08-15T12:56:15Z</time>
      </trkpt>
      <trkpt lat="44.4937" lon="-1.08031">
        <ele>18</ele>
        <time>2019-08-15T12:56:20Z</time>
      </trkpt>
      <trkpt lat="44.49363" lon="-1.08042">
        <ele>18</ele>
        <time>2019-08-15T12:56:25Z</time>
      </trkpt>
      <trkpt lat="44.49355" lon="-1.08052">
        <ele>18</ele>
        <time>2019-08-15T12:56:30Z</time>
      </trkpt>
      <trkpt lat="44.49347" lon="-1.08061">
        <ele>18</ele>
        <time>2019-08-15T12:56:35Z</time>
      </trkpt>
      <trkpt lat="44.49339" lon="-1.0807">
        <ele>18</ele>
        <time>2019-08-15T12:56:40Z</time>
      </trkpt>
      <trkpt lat="44.49332" lon="-1.08081">
        <ele>18</ele>
        <time>2019-08-15T12:56:45Z</time>
      </trkpt>
      <trkpt lat="44.49325" lon="-1.08089">
        <ele>18</ele>
        <time>2019-08-15T12:56:50Z</time>
      </trkpt>
      <trkpt lat="44.49319" lon="-1.08097">
        <ele>18</ele>
        <time>2019-08-15T12:56:55Z</time>
      </trkpt>
      <trkpt lat="44.49311" lon="-1.08107">
        <ele>18</ele>
        <time>2019-08-15T12:57:00Z</time>
      </trkpt>
      <trkpt lat="44.49302" lon="-1.08118">
        <ele>18</ele>
        <time>2019-08-15T12:57:05Z</time>
      </trkpt>
      <trkpt lat="44.49293" lon="-1.08129">
        <ele>18</ele>
        <time>2019-08-15T12:57:10Z</time>
      </trkpt>
      <trkpt lat="44.49285" lon="-1.08143">
        <ele>18</ele>
        <time>2019-08-15T12:57:15Z</time>
      </trkpt>
      <trkpt lat="44.49277" lon="-1.08156">
        <ele>18</ele>
        <time>2019-08-15T12:57:20Z</time>
      </trkpt>
      <trkpt lat="44.49269" lon="-1.08169">
        <ele>18</ele>
        <time>2019-08-15T12:57:25Z</time>
      </trkpt>
      <trkpt lat="44.49261" lon="-1.08181">
        <ele>18</ele>
        <time>2019-08-15T12:57:30Z</time>
      </trkpt>
      <trkpt lat="44.49253" lon="-1.08192">
        <ele>18</ele>
        <time>2019-08-15T12:57:35Z</time>
      </trkpt>
      <trkpt lat="44.49244" lon="-1.08204">
        <ele>18</ele>
        <time>2019-08-15T12:57:40Z</time>
      </trkpt>
      <trkpt lat="44.49236" lon="-1.08216">
        <ele>18</ele>
        <time>2019-08-15T12:57:45Z</time>
      </trkpt>
      <trkpt lat="44.49227" lon="-1.08228">
        <ele>18</ele>
        <time>2019-08-15T12:57:50Z</time>
      </trkpt>
      <trkpt lat="44.4922" lon="-1.08239">
        <ele>18</ele>
        <time>2019-08-15T12:57:55Z</time>
      </trkpt>
      <trkpt lat="44.49213" lon="-1.08252">
        <ele>18</ele>
        <time>2019-08-15T12:58:00Z</time>
      </trkpt>
      <trkpt lat="44.49206" lon="-1.08265">
        <ele>18</ele>
        <time>2019-08-15T12:58:05Z</time>
      </trkpt>
      <trkpt lat="44.49199" lon="-1.08278">
        <ele>18</ele>
        <time>2019-08-15T12:58:10Z</time>
      </trkpt>
      <trkpt lat="44.49191" lon="-1.08291">
        <ele>18</ele>
        <time>2019-08-15T12:58:15Z</time>
      </trkpt>
      <trkpt lat="44.49184" lon="-1.08304">
        <ele>18</ele>
        <time>2019-08-15T12:58:20Z</time>
      </trkpt>
      <trkpt lat="44.49177" lon="-1.08317">
        <ele>18</ele>
        <time>2019-08-15T12:58:25Z</time>
      </trkpt>
      <trkpt lat="44.49169" lon="-1.08331">
        <ele>18</ele>
        <time>2019-08-15T12:58:30Z</time>
      </trkpt>
      <trkpt lat="44.49163" lon="-1.08345">
        <ele>18</ele>
        <time>2019-08-15T12:58:35Z</time>
      </trkpt>
      <trkpt lat="44.49156" lon="-1.0836">
        <ele>18</ele>
        <time>2019-08-15T12:58:40Z</time>
      </trkpt>
      <trkpt lat="44.49151" lon="-1.08375">
        <ele>18</ele>
        <time>2019-08-15T12:58:45Z</time>
      </trkpt>
      <trkpt lat="44.49143" lon="-1.08387">
        <ele>18</ele>
        <time>2019-08-15T12:58:50Z</time>
      </trkpt>
      <trkpt lat="44.49136" lon="-1.084">
        <ele>18</ele>
        <time>2019-08-15T12:58:55Z</time>
      </trkpt>
      <trkpt lat="44.49128" lon="-1.08413">
        <ele>18</ele>
        <time>2019-08-15T12:59:00Z</time>
      </trkpt>
      <trkpt lat="44.49122" lon="-1.08426">
        <ele>18</ele>
        <time>2019-08-15T12:59:05Z</time>
      </trkpt>
      <trkpt lat="44.49115" lon="-1.08441">
        <ele>18</ele>
        <time>2019-08-15T12:59:10Z</time>
      </trkpt>
      <trkpt lat="44.4911" lon="-1.08455">
        <ele>18</ele>
        <time>2019-08-15T12:59:15Z</time>
      </trkpt>
      <trkpt lat="44.49102" lon="-1.08468">
        <ele>18</ele>
        <time>2019-08-15T12:59:20Z</time>
      </trkpt>
      <trkpt lat="44.49093" lon="-1.08479">
        <ele>18</ele>
        <time>2019-08-15T12:59:25Z</time>
      </trkpt>
      <trkpt lat="44.49084" lon="-1.08492">
        <ele>18</ele>
        <time>2019-08-15T12:59:30Z</time>
      </trkpt>
      <trkpt lat="44.49074" lon="-1.08503">
        <ele>18</ele>
        <time>2019-08-15T12:59:35Z</time>
      </trkpt>
      <trkpt lat="44.49065" lon="-1.08515">
        <ele>18</ele>
        <time>2019-08-15T12:59:40Z</time>
      </trkpt>
      <trkpt lat="44.49055" lon="-1.08525">
        <ele>18</ele>
        <time>2019-08-15T12:59:45Z</time>
      </trkpt>
      <trkpt lat="44.49045" lon="-1.08535">
        <ele>18</ele>
        <time>2019-08-15T12:59:50Z</time>
      </trkpt>
      <trkpt lat="44.49037" lon="-1.08547">
        <ele>18</ele>
        <time>2019-08-15T12:59:55Z</time>
      </trkpt>
      <trkpt lat="44.49028" lon="-1.08559">
        <ele>18</ele>
        <time>2019-08-15T13:00:00Z</time>
      </trkpt>
      <trkpt lat="44.4902" lon="-1.08571">
        <ele>18</ele>
        <time>2019-08-15T13:00:05Z</time>
      </trkpt>
      <trkpt lat="44.49012" lon="-1.08584">
        <ele>18</ele>
        <time>2019-08-15T13:00:10Z</time>
      </trkpt>
      <trkpt lat="44.49003" lon="-1.08596">
        <ele>18</ele>
        <time>2019-08-15T13:00:15Z</time>
      </trkpt>
      <trkpt lat="44.48994" lon="-1.0861">
        <ele>18</ele>
        <time>2019-08-15T13:00:20Z</time>
      </trkpt>
      <trkpt lat="44.48986" lon="-1.08623">
        <ele>18</ele>
        <time>2019-08-15T13:00:25Z</time>
      </trkpt>
      <trkpt lat="44.48977" lon="-1.08637">
        <ele>18</ele>
        <time>2019-08-15T13:00:30Z</time>
      </trkpt>
      <trkpt lat="44.48969" lon="-1.08651">
        <ele>18</ele>
        <time>2019-08-15T13:00:35Z</time>
      </trkpt>
      <trkpt lat="44.48961" lon="-1.08665">
        <ele>18</ele>
        <time>2019-08-15T13:00:40Z</time>
      </trkpt>
      <trkpt lat="44.48954" lon="-1.08678">
        <ele>18</ele>
        <time>2019-08-15T13:00:45Z</time>
      </trkpt>
      <trkpt lat="44.48947" lon="-1.08691">
        <ele>18</ele>
        <time>2019-08-15T13:00:50Z</time>
      </trkpt>
      <trkpt lat="44.4894" lon="-1.08704">
        <ele>18</ele>
        <time>2019-08-15T13:00:55Z</time>
      </trkpt>
      <trkpt lat="44.48932" lon="-1.08717">
        <ele>18</ele>
        <time>2019-08-15T13:01:00Z</time>
      </trkpt>
      <trkpt lat="44.48925" lon="-1.08728">
        <ele>18</ele>
        <time>2019-08-15T13:01:05Z</time>
      </trkpt>
      <trkpt lat="44.48916" lon="-1.08739">
        <ele>18</ele>
        <time>2019-08-15T13:01:10Z</time>
      </trkpt>
      <trkpt lat="44.48908" lon="-1.08749">
        <ele>18</ele>
        <time>2019-08-15T13:01:15Z</time>
      </trkpt>
      <trkpt lat="44.48899" lon="-1.08761">
        <ele>18</ele>
        <time>2019-08-15T13:01:20Z</time>
      </trkpt>
      <trkpt lat="44.4889" lon="-1.08772">
        <ele>18</ele>
        <time>2019-08-15T13:01:25Z</time>
      </trkpt>
      <trkpt lat="44.48882" lon="-1.08783">
        <ele>18</ele>
        <time>2019-08-15T13:01:30Z</time>
      </trkpt>
      <trkpt lat="44.48875" lon="-1.08795">
        <ele>18</ele>
        <time>2019-08-15T13:01:35Z</time>
      </trkpt>
      <trkpt lat="44.48868" lon="-1.08807">
        <ele>18</ele>
        <time>2019-08-15T13:01:40Z</time>
      </trkpt>
      <trkpt lat="44.48865" lon="-1.08818">
        <ele>18</ele>
        <time>2019-08-15T13:01:45Z</time>
      </trkpt>
      <trkpt lat="44.48869" lon="-1.08824">
        <ele>18</ele>
        <time>2019-08-15T13:01:50Z</time>
      </trkpt>
      <trkpt lat="44.48876" lon="-1.08825">
        <ele>18</ele>
        <time>2019-08-15T13:01:55Z</time>
      </trkpt>
      <trkpt lat="44.48884" lon="-1.08831">
        <ele>18</ele>
        <time>2019-08-15T13:02:00Z</time>
      </trkpt>
      <trkpt lat="44.48893" lon="-1.08838">
        <ele>18</ele>
        <time>2019-08-15T13:02:05Z</time>
      </trkpt>
      <trkpt lat="44.48904" lon="-1.08844">
        <ele>18</ele>
        <time>2019-08-15T13:02:10Z</time>
      </trkpt>
      <trkpt lat="44.48915" lon="-1.08851">
        <ele>18</ele>
        <time>2019-08-15T13:02:15Z</time>
      </trkpt>
      <trkpt lat="44.48924" lon="-1.08855">
        <ele>18</ele>
        <time>2019-08-15T13:02:20Z</time>
      </trkpt>
      <trkpt lat="44.48935" lon="-1.08862">
        <ele>18</ele>
        <time>2019-08-15T13:02:25Z</time>
      </trkpt>
      <trkpt lat="44.48946" lon="-1.08868">
        <ele>18</ele>
        <time>2019-08-15T13:02:30Z</time>
      </trkpt>
      <trkpt lat="44.48957" lon="-1.08875">
        <ele>18</ele>
        <time>2019-08-15T13:02:35Z</time>
      </trkpt>
      <trkpt lat="44.48969" lon="-1.08882">
        <ele>18</ele>
        <time>2019-08-15T13:02:40Z</time>
      </trkpt>
      <trkpt lat="44.4898" lon="-1.08889">
        <ele>18</ele>
        <time>2019-08-15T13:02:45Z</time>
      </trkpt>
      <trkpt lat="44.48991" lon="-1.08896">
        <ele>18</ele>
        <time>2019-08-15T13:02:50Z</time>
      </trkpt>
      <trkpt lat="44.49003" lon="-1.08904">
        <ele>18</ele>
        <time>2019-08-15T13:02:55Z</time>
      </trkpt>
      <trkpt lat="44.49014" lon="-1.08913">
        <ele>18</ele>
        <time>2019-08-15T13:03:00Z</time>
      </trkpt>
      <trkpt lat="44.49024" lon="-1.08923">
        <ele>18</ele>
        <time>2019-08-15T13:03:05Z</time>
      </trkpt>
      <trkpt lat="44.49034" lon="-1.0893">
        <ele>18</ele>
        <time>2019-08-15T13:03:10Z</time>
      </trkpt>
      <trkpt lat="44.49044" lon="-1.08936">
        <ele>18</ele>
        <time>2019-08-15T13:03:15Z</time>
      </trkpt>
      <trkpt lat="44.49055" lon="-1.08942">
        <ele>18</ele>
        <time>2019-08-15T13:03:20Z</time>
      </trkpt>
      <trkpt lat="44.49066" lon="-1.08946">
        <ele>18</ele>
        <time>2019-08-15T13:03:25Z</time>
      </trkpt>
      <trkpt lat="44.49078" lon="-1.08952">
        <ele>18</ele>
        <time>2019-08-15T13:03:30Z</time>
      </trkpt>
      <trkpt lat="44.4909" lon="-1.08957">
        <ele>18</ele>
        <time>2019-08-15T13:03:35Z</time>
      </trkpt>
      <trkpt lat="44.49101" lon="-1.08962">
        <ele>18</ele>
        <time>2019-08-15T13:03:40Z</time>
      </trkpt>
      <trkpt lat="44.49107" lon="-1.0897">
        <ele>18</ele>
        <time>2019-08-15T13:03:45Z</time>
      </trkpt>
      <trkpt lat="44.49106" lon="-1.08977">
        <ele>18</ele>
        <time>2019-08-15T13:03:50Z</time>
      </trkpt>
      <trkpt lat="44.49101" lon="-1.08984">
        <ele>18</ele>
        <time>2019-08-15T13:03:55Z</time>
      </trkpt>
      <trkpt lat="44.49096" lon="-1.08995">
        <ele>18</ele>
        <time>2019-08-15T13:04:00Z</time>
      </trkpt>
      <trkpt lat="44.4909" lon="-1.09007">
        <ele>18</ele>
        <time>2019-08-15T13:04:05Z</time>
      </trkpt>
      <trkpt lat="44.49083" lon="-1.09018">
        <ele>18</ele>
        <time>2019-08-15T13:04:10Z</time>
      </trkpt>
      <trkpt lat="44.49076" lon="-1.0903">
        <ele>18</ele>
        <time>2019-08-15T13:04:15Z</time>
      </trkpt>
      <trkpt lat="44.49069" lon="-1.09042">
        <ele>18</ele>
        <time>2019-08-15T13:04:20Z</time>
      </trkpt>
      <trkpt lat="44.49061" lon="-1.09052">
        <ele>18</ele>
        <time>2019-08-15T13:04:25Z</time>
      </trkpt>
      <trkpt lat="44.49054" lon="-1.09064">
        <ele>18</ele>
        <time>2019-08-15T13:04:30Z</time>
      </trkpt>
      <trkpt lat="44.49046" lon="-1.09075">
        <ele>18</ele>
        <time>2019-08-15T13:04:35Z</time>
      </trkpt>
      <trkpt lat="44.49037" lon="-1.09085">
        <ele>18</ele>
        <time>2019-08-15T13:04:40Z</time>
      </trkpt>
      <trkpt lat="44.49029" lon="-1.09097">
        <ele>18</ele>
        <time>2019-08-15T13:04:45Z</time>
      </trkpt>
      <trkpt lat="44.49022" lon="-1.09109">
        <ele>18</ele>
        <time>2019-08-15T13:04:50Z</time>
      </trkpt>
      <trkpt lat="44.49016" lon="-1.0912">
        <ele>18</ele>
        <time>2019-08-15T13:04:55Z</time>
      </trkpt>
      <trkpt lat="44.49008" lon="-1.09131">
        <ele>18</ele>
        <time>2019-08-15T13:05:00Z</time>
      </trkpt>
      <trkpt lat="44.49001" lon="-1.09143">
        <ele>18</ele>
        <time>2019-08-15T13:05:05Z</time>
      </trkpt>
      <trkpt lat="44.48996" lon="-1.09155">
        <ele>18</ele>
        <time>2019-08-15T13:05:10Z</time>
      </trkpt>
      <trkpt lat="44.48988" lon="-1.09168">
        <ele>18</ele>
        <time>2019-08-15T13:05:15Z</time>
      </trkpt>
      <trkpt lat="44.4898" lon="-1.0918">
        <ele>18</ele>
        <time>2019-08-15T13:05:20Z</time>
      </trkpt>
      <trkpt lat="44.48973" lon="-1.09193">
        <ele>18</ele>
        <time>2019-08-15T13:05:25Z</time>
      </trkpt>
      <trkpt lat="44.48966" lon="-1.09207">
        <ele>18</ele>
        <time>2019-08-15T13:05:30Z</time>
      </trkpt>
      <trkpt lat="44.48959" lon="-1.09221">
        <ele>18</ele>
        <time>2019-08-15T13:05:35Z</time>
      </trkpt>
      <trkpt lat="44.4895" lon="-1.09234">
        <ele>18</ele>
        <time>2019-08-15T13:05:40Z</time>
      </trkpt>
      <trkpt lat="44.48941" lon="-1.09246">
        <ele>18</ele>
        <time>2019-08-15T13:05:45Z</time>
      </trkpt>
      <trkpt lat="44.48933" lon="-1.09258">
        <ele>18</ele>
        <time>2019-08-15T13:05:50Z</time>
      </trkpt>
      <trkpt lat="44.48922" lon="-1.09271">
        <ele>18</ele>
        <time>2019-08-15T13:05:55Z</time>
      </trkpt>
      <trkpt lat="44.48914" lon="-1.09284">
        <ele>18</ele>
        <time>2019-08-15T13:06:00Z</time>
      </trkpt>
      <trkpt lat="44.48906" lon="-1.09297">
        <ele>18</ele>
        <time>2019-08-15T13:06:05Z</time>
      </trkpt>
      <trkpt lat="44.48899" lon="-1.09308">
        <ele>18</ele>
        <time>2019-08-15T13:06:10Z</time>
      </trkpt>
      <trkpt lat="44.48891" lon="-1.0932">
        <ele>18</ele>
        <time>2019-08-15T13:06:15Z</time>
      </trkpt>
      <trkpt lat="44.48884" lon="-1.09333">
        <ele>18</ele>
        <time>2019-08-15T13:06:20Z</time>
      </trkpt>
      <trkpt lat="44.48876" lon="-1.09346">
        <ele>18</ele>
        <time>2019-08-15T13:06:25Z</time>
      </trkpt>
      <trkpt lat="44.48868" lon="-1.09359">
        <ele>18</ele>
        <time>2019-08-15T13:06:30Z</time>
      </trkpt>
      <trkpt lat="44.48862" lon="-1.09373">
        <ele>18</ele>
        <time>2019-08-15T13:06:35Z</time>
      </trkpt>
      <trkpt lat="44.48855" lon="-1.09383">
        <ele>18</ele>
        <time>2019-08-15T13:06:40Z</time>
      </trkpt>
      <trkpt lat="44.48849" lon="-1.09395">
        <ele>18</ele>
        <time>2019-08-15T13:06:45Z</time>
      </trkpt>
      <trkpt lat="44.48841" lon="-1.09408">
        <ele>18</ele>
        <time>2019-08-15T13:06:50Z</time>
      </trkpt>
      <trkpt lat="44.48834" lon="-1.09421">
        <ele>18</ele>
        <time>2019-08-15T13:06:55Z</time>
      </trkpt>
      <trkpt lat="44.48827" lon="-1.09434">
        <ele>18</ele>
        <time>2019-08-15T13:07:00Z</time>
      </trkpt>
      <trkpt lat="44.48824" lon="-1.09447">
        <ele>18</ele>
        <time>2019-08-15T13:07:05Z</time>
      </trkpt>
      <trkpt lat="44.48829" lon="-1.09452">
        <ele>18</ele>
        <time>2019-08-15T13:07:10Z</time>
      </trkpt>
      <trkpt lat="44.48837" lon="-1.09455">
        <ele>18</ele>
        <time>2019-08-15T13:07:15Z</time>
      </trkpt>
      <trkpt lat="44.48845" lon="-1.09462">
        <ele>18</ele>
        <time>2019-08-15T13:07:20Z</time>
      </trkpt>
      <trkpt lat="44.48854" lon="-1.09467">
        <ele>18</ele>
        <time>2019-08-15T13:07:25Z</time>
      </trkpt>
      <trkpt lat="44.48864" lon="-1.09474">
        <ele>18</ele>
        <time>2019-08-15T13:07:30Z</time>
      </trkpt>
      <trkpt lat="44.48875" lon="-1.09479">
        <ele>18</ele>
        <time>2019-08-15T13:07:35Z</time>
      </trkpt>
      <trkpt lat="44.48886" lon="-1.09485">
        <ele>18</ele>
        <time>2019-08-15T13:07:40Z</time>
      </trkpt>
      <trkpt lat="44.48897" lon="-1.09489">
        <ele>18</ele>
        <time>2019-08-15T13:07:45Z</time>
      </trkpt>
      <trkpt lat="44.48908" lon="-1.09495">
        <ele>18</ele>
        <time>2019-08-15T13:07:50Z</time>
      </trkpt>
      <trkpt lat="44.48918" lon="-1.09502">
        <ele>18</ele>
        <time>2019-08-15T13:07:55Z</time>
      </trkpt>
      <trkpt lat="44.48929" lon="-1.09508">
        <ele>18</ele>
        <time>2019-08-15T13:08:00Z</time>
      </trkpt>
      <trkpt lat="44.4894" lon="-1.09512">
        <ele>18</ele>
        <time>2019-08-15T13:08:05Z</time>
      </trkpt>
      <trkpt lat="44.4895" lon="-1.09519">
        <ele>18</ele>
        <time>2019-08-15T13:08:10Z</time>
      </trkpt>
      <trkpt lat="44.4896" lon="-1.09523">
        <ele>18</ele>
        <time>2019-08-15T13:08:15Z</time>
      </trkpt>
      <trkpt lat="44.48971" lon="-1.09528">
        <ele>18</ele>
        <time>2019-08-15T13:08:20Z</time>
      </trkpt>
      <trkpt lat="44.48982" lon="-1.09535">
        <ele>18</ele>
        <time>2019-08-15T13:08:25Z</time>
      </trkpt>
      <trkpt lat="44.48993" lon="-1.09541">
        <ele>18</ele>
        <time>2019-08-15T13:08:30Z</time>
      </trkpt>
      <trkpt lat="44.49005" lon="-1.09545">
        <ele>18</ele>
        <time>2019-08-15T13:08:35Z</time>
      </trkpt>
      <trkpt lat="44.49018" lon="-1.09547">
        <ele>18</ele>
        <time>2019-08-15T13:08:40Z</time>
      </trkpt>
      <trkpt lat="44.49029" lon="-1.09551">
        <ele>18</ele>
        <time>2019-08-15T13:08:45Z</time>
      </trkpt>
      <trkpt lat="44.49041" lon="-1.09555">
        <ele>18</ele>
        <time>2019-08-15T13:08:50Z</time>
      </trkpt>
      <trkpt lat="44.49053" lon="-1.0956">
        <ele>18</ele>
        <time>2019-08-15T13:08:55Z</time>
      </trkpt>
      <trkpt lat="44.49065" lon="-1.09564">
        <ele>18</ele>
        <time>2019-08-15T13:09:00Z</time>
      </trkpt>
      <trkpt lat="44.49077" lon="-1.09568">
        <ele>18</ele>
        <time>2019-08-15T13:09:05Z</time>
      </trkpt>
      <trkpt lat="44.4909" lon="-1.09573">
        <ele>18</ele>
        <time>2019-08-15T13:09:10Z</time>
      </trkpt>
      <trkpt lat="44.49103" lon="-1.09578">
        <ele>18</ele>
        <time>2019-08-15T13:09:15Z</time>
      </trkpt>
      <trkpt lat="44.49116" lon="-1.09583">
        <ele>18</ele>
        <time>2019-08-15T13:09:20Z</time>
      </trkpt>
      <trkpt lat="44.49128" lon="-1.09589">
        <ele>18</ele>
        <time>2019-08-15T13:09:25Z</time>
      </trkpt>
      <trkpt lat="44.4914" lon="-1.09595">
        <ele>18</ele>
        <time>2019-08-15T13:09:30Z</time>
      </trkpt>
      <trkpt lat="44.49152" lon="-1.096">
        <ele>18</ele>
        <time>2019-08-15T13:09:35Z</time>
      </trkpt>
      <trkpt lat="44.49163" lon="-1.09606">
        <ele>18</ele>
        <time>2019-08-15T13:09:40Z</time>
      </trkpt>
      <trkpt lat="44.49172" lon="-1.09613">
        <ele>18</ele>
        <time>2019-08-15T13:09:45Z</time>
      </trkpt>
      <trkpt lat="44.49173" lon="-1.0962">
        <ele>18</ele>
        <time>2019-08-15T13:09:50Z</time>
      </trkpt>
      <trkpt lat="44.4917" lon="-1.09627">
        <ele>18</ele>
        <time>2019-08-15T13:09:55Z</time>
      </trkpt>
      <trkpt lat="44.49164" lon="-1.09637">
        <ele>18</ele>
        <time>2019-08-15T13:10:00Z</time>
      </trkpt>
      <trkpt lat="44.49159" lon="-1.09648">
        <ele>18</ele>
        <time>2019-08-15T13:10:05Z</time>
      </trkpt>
      <trkpt lat="44.49152" lon="-1.09662">
        <ele>18</ele>
        <time>2019-08-15T13:10:10Z</time>
      </trkpt>
      <trkpt lat="44.49147" lon="-1.09675">
        <ele>18</ele>
        <time>2019-08-15T13:10:15Z</time>
      </trkpt>
      <trkpt lat="44.49141" lon="-1.09689">
        <ele>18</ele>
        <time>2019-08-15T13:10:20Z</time>
      </trkpt>
      <trkpt lat="44.49136" lon="-1.09703">
        <ele>18</ele>
        <time>2019-08-15T13:10:25Z</time>
      </trkpt>
      <trkpt lat="44.49131" lon="-1.09717">
        <ele>18</ele>
        <time>2019-08-15T13:10:30Z</time>
      </trkpt>
      <trkpt lat="44.49126" lon="-1.09732">
        <ele>18</ele>
        <time>2019-08-15T13:10:35Z</time>
      </trkpt>
      <trkpt lat="44.49121" lon="-1.09745">
        <ele>18</ele>
        <time>2019-08-15T13:10:40Z</time>
      </trkpt>
      <trkpt lat="44.49115" lon="-1.09757">
        <ele>18</ele>
        <time>2019-08-15T13:10:45Z</time>
      </trkpt>
      <trkpt lat="44.49108" lon="-1.09771">
        <ele>18</ele>
        <time>2019-08-15T13:10:50Z</time>
      </trkpt>
      <trkpt lat="44.49102" lon="-1.09784">
        <ele>18</ele>
        <time>2019-08-15T13:10:55Z</time>
      </trkpt>
      <trkpt lat="44.49094" lon="-1.09798">
        <ele>18</ele>
        <time>2019-08-15T13:11:00Z</time>
      </trkpt>
      <trkpt lat="44.49086" lon="-1.09812">
        <ele>18</ele>
        <time>2019-08-15T13:11:05Z</time>
      </trkpt>
      <trkpt lat="44.49079" lon="-1.09824">
        <ele>18</ele>
        <time>2019-08-15T13:11:10Z</time>
      </trkpt>
      <trkpt lat="44.49072" lon="-1.09838">
        <ele>18</ele>
        <time>2019-08-15T13:11:15Z</time>
      </trkpt>
      <trkpt lat="44.49065" lon="-1.09853">
        <ele>18</ele>
        <time>2019-08-15T13:11:20Z</time>
      </trkpt>
      <trkpt lat="44.49059" lon="-1.09869">
        <ele>18</ele>
        <time>2019-08-15T13:11:25Z</time>
      </trkpt>
      <trkpt lat="44.49052" lon="-1.09884">
        <ele>18</ele>
        <time>2019-08-15T13:11:30Z</time>
      </trkpt>
      <trkpt lat="44.49046" lon="-1.09899">
        <ele>18</ele>
        <time>2019-08-15T13:11:35Z</time>
      </trkpt>
      <trkpt lat="44.4904" lon="-1.09913">
        <ele>18</ele>
        <time>2019-08-15T13:11:40Z</time>
      </trkpt>
      <trkpt lat="44.49034" lon="-1.09928">
        <ele>18</ele>
        <time>2019-08-15T13:11:45Z</time>
      </trkpt>
      <trkpt lat="44.49028" lon="-1.09942">
        <ele>18</ele>
        <time>2019-08-15T13:11:50Z</time>
      </trkpt>
      <trkpt lat="44.49021" lon="-1.09956">
        <ele>18</ele>
        <time>2019-08-15T13:11:55Z</time>
      </trkpt>
      <trkpt lat="44.49015" lon="-1.0997">
        <ele>18</ele>
        <time>2019-08-15T13:12:00Z</time>
      </trkpt>
      <trkpt lat="44.49008" lon="-1.09984">
        <ele>18</ele>
        <time>2019-08-15T13:12:05Z</time>
      </trkpt>
      <trkpt lat="44.49002" lon="-1.1">
        <ele>18</ele>
        <time>2019-08-15T13:12:10Z</time>
      </trkpt>
      <trkpt lat="44.48996" lon="-1.10015">
        <ele>18</ele>
        <time>2019-08-15T13:12:15Z</time>
      </trkpt>
      <trkpt lat="44.48991" lon="-1.1003">
        <ele>18</ele>
        <time>2019-08-15T13:12:20Z</time>
      </trkpt>
      <trkpt lat="44.48984" lon="-1.10044">
        <ele>18</ele>
        <time>2019-08-15T13:12:25Z</time>
      </trkpt>
      <trkpt lat="44.48976" lon="-1.10056">
        <ele>18</ele>
        <time>2019-08-15T13:12:30Z</time>
      </trkpt>
      <trkpt lat="44.48969" lon="-1.10068">
        <ele>18</ele>
        <time>2019-08-15T13:12:35Z</time>
      </trkpt>
      <trkpt lat="44.48962" lon="-1.10082">
        <ele>18</ele>
        <time>2019-08-15T13:12:40Z</time>
      </trkpt>
      <trkpt lat="44.48954" lon="-1.10096">
        <ele>18</ele>
        <time>2019-08-15T13:12:45Z</time>
      </trkpt>
      <trkpt lat="44.48947" lon="-1.1011">
        <ele>18</ele>
        <time>2019-08-15T13:12:50Z</time>
      </trkpt>
      <trkpt lat="44.48938" lon="-1.10123">
        <ele>18</ele>
        <time>2019-08-15T13:12:55Z</time>
      </trkpt>
      <trkpt lat="44.4893" lon="-1.10137">
        <ele>18</ele>
        <time>2019-08-15T13:13:00Z</time>
      </trkpt>
      <trkpt lat="44.48923" lon="-1.1015">
        <ele>18</ele>
        <time>2019-08-15T13:13:05Z</time>
      </trkpt>
      <trkpt lat="44.48915" lon="-1.10164">
        <ele>18</ele>
        <time>2019-08-15T13:13:10Z</time>
      </trkpt>
      <trkpt lat="44.48907" lon="-1.10178">
        <ele>18</ele>
        <time>2019-08-15T13:13:15Z</time>
      </trkpt>
      <trkpt lat="44.48899" lon="-1.10189">
        <ele>18</ele>
        <time>2019-08-15T13:13:20Z</time>
      </trkpt>
      <trkpt lat="44.48892" lon="-1.10199">
        <ele>18</ele>
        <time>2019-08-15T13:13:25Z</time>
      </trkpt>
      <trkpt lat="44.48894" lon="-1.10207">
        <ele>18</ele>
        <time>2019-08-15T13:13:30Z</time>
      </trkpt>
      <trkpt lat="44.48897" lon="-1.10208">
        <ele>18</ele>
        <time>2019-08-15T13:13:35Z</time>
      </trkpt>
      <trkpt lat="44.48903" lon="-1.10208">
        <ele>18</ele>
        <time>2019-08-15T13:13:40Z</time>
      </trkpt>
      <trkpt lat="44.48912" lon="-1.10211">
        <ele>18</ele>
        <time>2019-08-15T13:13:45Z</time>
      </trkpt>
      <trkpt lat="44.48922" lon="-1.10217">
        <ele>18</ele>
        <time>2019-08-15T13:13:50Z</time>
      </trkpt>
      <trkpt lat="44.48933" lon="-1.10223">
        <ele>18</ele>
        <time>2019-08-15T13:13:55Z</time>
      </trkpt>
      <trkpt lat="44.48943" lon="-1.10229">
        <ele>18</ele>
        <time>2019-08-15T13:14:00Z</time>
      </trkpt>
      <trkpt lat="44.48952" lon="-1.10238">
        <ele>18</ele>
        <time>2019-08-15T13:14:05Z</time>
      </trkpt>
      <trkpt lat="44.48962" lon="-1.10247">
        <ele>18</ele>
        <time>2019-08-15T13:14:10Z</time>
      </trkpt>
      <trkpt lat="44.48972" lon="-1.10255">
        <ele>18</ele>
        <time>2019-08-15T13:14:15Z</time>
      </trkpt>
      <trkpt lat="44.48983" lon="-1.10264">
        <ele>18</ele>
        <time>2019-08-15T13:14:20Z</time>
      </trkpt>
      <trkpt lat="44.48994" lon="-1.10271">
        <ele>18</ele>
        <time>2019-08-15T13:14:25Z</time>
      </trkpt>
      <trkpt lat="44.49005" lon="-1.10275">
        <ele>18</ele>
        <time>2019-08-15T13:14:30Z</time>
      </trkpt>
      <trkpt lat="44.49018" lon="-1.10279">
        <ele>18</ele>
        <time>2019-08-15T13:14:35Z</time>
      </trkpt>
      <trkpt lat="44.4903" lon="-1.10285">
        <ele>18</ele>
        <time>2019-08-15T13:14:40Z</time>
      </trkpt>
      <trkpt lat="44.49043" lon="-1.1029">
        <ele>18</ele>
        <time>2019-08-15T13:14:45Z</time>
      </trkpt>
      <trkpt lat="44.49054" lon="-1.10296">
        <ele>18</ele>
        <time>2019-08-15T13:14:50Z</time>
      </trkpt>
      <trkpt lat="44.49066" lon="-1.10302">
        <ele>18</ele>
        <time>2019-08-15T13:14:55Z</time>
      </trkpt>
      <trkpt lat="44.49078" lon="-1.10308">
        <ele>18</ele>
        <time>2019-08-15T13:15:00Z</time>
      </trkpt>
      <trkpt lat="44.4909" lon="-1.10313">
        <ele>18</ele>
        <time>2019-08-15T13:15:05Z</time>
      </trkpt>
      <trkpt lat="44.49102" lon="-1.10318">
        <ele>18</ele>
        <time>2019-08-15T13:15:10Z</time>
      </trkpt>
      <trkpt lat="44.49115" lon="-1.10324">
        <ele>18</ele>
        <time>2019-08-15T13:15:15Z</time>
      </trkpt>
      <trkpt lat="44.49127" lon="-1.1033">
        <ele>18</ele>
        <time>2019-08-15T13:15:20Z</time>
      </trkpt>
      <trkpt lat="44.49139" lon="-1.10335">
        <ele>18</ele>
        <time>2019-08-15T13:15:25Z</time>
      </trkpt>
      <trkpt lat="44.49151" lon="-1.10341">
        <ele>18</ele>
        <time>2019-08-15T13:15:30Z</time>
      </trkpt>
      <trkpt lat="44.49163" lon="-1.10347">
        <ele>18</ele>
        <time>2019-08-15T13:15:35Z</time>
      </trkpt>
      <trkpt lat="44.49175" lon="-1.10355">
        <ele>18</ele>
        <time>2019-08-15T13:15:40Z</time>
      </trkpt>
      <trkpt lat="44.49185" lon="-1.10362">
        <ele>18</ele>
        <time>2019-08-15T13:15:45Z</time>
      </trkpt>
      <trkpt lat="44.49196" lon="-1.10368">
        <ele>18</ele>
        <time>2019-08-15T13:15:50Z</time>
      </trkpt>
      <trkpt lat="44.49206" lon="-1.10374">
        <ele>18</ele>
        <time>2019-08-15T13:15:55Z</time>
      </trkpt>
      <trkpt lat="44.49217" lon="-1.10381">
        <ele>18</ele>
        <time>2019-08-15T13:16:00Z</time>
      </trkpt>
      <trkpt lat="44.49228" lon="-1.10388">
        <ele>18</ele>
        <time>2019-08-15T13:16:05Z</time>
      </trkpt>
      <trkpt lat="44.49238" lon="-1.10395">
        <ele>18</ele>
        <time>2019-08-15T13:16:10Z</time>
      </trkpt>
      <trkpt lat="44.4925" lon="-1.10399">
        <ele>18</ele>
        <time>2019-08-15T13:16:15Z</time>
      </trkpt>
      <trkpt lat="44.49262" lon="-1.10403">
        <ele>18</ele>
        <time>2019-08-15T13:16:20Z</time>
      </trkpt>
      <trkpt lat="44.49274" lon="-1.10406">
        <ele>18</ele>
        <time>2019-08-15T13:16:25Z</time>
      </trkpt>
      <trkpt lat="44.49286" lon="-1.10411">
        <ele>18</ele>
        <time>2019-08-15T13:16:30Z</time>
      </trkpt>
      <trkpt lat="44.49299" lon="-1.10415">
        <ele>18</ele>
        <time>2019-08-15T13:16:35Z</time>
      </trkpt>
      <trkpt lat="44.49312" lon="-1.10421">
        <ele>18</ele>
        <time>2019-08-15T13:16:40Z</time>
      </trkpt>
      <trkpt lat="44.49324" lon="-1.10427">
        <ele>18</ele>
        <time>2019-08-15T13:16:45Z</time>
      </trkpt>
      <trkpt lat="44.49336" lon="-1.10434">
        <ele>18</ele>
        <time>2019-08-15T13:16:50Z</time>
      </trkpt>
      <trkpt lat="44.49347" lon="-1.10442">
        <ele>18</ele>
        <time>2019-08-15T13:16:55Z</time>
      </trkpt>
      <trkpt lat="44.49358" lon="-1.1045">
        <ele>18</ele>
        <time>2019-08-15T13:17:00Z</time>
      </trkpt>
      <trkpt lat="44.49369" lon="-1.10458">
        <ele>18</ele>
        <time>2019-08-15T13:17:05Z</time>
      </trkpt>
      <trkpt lat="44.4938" lon="-1.10465">
        <ele>18</ele>
        <time>2019-08-15T13:17:10Z</time>
      </trkpt>
      <trkpt lat="44.49391" lon="-1.10473">
        <ele>18</ele>
        <time>2019-08-15T13:17:15Z</time>
      </trkpt>
      <trkpt lat="44.49403" lon="-1.10478">
        <ele>18</ele>
        <time>2019-08-15T13:17:20Z</time>
      </trkpt>
      <trkpt lat="44.49414" lon="-1.10485">
        <ele>18</ele>
        <time>2019-08-15T13:17:25Z</time>
      </trkpt>
      <trkpt lat="44.49426" lon="-1.10493">
        <ele>18</ele>
        <time>2019-08-15T13:17:30Z</time>
      </trkpt>
      <trkpt lat="44.49438" lon="-1.10497">
        <ele>18</ele>
        <time>2019-08-15T13:17:35Z</time>
      </trkpt>
      <trkpt lat="44.4945" lon="-1.10502">
        <ele>18</ele>
        <time>2019-08-15T13:17:40Z</time>
      </trkpt>
      <trkpt lat="44.49463" lon="-1.10507">
        <ele>18</ele>
        <time>2019-08-15T13:17:45Z</time>
      </trkpt>
      <trkpt lat="44.49475" lon="-1.10514">
        <ele>18</ele>
        <time>2019-08-15T13:17:50Z</time>
      </trkpt>
      <trkpt lat="44.49485" lon="-1.10524">
        <ele>18</ele>
        <time>2019-08-15T13:17:55Z</time>
      </trkpt>
      <trkpt lat="44.49495" lon="-1.10533">
        <ele>18</ele>
        <time>2019-08-15T13:18:00Z</time>
      </trkpt>
      <trkpt lat="44.49506" lon="-1.10543">
        <ele>18</ele>
        <time>2019-08-15T13:18:05Z</time>
      </trkpt>
      <trkpt lat="44.49517" lon="-1.10552">
        <ele>18</ele>
        <time>2019-08-15T13:18:10Z</time>
      </trkpt>
      <trkpt lat="44.49528" lon="-1.1056">
        <ele>18</ele>
        <time>2019-08-15T13:18:15Z</time>
      </trkpt>
      <trkpt lat="44.4954" lon="-1.10567">
        <ele>18</ele>
        <time>2019-08-15T13:18:20Z</time>
      </trkpt>
      <trkpt lat="44.49552" lon="-1.10574">
        <ele>18</ele>
        <time>2019-08-15T13:18:25Z</time>
      </trkpt>
      <trkpt lat="44.49564" lon="-1.10583">
        <ele>18</ele>
        <time>2019-08-15T13:18:30Z</time>
      </trkpt>
      <trkpt lat="44.49574" lon="-1.10593">
        <ele>18</ele>
        <time>2019-08-15T13:18:35Z</time>
      </trkpt>
      <trkpt lat="44.49585" lon="-1.10601">
        <ele>18</ele>
        <time>2019-08-15T13:18:40Z</time>
      </trkpt>
      <trkpt lat="44.49597" lon="-1.10608">
        <ele>18</ele>
        <time>2019-08-15T13:18:45Z</time>
      </trkpt>
      <trkpt lat="44.49608" lon="-1.10616">
        <ele>18</ele>
        <time>2019-08-15T13:18:50Z</time>
      </trkpt>
      <trkpt lat="44.49619" lon="-1.10625">
        <ele>18</ele>
        <time>2019-08-15T13:18:55Z</time>
      </trkpt>
      <trkpt lat="44.49629" lon="-1.10633">
        <ele>18</ele>
        <time>2019-08-15T13:19:00Z</time>
      </trkpt>
      <trkpt lat="44.49641" lon="-1.1064">
        <ele>18</ele>
        <time>2019-08-15T13:19:05Z</time>
      </trkpt>
      <trkpt lat="44.49652" lon="-1.10646">
        <ele>18</ele>
        <time>2019-08-15T13:19:10Z</time>
      </trkpt>
      <trkpt lat="44.49664" lon="-1.10651">
        <ele>18</ele>
        <time>2019-08-15T13:19:15Z</time>
      </trkpt>
      <trkpt lat="44.49676" lon="-1.10658">
        <ele>18</ele>
        <time>2019-08-15T13:19:20Z</time>
      </trkpt>
      <trkpt lat="44.49688" lon="-1.10664">
        <ele>18</ele>
        <time>2019-08-15T13:19:25Z</time>
      </trkpt>
      <trkpt lat="44.497" lon="-1.10671">
        <ele>18</ele>
        <time>2019-08-15T13:19:30Z</time>
      </trkpt>
      <trkpt lat="44.49711" lon="-1.10677">
        <ele>18</ele>
        <time>2019-08-15T13:19:35Z</time>
      </trkpt>
      <trkpt lat="44.49722" lon="-1.10684">
        <ele>18</ele>
        <time>2019-08-15T13:19:40Z</time>
      </trkpt>
      <trkpt lat="44.49733" lon="-1.10689">
        <ele>18</ele>
        <time>2019-08-15T13:19:45Z</time>
      </trkpt>
      <trkpt lat="44.49744" lon="-1.10696">
        <ele>18</ele>
        <time>2019-08-15T13:19:50Z</time>
      </trkpt>
      <trkpt lat="44.49755" lon="-1.10703">
        <ele>18</ele>
        <time>2019-08-15T13:19:55Z</time>
      </trkpt>
      <trkpt lat="44.49758" lon="-1.10712">
        <ele>18</ele>
        <time>2019-08-15T13:20:00Z</time>
      </trkpt>
      <trkpt lat="44.49755" lon="-1.10718">
        <ele>18</ele>
        <time>2019-08-15T13:20:05Z</time>
      </trkpt>
      <trkpt lat="44.4975" lon="-1.10725">
        <ele>18</ele>
        <time>2019-08-15T13:20:10Z</time>
      </trkpt>
      <trkpt lat="44.49743" lon="-1.10735">
        <ele>18</ele>
        <time>2019-08-15T13:20:15Z</time>
      </trkpt>
      <trkpt lat="44.49735" lon="-1.10746">
        <ele>18</ele>
        <time>2019-08-15T13:20:20Z</time>
      </trkpt>
      <trkpt lat="44.49728" lon="-1.10757">
        <ele>18</ele>
        <time>2019-08-15T13:20:25Z</time>
      </trkpt>
      <trkpt lat="44.4972" lon="-1.10769">
        <ele>18</ele>
        <time>2019-08-15T13:20:30Z</time>
      </trkpt>
      <trkpt lat="44.49713" lon="-1.10781">
        <ele>18</ele>
        <time>2019-08-15T13:20:35Z</time>
      </trkpt>
      <trkpt lat="44.49706" lon="-1.10793">
        <ele>18</ele>
        <time>2019-08-15T13:20:40Z</time>
      </trkpt>
      <trkpt lat="44.49697" lon="-1.10804">
        <ele>18</ele>
        <time>2019-08-15T13:20:45Z</time>
      </trkpt>
      <trkpt lat="44.49689" lon="-1.10814">
        <ele>18</ele>
        <time>2019-08-15T13:20:50Z</time>
      </trkpt>
      <trkpt lat="44.49681" lon="-1.10826">
        <ele>18</ele>
        <time>2019-08-15T13:20:55Z</time>
      </trkpt>
      <trkpt lat="44.49674" lon="-1.10838">
        <ele>18</ele>
        <time>2019-08-15T13:21:00Z</time>
      </trkpt>
      <trkpt lat="44.49666" lon="-1.10851">
        <ele>18</ele>
        <time>2019-08-15T13:21:05Z</time>
      </trkpt>
      <trkpt lat="44.49659" lon="-1.10863">
        <ele>18</ele>
        <time>2019-08-15T13:21:10Z</time>
      </trkpt>
      <trkpt lat="44.49654" lon="-1.10876">
        <ele>18</ele>
        <time>2019-08-15T13:21:15Z</time>
      </trkpt>
      <trkpt lat="44.49648" lon="-1.10887">
        <ele>18</ele>
        <time>2019-08-15T13:21:20Z</time>
      </trkpt>
      <trkpt lat="44.49642" lon="-1.10899">
        <ele>18</ele>
        <time>2019-08-15T13:21:25Z</time>
      </trkpt>
      <trkpt lat="44.49637" lon="-1.10912">
        <ele>18</ele>
        <time>2019-08-15T13:21:30Z</time>
      </trkpt>
      <trkpt lat="44.49631" lon="-1.10924">
        <ele>18</ele>
        <time>2019-08-15T13:21:35Z</time>
      </trkpt>
      <trkpt lat="44.49624" lon="-1.10937">
        <ele>18</ele>
        <time>2019-08-15T13:21:40Z</time>
      </trkpt>
      <trkpt lat="44.49617" lon="-1.10949">
        <ele>18</ele>
        <time>2019-08-15T13:21:45Z</time>
      </trkpt>
      <trkpt lat="44.4961" lon="-1.10961">
        <ele>18</ele>
        <time>2019-08-15T13:21:50Z</time>
      </trkpt>
      <trkpt lat="44.49602" lon="-1.10974">
        <ele>18</ele>
        <time>2019-08-15T13:21:55Z</time>
      </trkpt>
      <trkpt lat="44.49594" lon="-1.10987">
        <ele>18</ele>
        <time>2019-08-15T13:22:00Z</time>
      </trkpt>
      <trkpt lat="44.49587" lon="-1.10999">
        <ele>18</ele>
        <time>2019-08-15T13:22:05Z</time>
      </trkpt>
      <trkpt lat="44.49578" lon="-1.1101">
        <ele>18</ele>
        <time>2019-08-15T13:22:10Z</time>
      </trkpt>
      <trkpt lat="44.49571" lon="-1.11023">
        <ele>18</ele>
        <time>2019-08-15T13:22:15Z</time>
      </trkpt>
      <trkpt lat="44.49564" lon="-1.11035">
        <ele>18</ele>
        <time>2019-08-15T13:22:20Z</time>
      </trkpt>
      <trkpt lat="44.49556" lon="-1.11047">
        <ele>18</ele>
        <time>2019-08-15T13:22:25Z</time>
      </trkpt>
      <trkpt lat="44.49548" lon="-1.11058">
        <ele>18</ele>
        <time>2019-08-15T13:22:30Z</time>
      </trkpt>
      <trkpt lat="44.49539" lon="-1.11069">
        <ele>18</ele>
        <time>2019-08-15T13:22:35Z</time>
      </trkpt>
      <trkpt lat="44.49529" lon="-1.1108">
        <ele>18</ele>
        <time>2019-08-15T13:22:40Z</time>
      </trkpt>
      <trkpt lat="44.49519" lon="-1.11091">
        <ele>18</ele>
        <time>2019-08-15T13:22:45Z</time>
      </trkpt>
      <trkpt lat="44.49509" lon="-1.11101">
        <ele>18</ele>
        <time>2019-08-15T13:22:50Z</time>
      </trkpt>
      <trkpt lat="44.49499" lon="-1.11111">
        <ele>18</ele>
        <time>2019-08-15T13:22:55Z</time>
      </trkpt>
      <trkpt lat="44.49489" lon="-1.11121">
        <ele>18</ele>
        <time>2019-08-15T13:23:00Z</time>
      </trkpt>
      <trkpt lat="44.49482" lon="-1.11133">
        <ele>18</ele>
        <time>2019-08-15T13:23:05Z</time>
      </trkpt>
      <trkpt lat="44.49477" lon="-1.11145">
        <ele>18</ele>
        <time>2019-08-15T13:23:10Z</time>
      </trkpt>
      <trkpt lat="44.4947" lon="-1.11153">
        <ele>18</ele>
        <time>2019-08-15T13:23:15Z</time>
      </trkpt>
      <trkpt lat="44.4946" lon="-1.1116">
        <ele>18</ele>
        <time>2019-08-15T13:23:20Z</time>
      </trkpt>
      <trkpt lat="44.49455" lon="-1.11171">
        <ele>18</ele>
        <time>2019-08-15T13:23:25Z</time>
      </trkpt>
      <trkpt lat="44.49452" lon="-1.11182">
        <ele>18</ele>
        <time>2019-08-15T13:23:30Z</time>
      </trkpt>
      <trkpt lat="44.49448" lon="-1.11189">
        <ele>18</ele>
        <time>2019-08-15T13:23:35Z</time>
      </trkpt>
      <trkpt lat="44.49441" lon="-1.11196">
        <ele>18</ele>
        <time>2019-08-15T13:23:40Z</time>
      </trkpt>
      <trkpt lat="44.49435" lon="-1.11204">
        <ele>18</ele>
        <time>2019-08-15T13:23:45Z</time>
      </trkpt>
      <trkpt lat="44.4943" lon="-1.11215">
        <ele>18</ele>
        <time>2019-08-15T13:23:50Z</time>
      </trkpt>
      <trkpt lat="44.49424" lon="-1.11224">
        <ele>18</ele>
        <time>2019-08-15T13:23:55Z</time>
      </trkpt>
      <trkpt lat="44.49416" lon="-1.11234">
        <ele>18</ele>
        <time>2019-08-15T13:24:00Z</time>
      </trkpt>
      <trkpt lat="44.49409" lon="-1.11244">
        <ele>18</ele>
        <time>2019-08-15T13:24:05Z</time>
      </trkpt>
      <trkpt lat="44.49401" lon="-1.11254">
        <ele>18</ele>
        <time>2019-08-15T13:24:10Z</time>
      </trkpt>
      <trkpt lat="44.49392" lon="-1.11264">
        <ele>18</ele>
        <time>2019-08-15T13:24:15Z</time>
      </trkpt>
      <trkpt lat="44.49385" lon="-1.11274">
        <ele>18</ele>
        <time>2019-08-15T13:24:20Z</time>
      </trkpt>
      <trkpt lat="44.49377" lon="-1.11283">
        <ele>18</ele>
        <time>2019-08-15T13:24:25Z</time>
      </trkpt>
      <trkpt lat="44.49368" lon="-1.11294">
        <ele>18</ele>
        <time>2019-08-15T13:24:30Z</time>
      </trkpt>
      <trkpt lat="44.49358" lon="-1.11303">
        <ele>18</ele>
        <time>2019-08-15T13:24:35Z</time>
      </trkpt>
      <trkpt lat="44.49349" lon="-1.11314">
        <ele>18</ele>
        <time>2019-08-15T13:24:40Z</time>
      </trkpt>
      <trkpt lat="44.49339" lon="-1.11323">
        <ele>18</ele>
        <time>2019-08-15T13:24:45Z</time>
      </trkpt>
      <trkpt lat="44.49329" lon="-1.11333">
        <ele>18</ele>
        <time>2019-08-15T13:24:50Z</time>
      </trkpt>
      <trkpt lat="44.49318" lon="-1.11343">
        <ele>18</ele>
        <time>2019-08-15T13:24:55Z</time>
      </trkpt>
      <trkpt lat="44.49307" lon="-1.11351">
        <ele>18</ele>
        <time>2019-08-15T13:25:00Z</time>
      </trkpt>
      <trkpt lat="44.49295" lon="-1.11358">
        <ele>18</ele>
        <time>2019-08-15T13:25:05Z</time>
      </trkpt>
      <trkpt lat="44.49283" lon="-1.11366">
        <ele>18</ele>
        <time>2019-08-15T13:25:10Z</time>
      </trkpt>
      <trkpt lat="44.49273" lon="-1.11375">
        <ele>18</ele>
        <time>2019-08-15T13:25:15Z</time>
      </trkpt>
      <trkpt lat="44.49263" lon="-1.11385">
        <ele>18</ele>
        <time>2019-08-15T13:25:20Z</time>
      </trkpt>
      <trkpt lat="44.49254" lon="-1.11396">
        <ele>18</ele>
        <time>2019-08-15T13:25:25Z</time>
      </trkpt>
      <trkpt lat="44.49244" lon="-1.11404">
        <ele>18</ele>
        <time>2019-08-15T13:25:30Z</time>
      </trkpt>
      <trkpt lat="44.49234" lon="-1.11414">
        <ele>18</ele>
        <time>2019-08-15T13:25:35Z</time>
      </trkpt>
      <trkpt lat="44.49224" lon="-1.11424">
        <ele>18</ele>
        <time>2019-08-15T13:25:40Z</time>
      </trkpt>
      <trkpt lat="44.49215" lon="-1.11434">
        <ele>18</ele>
        <time>2019-08-15T13:25:45Z</time>
      </trkpt>
      <trkpt lat="44.49206" lon="-1.11445">
        <ele>18</ele>
        <time>2019-08-15T13:25:50Z</time>
      </trkpt>
      <trkpt lat="44.49197" lon="-1.11455">
        <ele>18</ele>
        <time>2019-08-15T13:25:55Z</time>
      </trkpt>
      <trkpt lat="44.49189" lon="-1.11464">
        <ele>18</ele>
        <time>2019-08-15T13:26:00Z</time>
      </trkpt>
      <trkpt lat="44.49178" lon="-1.11472">
        <ele>18</ele>
        <time>2019-08-15T13:26:05Z</time>
      </trkpt>
      <trkpt lat="44.49167" lon="-1.1148">
        <ele>18</ele>
        <time>2019-08-15T13:26:10Z</time>
      </trkpt>
      <trkpt lat="44.49155" lon="-1.11486">
        <ele>18</ele>
        <time>2019-08-15T13:26:15Z</time>
      </trkpt>
      <trkpt lat="44.49145" lon="-1.11494">
        <ele>18</ele>
        <time>2019-08-15T13:26:20Z</time>
      </trkpt>
      <trkpt lat="44.49135" lon="-1.11501">
        <ele>18</ele>
        <time>2019-08-15T13:26:25Z</time>
      </trkpt>
      <trkpt lat="44.49125" lon="-1.11509">
        <ele>18</ele>
        <time>2019-08-15T13:26:30Z</time>
      </trkpt>
      <trkpt lat="44.49115" lon="-1.11518">
        <ele>18</ele>
        <time>2019-08-15T13:26:35Z</time>
      </trkpt>
      <trkpt lat="44.49105" lon="-1.11528">
        <ele>18</ele>
        <time>2019-08-15T13:26:40Z</time>
      </trkpt>
      <trkpt lat="44.49095" lon="-1.11535">
        <ele>18</ele>
        <time>2019-08-15T13:26:45Z</time>
      </trkpt>
      <trkpt lat="44.49085" lon="-1.11543">
        <ele>18</ele>
        <time>2019-08-15T13:26:50Z</time>
      </trkpt>
      <trkpt lat="44.49076" lon="-1.11551">
        <ele>18</ele>
        <time>2019-08-15T13:26:55Z</time>
      </trkpt>
      <trkpt lat="44.49067" lon="-1.1156">
        <ele>18</ele>
        <time>2019-08-15T13:27:00Z</time>
      </trkpt>
      <trkpt lat="44.49062" lon="-1.11572">
        <ele>18</ele>
        <time>2019-08-15T13:27:05Z</time>
      </trkpt>
      <trkpt lat="44.49065" lon="-1.11578">
        <ele>18</ele>
        <time>2019-08-15T13:27:10Z</time>
      </trkpt>
      <trkpt lat="44.49072" lon="-1.11584">
        <ele>18</ele>
        <time>2019-08-15T13:27:15Z</time>
      </trkpt>
      <trkpt lat="44.49078" lon="-1.11593">
        <ele>18</ele>
        <time>2019-08-15T13:27:20Z</time>
      </trkpt>
      <trkpt lat="44.49085" lon="-1.11604">
        <ele>18</ele>
        <time>2019-08-15T13:27:25Z</time>
      </trkpt>
      <trkpt lat="44.49091" lon="-1.11614">
        <ele>18</ele>
        <time>2019-08-15T13:27:30Z</time>
      </trkpt>
      <trkpt lat="44.49099" lon="-1.11625">
        <ele>18</ele>
        <time>2019-08-15T13:27:35Z</time>
      </trkpt>
      <trkpt lat="44.49107" lon="-1.11635">
        <ele>18</ele>
        <time>2019-08-15T13:27:40Z</time>
      </trkpt>
      <trkpt lat="44.49117" lon="-1.11644">
        <ele>18</ele>
        <time>2019-08-15T13:27:45Z</time>
      </trkpt>
      <trkpt lat="44.49128" lon="-1.1165">
        <ele>18</ele>
        <time>2019-08-15T13:27:50Z</time>
      </trkpt>
      <trkpt lat="44.49139" lon="-1.11654">
        <ele>18</ele>
        <time>2019-08-15T13:27:55Z</time>
      </trkpt>
      <trkpt lat="44.49151" lon="-1.11656">
        <ele>18</ele>
        <time>2019-08-15T13:28:00Z</time>
      </trkpt>
      <trkpt lat="44.49163" lon="-1.1166">
        <ele>18</ele>
        <time>2019-08-15T13:28:05Z</time>
      </trkpt>
      <trkpt lat="44.49174" lon="-1.11668">
        <ele>18</ele>
        <time>2019-08-15T13:28:10Z</time>
      </trkpt>
      <trkpt lat="44.49182" lon="-1.11678">
        <ele>18</ele>
        <time>2019-08-15T13:28:15Z</time>
      </trkpt>
      <trkpt lat="44.49188" lon="-1.11689">
        <ele>18</ele>
        <time>2019-08-15T13:28:20Z</time>
      </trkpt>
      <trkpt lat="44.49195" lon="-1.11699">
        <ele>18</ele>
        <time>2019-08-15T13:28:25Z</time>
      </trkpt>
      <trkpt lat="44.49203" lon="-1.11709">
        <ele>18</ele>
        <time>2019-08-15T13:28:30Z</time>
      </trkpt>
      <trkpt lat="44.49212" lon="-1.11719">
        <ele>18</ele>
        <time>2019-08-15T13:28:35Z</time>
      </trkpt>
      <trkpt lat="44.49221" lon="-1.11729">
        <ele>18</ele>
        <time>2019-08-15T13:28:40Z</time>
      </trkpt>
      <trkpt lat="44.4923" lon="-1.11739">
        <ele>18</ele>
        <time>2019-08-15T13:28:45Z</time>
      </trkpt>
      <trkpt lat="44.49238" lon="-1.11748">
        <ele>18</ele>
        <time>2019-08-15T13:28:50Z</time>
      </trkpt>
      <trkpt lat="44.49244" lon="-1.11758">
        <ele>18</ele>
        <time>2019-08-15T13:28:55Z</time>
      </trkpt>
      <trkpt lat="44.49251" lon="-1.11767">
        <ele>18</ele>
        <time>2019-08-15T13:29:00Z</time>
      </trkpt>
      <trkpt lat="44.49261" lon="-1.11773">
        <ele>18</ele>
        <time>2019-08-15T13:29:05Z</time>
      </trkpt>
      <trkpt lat="44.49272" lon="-1.11778">
        <ele>18</ele>
        <time>2019-08-15T13:29:10Z</time>
      </trkpt>
      <trkpt lat="44.49283" lon="-1.11783">
        <ele>18</ele>
        <time>2019-08-15T13:29:15Z</time>
      </trkpt>
      <trkpt lat="44.49294" lon="-1.11789">
        <ele>18</ele>
        <time>2019-08-15T13:29:20Z</time>
      </trkpt>
      <trkpt lat="44.49305" lon="-1.11797">
        <ele>18</ele>
        <time>2019-08-15T13:29:25Z</time>
      </trkpt>
      <trkpt lat="44.49316" lon="-1.11804">
        <ele>18</ele>
        <time>2019-08-15T13:29:30Z</time>
      </trkpt>
      <trkpt lat="44.49327" lon="-1.1181">
        <ele>18</ele>
        <time>2019-08-15T13:29:35Z</time>
      </trkpt>
      <trkpt lat="44.49337" lon="-1.11817">
        <ele>18</ele>
        <time>2019-08-15T13:29:40Z</time>
      </trkpt>
      <trkpt lat="44.49348" lon="-1.11824">
        <ele>18</ele>
        <time>2019-08-15T13:29:45Z</time>
      </trkpt>
      <trkpt lat="44.49359" lon="-1.11832">
        <ele>18</ele>
        <time>2019-08-15T13:29:50Z</time>
      </trkpt>
      <trkpt lat="44.49369" lon="-1.11841">
        <ele>18</ele>
        <time>2019-08-15T13:29:55Z</time>
      </trkpt>
      <trkpt lat="44.49379" lon="-1.11847">
        <ele>18</ele>
        <time>2019-08-15T13:30:00Z</time>
      </trkpt>
      <trkpt lat="44.49389" lon="-1.11854">
        <ele>18</ele>
        <time>2019-08-15T13:30:05Z</time>
      </trkpt>
      <trkpt lat="44.49397" lon="-1.11862">
        <ele>18</ele>
        <time>2019-08-15T13:30:10Z</time>
      </trkpt>
      <trkpt lat="44.49407" lon="-1.11864">
        <ele>18</ele>
        <time>2019-08-15T13:30:15Z</time>
      </trkpt>
      <trkpt lat="44.49417" lon="-1.11857">
        <ele>18</ele>
        <time>2019-08-15T13:30:20Z</time>
      </trkpt>
      <trkpt lat="44.49426" lon="-1.11848">
        <ele>18</ele>
        <time>2019-08-15T13:30:25Z</time>
      </trkpt>
      <trkpt lat="44.49435" lon="-1.1184">
        <ele>18</ele>
        <time>2019-08-15T13:30:30Z</time>
      </trkpt>
      <trkpt lat="44.49443" lon="-1.11831">
        <ele>18</ele>
        <time>2019-08-15T13:30:35Z</time>
      </trkpt>
      <trkpt lat="44.4945" lon="-1.11821">
        <ele>18</ele>
        <time>2019-08-15T13:30:40Z</time>
      </trkpt>
      <trkpt lat="44.49457" lon="-1.11811">
        <ele>18</ele>
        <time>2019-08-15T13:30:45Z</time>
      </trkpt>
      <trkpt lat="44.49465" lon="-1.11802">
        <ele>18</ele>
        <time>2019-08-15T13:30:50Z</time>
      </trkpt>
      <trkpt lat="44.49471" lon="-1.11792">
        <ele>18</ele>
        <time>2019-08-15T13:30:55Z</time>
      </trkpt>
      <trkpt lat="44.49478" lon="-1.11783">
        <ele>18</ele>
        <time>2019-08-15T13:31:00Z</time>
      </trkpt>
      <trkpt lat="44.49484" lon="-1.11775">
        <ele>18</ele>
        <time>2019-08-15T13:31:05Z</time>
      </trkpt>
      <trkpt lat="44.49492" lon="-1.11767">
        <ele>18</ele>
        <time>2019-08-15T13:31:10Z</time>
      </trkpt>
      <trkpt lat="44.49498" lon="-1.11759">
        <ele>18</ele>
        <time>2019-08-15T13:31:15Z</time>
      </trkpt>
      <trkpt lat="44.49504" lon="-1.11749">
        <ele>18</ele>
        <time>2019-08-15T13:31:20Z</time>
      </trkpt>
      <trkpt lat="44.4951" lon="-1.11741">
        <ele>18</ele>
        <time>2019-08-15T13:31:25Z</time>
      </trkpt>
      <trkpt lat="44.49515" lon="-1.11733">
        <ele>18</ele>
        <time>2019-08-15T13:31:30Z</time>
      </trkpt>
      <trkpt lat="44.4952" lon="-1.11725">
        <ele>18</ele>
        <time>2019-08-15T13:31:35Z</time>
      </trkpt>
      <trkpt lat="44.49525" lon="-1.11716">
        <ele>18</ele>
        <time>2019-08-15T13:31:40Z</time>
      </trkpt>
      <trkpt lat="44.49529" lon="-1.11707">
        <ele>18</ele>
        <time>2019-08-15T13:31:45Z</time>
      </trkpt>
      <trkpt lat="44.49533" lon="-1.11699">
        <ele>18</ele>
        <time>2019-08-15T13:31:50Z</time>
      </trkpt>
      <trkpt lat="44.49537" lon="-1.1169">
        <ele>18</ele>
        <time>2019-08-15T13:31:55Z</time>
      </trkpt>
      <trkpt lat="44.49541" lon="-1.11681">
        <ele>18</ele>
        <time>2019-08-15T13:32:00Z</time>
      </trkpt>
      <trkpt lat="44.49547" lon="-1.11672">
        <ele>18</ele>
        <time>2019-08-15T13:32:05Z</time>
      </trkpt>
      <trkpt lat="44.49551" lon="-1.11663">
        <ele>18</ele>
        <time>2019-08-15T13:32:10Z</time>
      </trkpt>
      <trkpt lat="44.49554" lon="-1.11653">
        <ele>18</ele>
        <time>2019-08-15T13:32:15Z</time>
      </trkpt>
      <trkpt lat="44.49557" lon="-1.11642">
        <ele>18</ele>
        <time>2019-08-15T13:32:20Z</time>
      </trkpt>
      <trkpt lat="44.49561" lon="-1.11632">
        <ele>18</ele>
        <time>2019-08-15T13:32:25Z</time>
      </trkpt>
      <trkpt lat="44.49567" lon="-1.11622">
        <ele>18</ele>
        <time>2019-08-15T13:32:30Z</time>
      </trkpt>
      <trkpt lat="44.49574" lon="-1.11611">
        <ele>18</ele>
        <time>2019-08-15T13:32:35Z</time>
      </trkpt>
      <trkpt lat="44.49581" lon="-1.116">
        <ele>18</ele>
        <time>2019-08-15T13:32:40Z</time>
      </trkpt>
      <trkpt lat="44.49588" lon="-1.11587">
        <ele>18</ele>
        <time>2019-08-15T13:32:45Z</time>
      </trkpt>
      <trkpt lat="44.49594" lon="-1.11575">
        <ele>18</ele>
        <time>2019-08-15T13:32:50Z</time>
      </trkpt>
      <trkpt lat="44.49601" lon="-1.11562">
        <ele>18</ele>
        <time>2019-08-15T13:32:55Z</time>
      </trkpt>
      <trkpt lat="44.49607" lon="-1.11551">
        <ele>18</ele>
        <time>2019-08-15T13:33:00Z</time>
      </trkpt>
      <trkpt lat="44.49611" lon="-1.1154">
        <ele>18</ele>
        <time>2019-08-15T13:33:05Z</time>
      </trkpt>
      <trkpt lat="44.49616" lon="-1.1153">
        <ele>18</ele>
        <time>2019-08-15T13:33:10Z</time>
      </trkpt>
      <trkpt lat="44.49621" lon="-1.11521">
        <ele>18</ele>
        <time>2019-08-15T13:33:15Z</time>
      </trkpt>
      <trkpt lat="44.49627" lon="-1.11511">
        <ele>18</ele>
        <time>2019-08-15T13:33:20Z</time>
      </trkpt>
      <trkpt lat="44.49633" lon="-1.11502">
        <ele>18</ele>
        <time>2019-08-15T13:33:25Z</time>
      </trkpt>
      <trkpt lat="44.49639" lon="-1.11491">
        <ele>18</ele>
        <time>2019-08-15T13:33:30Z</time>
      </trkpt>
      <trkpt lat="44.49644" lon="-1.11481">
        <ele>18</ele>
        <time>2019-08-15T13:33:35Z</time>
      </trkpt>
      <trkpt lat="44.49649" lon="-1.11471">
        <ele>18</ele>
        <time>2019-08-15T13:33:40Z</time>
      </trkpt>
      <trkpt lat="44.49654" lon="-1.11461">
        <ele>18</ele>
        <time>2019-08-15T13:33:45Z</time>
      </trkpt>
      <trkpt lat="44.49661" lon="-1.1145">
        <ele>18</ele>
        <time>2019-08-15T13:33:50Z</time>
      </trkpt>
      <trkpt lat="44.49667" lon="-1.11441">
        <ele>18</ele>
        <time>2019-08-15T13:33:55Z</time>
      </trkpt>
      <trkpt lat="44.49672" lon="-1.1143">
        <ele>18</ele>
        <time>2019-08-15T13:34:00Z</time>
      </trkpt>
      <trkpt lat="44.49678" lon="-1.1142">
        <ele>18</ele>
        <time>2019-08-15T13:34:05Z</time>
      </trkpt>
      <trkpt lat="44.49684" lon="-1.1141">
        <ele>18</ele>
        <time>2019-08-15T13:34:10Z</time>
      </trkpt>
      <trkpt lat="44.4969" lon="-1.114">
        <ele>18</ele>
        <time>2019-08-15T13:34:15Z</time>
      </trkpt>
      <trkpt lat="44.49696" lon="-1.11388">
        <ele>18</ele>
        <time>2019-08-15T13:34:20Z</time>
      </trkpt>
      <trkpt lat="44.49703" lon="-1.11376">
        <ele>18</ele>
        <time>2019-08-15T13:34:25Z</time>
      </trkpt>
      <trkpt lat="44.49708" lon="-1.11363">
        <ele>18</ele>
        <time>2019-08-15T13:34:30Z</time>
      </trkpt>
      <trkpt lat="44.49714" lon="-1.11352">
        <ele>18</ele>
        <time>2019-08-15T13:34:35Z</time>
      </trkpt>
      <trkpt lat="44.49719" lon="-1.1134">
        <ele>18</ele>
        <time>2019-08-15T13:34:40Z</time>
      </trkpt>
      <trkpt lat="44.49725" lon="-1.1133">
        <ele>18</ele>
        <time>2019-08-15T13:34:45Z</time>
      </trkpt>
      <trkpt lat="44.49732" lon="-1.11318">
        <ele>18</ele>
        <time>2019-08-15T13:34:50Z</time>
      </trkpt>
      <trkpt lat="44.49738" lon="-1.11307">
        <ele>18</ele>
        <time>2019-08-15T13:34:55Z</time>
      </trkpt>
      <trkpt lat="44.49743" lon="-1.11297">
        <ele>18</ele>
        <time>2019-08-15T13:35:00Z</time>
      </trkpt>
      <trkpt lat="44.49748" lon="-1.11287">
        <ele>18</ele>
        <time>2019-08-15T13:35:05Z</time>
      </trkpt>
      <trkpt lat="44.49754" lon="-1.11276">
        <ele>18</ele>
        <time>2019-08-15T13:35:10Z</time>
      </trkpt>
      <trkpt lat="44.49758" lon="-1.11265">
        <ele>18</ele>
        <time>2019-08-15T13:35:15Z</time>
      </trkpt>
      <trkpt lat="44.49763" lon="-1.11254">
        <ele>18</ele>
        <time>2019-08-15T13:35:20Z</time>
      </trkpt>
      <trkpt lat="44.49768" lon="-1.11242">
        <ele>18</ele>
        <time>2019-08-15T13:35:25Z</time>
      </trkpt>
      <trkpt lat="44.49772" lon="-1.11232">
        <ele>18</ele>
        <time>2019-08-15T13:35:30Z</time>
      </trkpt>
      <trkpt lat="44.49776" lon="-1.11223">
        <ele>18</ele>
        <time>2019-08-15T13:35:35Z</time>
      </trkpt>
      <trkpt lat="44.4978" lon="-1.11213">
        <ele>18</ele>
        <time>2019-08-15T13:35:40Z</time>
      </trkpt>
      <trkpt lat="44.49784" lon="-1.11204">
        <ele>18</ele>
        <time>2019-08-15T13:35:45Z</time>
      </trkpt>
      <trkpt lat="44.49788" lon="-1.11194">
        <ele>18</ele>
        <time>2019-08-15T13:35:50Z</time>
      </trkpt>
      <trkpt lat="44.49791" lon="-1.11184">
        <ele>18</ele>
        <time>2019-08-15T13:35:55Z</time>
      </trkpt>
      <trkpt lat="44.49796" lon="-1.11177">
        <ele>18</ele>
        <time>2019-08-15T13:36:00Z</time>
      </trkpt>
      <trkpt lat="44.49801" lon="-1.11169">
        <ele>18</ele>
        <time>2019-08-15T13:36:05Z</time>
      </trkpt>
      <trkpt lat="44.49805" lon="-1.11161">
        <ele>18</ele>
        <time>2019-08-15T13:36:10Z</time>
      </trkpt>
      <trkpt lat="44.49809" lon="-1.11153">
        <ele>18</ele>
        <time>2019-08-15T13:36:15Z</time>
      </trkpt>
      <trkpt lat="44.49813" lon="-1.11145">
        <ele>18</ele>
        <time>2019-08-15T13:36:20Z</time>
      </trkpt>
      <trkpt lat="44.49817" lon="-1.11137">
        <ele>18</ele>
        <time>2019-08-15T13:36:25Z</time>
      </trkpt>
      <trkpt lat="44.49821" lon="-1.1113">
        <ele>18</ele>
        <time>2019-08-15T13:36:30Z</time>
      </trkpt>
      <trkpt lat="44.49825" lon="-1.11124">
        <ele>18</ele>
        <time>2019-08-15T13:36:35Z</time>
      </trkpt>
      <trkpt lat="44.49829" lon="-1.11118">
        <ele>18</ele>
        <time>2019-08-15T13:36:40Z</time>
      </trkpt>
      <trkpt lat="44.49834" lon="-1.11112">
        <ele>18</ele>
        <time>2019-08-15T13:36:45Z</time>
      </trkpt>
      <trkpt lat="44.49838" lon="-1.11106">
        <ele>18</ele>
        <time>2019-08-15T13:36:50Z</time>
      </trkpt>
      <trkpt lat="44.49841" lon="-1.11099">
        <ele>18</ele>
        <time>2019-08-15T13:36:55Z</time>
      </trkpt>
      <trkpt lat="44.49844" lon="-1.11092">
        <ele>18</ele>
        <time>2019-08-15T13:37:00Z</time>
      </trkpt>
      <trkpt lat="44.49847" lon="-1.11084">
        <ele>18</ele>
        <time>2019-08-15T13:37:05Z</time>
      </trkpt>
      <trkpt lat="44.49851" lon="-1.11076">
        <ele>18</ele>
        <time>2019-08-15T13:37:10Z</time>
      </trkpt>
      <trkpt lat="44.49855" lon="-1.11069">
        <ele>18</ele>
        <time>2019-08-15T13:37:15Z</time>
      </trkpt>
      <trkpt lat="44.49858" lon="-1.11061">
        <ele>18</ele>
        <time>2019-08-15T13:37:20Z</time>
      </trkpt>
      <trkpt lat="44.49861" lon="-1.11053">
        <ele>18</ele>
        <time>2019-08-15T13:37:25Z</time>
      </trkpt>
      <trkpt lat="44.49865" lon="-1.11045">
        <ele>18</ele>
        <time>2019-08-15T13:37:30Z</time>
      </trkpt>
      <trkpt lat="44.49869" lon="-1.11036">
        <ele>18</ele>
        <time>2019-08-15T13:37:35Z</time>
      </trkpt>
      <trkpt lat="44.49873" lon="-1.11028">
        <ele>18</ele>
        <time>2019-08-15T13:37:40Z</time>
      </trkpt>
      <trkpt lat="44.49877" lon="-1.11021">
        <ele>18</ele>
        <time>2019-08-15T13:37:45Z</time>
      </trkpt>
      <trkpt lat="44.49881" lon="-1.11014">
        <ele>18</ele>
        <time>2019-08-15T13:37:50Z</time>
      </trkpt>
      <trkpt lat="44.49885" lon="-1.11005">
        <ele>18</ele>
        <time>2019-08-15T13:37:55Z</time>
      </trkpt>
      <trkpt lat="44.49889" lon="-1.10996">
        <ele>18</ele>
        <time>2019-08-15T13:38:00Z</time>
      </trkpt>
      <trkpt lat="44.49894" lon="-1.10987">
        <ele>18</ele>
        <time>2019-08-15T13:38:05Z</time>
      </trkpt>
      <trkpt lat="44.499" lon="-1.10978">
        <ele>18</ele>
        <time>2019-08-15T13:38:10Z</time>
      </trkpt>
      <trkpt lat="44.49907" lon="-1.10968">
        <ele>18</ele>
        <time>2019-08-15T13:38:15Z</time>
      </trkpt>
      <trkpt lat="44.49912" lon="-1.10958">
        <ele>18</ele>
        <time>2019-08-15T13:38:20Z</time>
      </trkpt>
      <trkpt lat="44.49917" lon="-1.10948">
        <ele>18</ele>
        <time>2019-08-15T13:38:25Z</time>
      </trkpt>
      <trkpt lat="44.49922" lon="-1.10937">
        <ele>18</ele>
        <time>2019-08-15T13:38:30Z</time>
      </trkpt>
      <trkpt lat="44.49927" lon="-1.10927">
        <ele>18</ele>
        <time>2019-08-15T13:38:35Z</time>
      </trkpt>
      <trkpt lat="44.49932" lon="-1.10916">
        <ele>18</ele>
        <time>2019-08-15T13:38:40Z</time>
      </trkpt>
      <trkpt lat="44.49937" lon="-1.10905">
        <ele>18</ele>
        <time>2019-08-15T13:38:45Z</time>
      </trkpt>
      <trkpt lat="44.49943" lon="-1.10894">
        <ele>18</ele>
        <time>2019-08-15T13:38:50Z</time>
      </trkpt>
      <trkpt lat="44.49951" lon="-1.10883">
        <ele>18</ele>
        <time>2019-08-15T13:38:55Z</time>
      </trkpt>
      <trkpt lat="44.4996" lon="-1.10873">
        <ele>18</ele>
        <time>2019-08-15T13:39:00Z</time>
      </trkpt>
      <trkpt lat="44.49969" lon="-1.10863">
        <ele>18</ele>
        <time>2019-08-15T13:39:05Z</time>
      </trkpt>
      <trkpt lat="44.49977" lon="-1.10852">
        <ele>18</ele>
        <time>2019-08-15T13:39:10Z</time>
      </trkpt>
      <trkpt lat="44.49989" lon="-1.10841">
        <ele>18</ele>
        <time>2019-08-15T13:39:15Z</time>
      </trkpt>
      <trkpt lat="44.49999" lon="-1.10828">
        <ele>18</ele>
        <time>2019-08-15T13:39:20Z</time>
      </trkpt>
      <trkpt lat="44.50008" lon="-1.10814">
        <ele>18</ele>
        <time>2019-08-15T13:39:25Z</time>
      </trkpt>
      <trkpt lat="44.50017" lon="-1.108">
        <ele>18</ele>
        <time>2019-08-15T13:39:30Z</time>
      </trkpt>
      <trkpt lat="44.50025" lon="-1.10786">
        <ele>18</ele>
        <time>2019-08-15T13:39:35Z</time>
      </trkpt>
      <trkpt lat="44.50033" lon="-1.10772">
        <ele>18</ele>
        <time>2019-08-15T13:39:40Z</time>
      </trkpt>
      <trkpt lat="44.50041" lon="-1.10759">
        <ele>18</ele>
        <time>2019-08-15T13:39:45Z</time>
      </trkpt>
      <trkpt lat="44.5005" lon="-1.10747">
        <ele>18</ele>
        <time>2019-08-15T13:39:50Z</time>
      </trkpt>
      <trkpt lat="44.50059" lon="-1.10734">
        <ele>18</ele>
        <time>2019-08-15T13:39:55Z</time>
      </trkpt>
      <trkpt lat="44.50068" lon="-1.10724">
        <ele>18</ele>
        <time>2019-08-15T13:40:00Z</time>
      </trkpt>
      <trkpt lat="44.50076" lon="-1.10714">
        <ele>18</ele>
        <time>2019-08-15T13:40:05Z</time>
      </trkpt>
      <trkpt lat="44.50083" lon="-1.10704">
        <ele>18</ele>
        <time>2019-08-15T13:40:10Z</time>
      </trkpt>
      <trkpt lat="44.50091" lon="-1.10695">
        <ele>18</ele>
        <time>2019-08-15T13:40:15Z</time>
      </trkpt>
      <trkpt lat="44.501" lon="-1.10686">
        <ele>18</ele>
        <time>2019-08-15T13:40:20Z</time>
      </trkpt>
      <trkpt lat="44.5011" lon="-1.10678">
        <ele>18</ele>
        <time>2019-08-15T13:40:25Z</time>
      </trkpt>
      <trkpt lat="44.50118" lon="-1.10669">
        <ele>18</ele>
        <time>2019-08-15T13:40:30Z</time>
      </trkpt>
      <trkpt lat="44.50124" lon="-1.10662">
        <ele>18</ele>
        <time>2019-08-15T13:40:35Z</time>
      </trkpt>
      <trkpt lat="44.50126" lon="-1.1066">
        <ele>18</ele>
        <time>2019-08-15T13:40:40Z</time>
      </trkpt>
      <trkpt lat="44.50131" lon="-1.10659">
        <ele>18</ele>
        <time>2019-08-15T13:40:45Z</time>
      </trkpt>
      <trkpt lat="44.50133" lon="-1.10661">
        <ele>18</ele>
        <time>2019-08-15T13:40:50Z</time>
      </trkpt>
      <trkpt lat="44.50133" lon="-1.10661">
        <ele>18</ele>
        <time>2019-08-15T13:40:55Z</time>
      </trkpt>
      <trkpt lat="44.50133" lon="-1.10661">
        <ele>18</ele>
        <time>2019-08-15T13:41:00Z</time>
      </trkpt>
      <trkpt lat="44.50134" lon="-1.1066">
        <ele>18</ele>
        <time>2019-08-15T13:41:05Z</time>
      </trkpt>
      <trkpt lat="44.50134" lon="-1.1066">
        <ele>18</ele>
        <time>2019-08-15T13:41:10Z</time>
      </trkpt>
      <trkpt lat="44.50134" lon="-1.1066">
        <ele>18</ele>
        <time>2019-08-15T13:41:15Z</time>
      </trkpt>
      <trkpt lat="44.50134" lon="-1.1066">
        <ele>18</ele>
        <time>2019-08-15T13:41:20Z</time>
      </trkpt>
      <trkpt lat="44.50134" lon="-1.1066">
        <ele>18</ele>
        <time>2019-08-15T13:41:25Z</time>
      </trkpt>
      <trkpt lat="44.50134" lon="-1.10659">
        <ele>18</ele>
        <time>2019-08-15T13:41:30Z</time>
      </trkpt>
      <trkpt lat="44.50134" lon="-1.10659">
        <ele>18</ele>
        <time>2019-08-15T13:41:35Z</time>
      </trkpt>
      <trkpt lat="44.50134" lon="-1.10659">
        <ele>18</ele>
        <time>2019-08-15T13:41:40Z</time>
      </trkpt>
      <trkpt lat="44.50134" lon="-1.10659">
        <ele>18</ele>
        <time>2019-08-15T13:41:45Z</time>
      </trkpt>
      <trkpt lat="44.50134" lon="-1.10658">
        <ele>18</ele>
        <time>2019-08-15T13:41:50Z</time>
      </trkpt>
      <trkpt lat="44.50134" lon="-1.10657">
        <ele>18</ele>
        <time>2019-08-15T13:41:55Z</time>
      </trkpt>
      <trkpt lat="44.50134" lon="-1.10656">
        <ele>18</ele>
        <time>2019-08-15T13:42:00Z</time>
      </trkpt>
      <trkpt lat="44.50134" lon="-1.10656">
        <ele>18</ele>
        <time>2019-08-15T13:42:05Z</time>
      </trkpt>
      <trkpt lat="44.50134" lon="-1.10655">
        <ele>18</ele>
        <time>2019-08-15T13:42:10Z</time>
      </trkpt>
      <trkpt lat="44.50134" lon="-1.10655">
        <ele>18</ele>
        <time>2019-08-15T13:42:15Z</time>
      </trkpt>
      <trkpt lat="44.50134" lon="-1.10655">
        <ele>18</ele>
        <time>2019-08-15T13:42:20Z</time>
      </trkpt>
      <trkpt lat="44.50134" lon="-1.10654">
        <ele>18</ele>
        <time>2019-08-15T13:42:25Z</time>
      </trkpt>
      <trkpt lat="44.50134" lon="-1.10654">
        <ele>18</ele>
        <time>2019-08-15T13:42:30Z</time>
      </trkpt>
      <trkpt lat="44.50133" lon="-1.10654">
        <ele>18</ele>
        <time>2019-08-15T13:42:35Z</time>
      </trkpt>
      <trkpt lat="44.50133" lon="-1.10653">
        <ele>18</ele>
        <time>2019-08-15T13:42:40Z</time>
      </trkpt>
      <trkpt lat="44.50133" lon="-1.10653">
        <ele>18</ele>
        <time>2019-08-15T13:42:45Z</time>
      </trkpt>
      <trkpt lat="44.50133" lon="-1.10654">
        <ele>18</ele>
        <time>2019-08-15T13:42:50Z</time>
      </trkpt>
      <trkpt lat="44.50133" lon="-1.10654">
        <ele>18</ele>
        <time>2019-08-15T13:42:55Z</time>
      </trkpt>
      <trkpt lat="44.50134" lon="-1.10653">
        <ele>18</ele>
        <time>2019-08-15T13:43:00Z</time>
      </trkpt>
      <trkpt lat="44.50133" lon="-1.10648">
        <ele>18</ele>
        <time>2019-08-15T13:43:05Z</time>
      </trkpt>
      <trkpt lat="44.50133" lon="-1.10647">
        <ele>18</ele>
        <time>2019-08-15T13:43:10Z</time>
      </trkpt>
      <trkpt lat="44.50133" lon="-1.10647">
        <ele>18</ele>
        <time>2019-08-15T13:43:15Z</time>
      </trkpt>
      <trkpt lat="44.50133" lon="-1.10647">
        <ele>18</ele>
        <time>2019-08-15T13:43:20Z</time>
      </trkpt>
      <trkpt lat="44.50133" lon="-1.10647">
        <ele>18</ele>
        <time>2019-08-15T13:43:25Z</time>
      </trkpt>
      <trkpt lat="44.50133" lon="-1.10647">
        <ele>18</ele>
        <time>2019-08-15T13:43:30Z</time>
      </trkpt>
      <trkpt lat="44.50132" lon="-1.10648">
        <ele>18</ele>
        <time>2019-08-15T13:43:35Z</time>
      </trkpt>
      <trkpt lat="44.50131" lon="-1.1065">
        <ele>18</ele>
        <time>2019-08-15T13:43:40Z</time>
      </trkpt>
      <trkpt lat="44.50131" lon="-1.10651">
        <ele>18</ele>
        <time>2019-08-15T13:43:45Z</time>
      </trkpt>
      <trkpt lat="44.50131" lon="-1.10651">
        <ele>18</ele>
        <time>2019-08-15T13:43:50Z</time>
      </trkpt>
      <trkpt lat="44.5013" lon="-1.10651">
        <ele>18</ele>
        <time>2019-08-15T13:43:55Z</time>
      </trkpt>
      <trkpt lat="44.5013" lon="-1.10653">
        <ele>18</ele>
        <time>2019-08-15T13:44:00Z</time>
      </trkpt>
      <trkpt lat="44.50129" lon="-1.10656">
        <ele>18</ele>
        <time>2019-08-15T13:44:05Z</time>
      </trkpt>
      <trkpt lat="44.50128" lon="-1.10659">
        <ele>18</ele>
        <time>2019-08-15T13:44:10Z</time>
      </trkpt>
      <trkpt lat="44.50128" lon="-1.10662">
        <ele>18</ele>
        <time>2019-08-15T13:44:15Z</time>
      </trkpt>
      <trkpt lat="44.50129" lon="-1.10665">
        <ele>18</ele>
        <time>2019-08-15T13:44:20Z</time>
      </trkpt>
      <trkpt lat="44.50129" lon="-1.10671">
        <ele>18</ele>
        <time>2019-08-15T13:44:25Z</time>
      </trkpt>
      <trkpt lat="44.50129" lon="-1.10672">
        <ele>18</ele>
        <time>2019-08-15T13:44:30Z</time>
      </trkpt>
      <trkpt lat="44.50128" lon="-1.1067">
        <ele>18</ele>
        <time>2019-08-15T13:44:35Z</time>
      </trkpt>
      <trkpt lat="44.50126" lon="-1.10667">
        <ele>18</ele>
        <time>2019-08-15T13:44:40Z</time>
      </trkpt>
      <trkpt lat="44.50126" lon="-1.10664">
        <ele>18</ele>
        <time>2019-08-15T13:44:45Z</time>
      </trkpt>
      <trkpt lat="44.50124" lon="-1.10661">
        <ele>18</ele>
        <time>2019-08-15T13:44:50Z</time>
      </trkpt>
      <trkpt lat="44.50124" lon="-1.10661">
        <ele>18</ele>
        <time>2019-08-15T13:44:55Z</time>
      </trkpt>
      <trkpt lat="44.50124" lon="-1.10661">
        <ele>18</ele>
        <time>2019-08-15T13:45:00Z</time>
      </trkpt>
      <trkpt lat="44.50124" lon="-1.10662">
        <ele>18</ele>
        <time>2019-08-15T13:45:05Z</time>
      </trkpt>
      <trkpt lat="44.50124" lon="-1.10662">
        <ele>18</ele>
        <time>2019-08-15T13:45:10Z</time>
      </trkpt>
      <trkpt lat="44.50126" lon="-1.1066">
        <ele>18</ele>
        <time>2019-08-15T13:45:15Z</time>
      </trkpt>
      <trkpt lat="44.50127" lon="-1.10656">
        <ele>18</ele>
        <time>2019-08-15T13:45:20Z</time>
      </trkpt>
      <trkpt lat="44.50127" lon="-1.10652">
        <ele>18</ele>
        <time>2019-08-15T13:45:25Z</time>
      </trkpt>
      <trkpt lat="44.50127" lon="-1.10648">
        <ele>18</ele>
        <time>2019-08-15T13:45:30Z</time>
      </trkpt>
      <trkpt lat="44.50128" lon="-1.10648">
        <ele>18</ele>
        <time>2019-08-15T13:45:35Z</time>
      </trkpt>
      <trkpt lat="44.50128" lon="-1.10648">
        <ele>18</ele>
        <time>2019-08-15T13:45:40Z</time>
      </trkpt>
      <trkpt lat="44.50128" lon="-1.10648">
        <ele>18</ele>
        <time>2019-08-15T13:45:45Z</time>
      </trkpt>
      <trkpt lat="44.50129" lon="-1.10648">
        <ele>18</ele>
        <time>2019-08-15T13:45:50Z</time>
      </trkpt>
      <trkpt lat="44.50129" lon="-1.10648">
        <ele>18</ele>
        <time>2019-08-15T13:45:55Z</time>
      </trkpt>
      <trkpt lat="44.50129" lon="-1.10648">
        <ele>18</ele>
        <time>2019-08-15T13:46:00Z</time>
      </trkpt>
      <trkpt lat="44.50129" lon="-1.10648">
        <ele>18</ele>
        <time>2019-08-15T13:46:05Z</time>
      </trkpt>
      <trkpt lat="44.50131" lon="-1.10648">
        <ele>18</ele>
        <time>2019-08-15T13:46:10Z</time>
      </trkpt>
      <trkpt lat="44.50133" lon="-1.1065">
        <ele>18</ele>
        <time>2019-08-15T13:46:15Z</time>
      </trkpt>
      <trkpt lat="44.50133" lon="-1.10649">
        <ele>18</ele>
        <time>2019-08-15T13:46:20Z</time>
      </trkpt>
      <trkpt lat="44.50134" lon="-1.1065">
        <ele>18</ele>
        <time>2019-08-15T13:46:25Z</time>
      </trkpt>
      <trkpt lat="44.50136" lon="-1.10652">
        <ele>18</ele>
        <time>2019-08-15T13:46:30Z</time>
      </trkpt>
      <trkpt lat="44.50138" lon="-1.10651">
        <ele>18</ele>
        <time>2019-08-15T13:46:35Z</time>
      </trkpt>
      <trkpt lat="44.50139" lon="-1.1065">
        <ele>18</ele>
        <time>2019-08-15T13:46:40Z</time>
      </trkpt>
      <trkpt lat="44.50139" lon="-1.10649">
        <ele>18</ele>
        <time>2019-08-15T13:46:45Z</time>
      </trkpt>
      <trkpt lat="44.50139" lon="-1.10649">
        <ele>18</ele>
        <time>2019-08-15T13:46:50Z</time>
      </trkpt>
      <trkpt lat="44.5014" lon="-1.1065">
        <ele>18</ele>
        <time>2019-08-15T13:46:55Z</time>
      </trkpt>
      <trkpt lat="44.50142" lon="-1.1065">
        <ele>18</ele>
        <time>2019-08-15T13:47:00Z</time>
      </trkpt>
      <trkpt lat="44.50145" lon="-1.10648">
        <ele>18</ele>
        <time>2019-08-15T13:47:05Z</time>
      </trkpt>
      <trkpt lat="44.50147" lon="-1.10647">
        <ele>18</ele>
        <time>2019-08-15T13:47:10Z</time>
      </trkpt>
      <trkpt lat="44.50149" lon="-1.10646">
        <ele>18</ele>
        <time>2019-08-15T13:47:15Z</time>
      </trkpt>
      <trkpt lat="44.50152" lon="-1.10644">
        <ele>18</ele>
        <time>2019-08-15T13:47:20Z</time>
      </trkpt>
      <trkpt lat="44.50154" lon="-1.10643">
        <ele>18</ele>
        <time>2019-08-15T13:47:25Z</time>
      </trkpt>
      <trkpt lat="44.50156" lon="-1.10642">
        <ele>18</ele>
        <time>2019-08-15T13:47:30Z</time>
      </trkpt>
      <trkpt lat="44.50158" lon="-1.10641">
        <ele>18</ele>
        <time>2019-08-15T13:47:35Z</time>
      </trkpt>
      <trkpt lat="44.5016" lon="-1.10641">
        <ele>18</ele>
        <time>2019-08-15T13:47:40Z</time>
      </trkpt>
      <trkpt lat="44.50163" lon="-1.10641">
        <ele>18</ele>
        <time>2019-08-15T13:47:45Z</time>
      </trkpt>
      <trkpt lat="44.50165" lon="-1.1064">
        <ele>18</ele>
        <time>2019-08-15T13:47:50Z</time>
      </trkpt>
      <trkpt lat="44.50168" lon="-1.10638">
        <ele>18</ele>
        <time>2019-08-15T13:47:55Z</time>
      </trkpt>
      <trkpt lat="44.5017" lon="-1.10636">
        <ele>18</ele>
        <time>2019-08-15T13:48:00Z</time>
      </trkpt>
      <trkpt lat="44.50172" lon="-1.10634">
        <ele>18</ele>
        <time>2019-08-15T13:48:05Z</time>
      </trkpt>
      <trkpt lat="44.50174" lon="-1.10633">
        <ele>18</ele>
        <time>2019-08-15T13:48:10Z</time>
      </trkpt>
      <trkpt lat="44.50177" lon="-1.10632">
        <ele>18</ele>
        <time>2019-08-15T13:48:15Z</time>
      </trkpt>
      <trkpt lat="44.5018" lon="-1.10631">
        <ele>18</ele>
        <time>2019-08-15T13:48:20Z</time>
      </trkpt>
      <trkpt lat="44.50182" lon="-1.10629">
        <ele>18</ele>
        <time>2019-08-15T13:48:25Z</time>
      </trkpt>
      <trkpt lat="44.50184" lon="-1.10627">
        <ele>18</ele>
        <time>2019-08-15T13:48:30Z</time>
      </trkpt>
      <trkpt lat="44.50186" lon="-1.10627">
        <ele>18</ele>
        <time>2019-08-15T13:48:35Z</time>
      </trkpt>
      <trkpt lat="44.50189" lon="-1.10626">
        <ele>18</ele>
        <time>2019-08-15T13:48:40Z</time>
      </trkpt>
      <trkpt lat="44.50191" lon="-1.10624">
        <ele>18</ele>
        <time>2019-08-15T13:48:45Z</time>
      </trkpt>
      <trkpt lat="44.50194" lon="-1.10624">
        <ele>18</ele>
        <time>2019-08-15T13:48:50Z</time>
      </trkpt>
      <trkpt lat="44.50198" lon="-1.10622">
        <ele>18</ele>
        <time>2019-08-15T13:48:55Z</time>
      </trkpt>
      <trkpt lat="44.502" lon="-1.1062">
        <ele>18</ele>
        <time>2019-08-15T13:49:00Z</time>
      </trkpt>
      <trkpt lat="44.50203" lon="-1.10618">
        <ele>18</ele>
        <time>2019-08-15T13:49:05Z</time>
      </trkpt>
      <trkpt lat="44.50206" lon="-1.10616">
        <ele>18</ele>
        <time>2019-08-15T13:49:10Z</time>
      </trkpt>
      <trkpt lat="44.50209" lon="-1.10613">
        <ele>18</ele>
        <time>2019-08-15T13:49:15Z</time>
      </trkpt>
      <trkpt lat="44.5021" lon="-1.1061">
        <ele>18</ele>
        <time>2019-08-15T13:49:20Z</time>
      </trkpt>
      <trkpt lat="44.50214" lon="-1.10608">
        <ele>18</ele>
        <time>2019-08-15T13:49:25Z</time>
      </trkpt>
      <trkpt lat="44.50218" lon="-1.10606">
        <ele>18</ele>
        <time>2019-08-15T13:49:30Z</time>
      </trkpt>
      <trkpt lat="44.50221" lon="-1.10603">
        <ele>18</ele>
        <time>2019-08-15T13:49:35Z</time>
      </trkpt>
      <trkpt lat="44.50225" lon="-1.106">
        <ele>18</ele>
        <time>2019-08-15T13:49:40Z</time>
      </trkpt>
      <trkpt lat="44.50228" lon="-1.10598">
        <ele>18</ele>
        <time>2019-08-15T13:49:45Z</time>
      </trkpt>
      <trkpt lat="44.50231" lon="-1.10594">
        <ele>18</ele>
        <time>2019-08-15T13:49:50Z</time>
      </trkpt>
      <trkpt lat="44.50234" lon="-1.10591">
        <ele>18</ele>
        <time>2019-08-15T13:49:55Z</time>
      </trkpt>
      <trkpt lat="44.50237" lon="-1.10587">
        <ele>18</ele>
        <time>2019-08-15T13:50:00Z</time>
      </trkpt>
      <trkpt lat="44.5024" lon="-1.10583">
        <ele>18</ele>
        <time>2019-08-15T13:50:05Z</time>
      </trkpt>
      <trkpt lat="44.50243" lon="-1.10581">
        <ele>18</ele>
        <time>2019-08-15T13:50:10Z</time>
      </trkpt>
      <trkpt lat="44.50247" lon="-1.10577">
        <ele>19</ele>
        <time>2019-08-15T13:50:15Z</time>
      </trkpt>
      <trkpt lat="44.5025" lon="-1.10573">
        <ele>19</ele>
        <time>2019-08-15T13:50:20Z</time>
      </trkpt>
      <trkpt lat="44.50251" lon="-1.10568">
        <ele>19</ele>
        <time>2019-08-15T13:50:25Z</time>
      </trkpt>
      <trkpt lat="44.50253" lon="-1.10564">
        <ele>19</ele>
        <time>2019-08-15T13:50:30Z</time>
      </trkpt>
      <trkpt lat="44.50254" lon="-1.1056">
        <ele>19</ele>
        <time>2019-08-15T13:50:35Z</time>
      </trkpt>
      <trkpt lat="44.50255" lon="-1.10557">
        <ele>19</ele>
        <time>2019-08-15T13:50:40Z</time>
      </trkpt>
      <trkpt lat="44.50257" lon="-1.10553">
        <ele>21</ele>
        <time>2019-08-15T13:50:45Z</time>
      </trkpt>
      <trkpt lat="44.5026" lon="-1.1055">
        <ele>21</ele>
        <time>2019-08-15T13:50:50Z</time>
      </trkpt>
      <trkpt lat="44.50262" lon="-1.10547">
        <ele>21</ele>
        <time>2019-08-15T13:50:55Z</time>
      </trkpt>
      <trkpt lat="44.50264" lon="-1.10544">
        <ele>22</ele>
        <time>2019-08-15T13:51:00Z</time>
      </trkpt>
      <trkpt lat="44.50266" lon="-1.10543">
        <ele>22</ele>
        <time>2019-08-15T13:51:05Z</time>
      </trkpt>
      <trkpt lat="44.50266" lon="-1.10542">
        <ele>22</ele>
        <time>2019-08-15T13:51:10Z</time>
      </trkpt>
      <trkpt lat="44.50266" lon="-1.10542">
        <ele>22</ele>
        <time>2019-08-15T13:51:15Z</time>
      </trkpt>
      <trkpt lat="44.50266" lon="-1.10542">
        <ele>22</ele>
        <time>2019-08-15T13:51:20Z</time>
      </trkpt>
      <trkpt lat="44.50266" lon="-1.10542">
        <ele>22</ele>
        <time>2019-08-15T13:51:25Z</time>
      </trkpt>
      <trkpt lat="44.50266" lon="-1.10542">
        <ele>22</ele>
        <time>2019-08-15T13:51:30Z</time>
      </trkpt>
      <trkpt lat="44.50266" lon="-1.10541">
        <ele>22</ele>
        <time>2019-08-15T13:51:35Z</time>
      </trkpt>
      <trkpt lat="44.50265" lon="-1.10542">
        <ele>22</ele>
        <time>2019-08-15T13:51:40Z</time>
      </trkpt>
      <trkpt lat="44.50266" lon="-1.10541">
        <ele>22</ele>
        <time>2019-08-15T13:51:45Z</time>
      </trkpt>
      <trkpt lat="44.50266" lon="-1.10541">
        <ele>22</ele>
        <time>2019-08-15T13:51:50Z</time>
      </trkpt>
      <trkpt lat="44.50265" lon="-1.10541">
        <ele>22</ele>
        <time>2019-08-15T13:51:55Z</time>
      </trkpt>
      <trkpt lat="44.50266" lon="-1.10542">
        <ele>22</ele>
        <time>2019-08-15T13:52:00Z</time>
      </trkpt>
      <trkpt lat="44.50266" lon="-1.10543">
        <ele>22</ele>
        <time>2019-08-15T13:52:05Z</time>
      </trkpt>
      <trkpt lat="44.50266" lon="-1.10542">
        <ele>22</ele>
        <time>2019-08-15T13:52:10Z</time>
      </trkpt>
      <trkpt lat="44.50266" lon="-1.10542">
        <ele>22</ele>
        <time>2019-08-15T13:52:15Z</time>
      </trkpt>
      <trkpt lat="44.50266" lon="-1.10542">
        <ele>22</ele>
        <time>2019-08-15T13:52:20Z</time>
      </trkpt>
      <trkpt lat="44.50266" lon="-1.10542">
        <ele>22</ele>
        <time>2019-08-15T13:52:25Z</time>
      </trkpt>
      <trkpt lat="44.50266" lon="-1.10542">
        <ele>22</ele>
        <time>2019-08-15T13:52:30Z</time>
      </trkpt>
      <trkpt lat="44.50266" lon="-1.10542">
        <ele>22</ele>
        <time>2019-08-15T13:52:35Z</time>
      </trkpt>
      <trkpt lat="44.50266" lon="-1.10542">
        <ele>22</ele>
        <time>2019-08-15T13:52:40Z</time>
      </trkpt>
      <trkpt lat="44.50266" lon="-1.10542">
        <ele>22</ele>
        <time>2019-08-15T13:52:45Z</time>
      </trkpt>
      <trkpt lat="44.50265" lon="-1.10541">
        <ele>22</ele>
        <time>2019-08-15T13:52:50Z</time>
      </trkpt>
      <trkpt lat="44.50265" lon="-1.10541">
        <ele>22</ele>
        <time>2019-08-15T13:52:55Z</time>
      </trkpt>
      <trkpt lat="44.50265" lon="-1.1054">
        <ele>22</ele>
        <time>2019-08-15T13:53:00Z</time>
      </trkpt>
      <trkpt lat="44.50265" lon="-1.1054">
        <ele>22</ele>
        <time>2019-08-15T13:53:05Z</time>
      </trkpt>
      <trkpt lat="44.50265" lon="-1.10539">
        <ele>22</ele>
        <time>2019-08-15T13:53:10Z</time>
      </trkpt>
      <trkpt lat="44.50265" lon="-1.1054">
        <ele>22</ele>
        <time>2019-08-15T13:53:15Z</time>
      </trkpt>
      <trkpt lat="44.50265" lon="-1.1054">
        <ele>22</ele>
        <time>2019-08-15T13:53:20Z</time>
      </trkpt>
      <trkpt lat="44.50266" lon="-1.1054">
        <ele>22</ele>
        <time>2019-08-15T13:53:25Z</time>
      </trkpt>
      <trkpt lat="44.50265" lon="-1.1054">
        <ele>22</ele>
        <time>2019-08-15T13:53:30Z</time>
      </trkpt>
      <trkpt lat="44.50265" lon="-1.1054">
        <ele>22</ele>
        <time>2019-08-15T13:53:35Z</time>
      </trkpt>
      <trkpt lat="44.50266" lon="-1.1054">
        <ele>22</ele>
        <time>2019-08-15T13:53:40Z</time>
      </trkpt>
      <trkpt lat="44.50266" lon="-1.1054">
        <ele>22</ele>
        <time>2019-08-15T13:53:45Z</time>
      </trkpt>
      <trkpt lat="44.50265" lon="-1.10539">
        <ele>22</ele>
        <time>2019-08-15T13:53:50Z</time>
      </trkpt>
      <trkpt lat="44.50266" lon="-1.10539">
        <ele>22</ele>
        <time>2019-08-15T13:53:55Z</time>
      </trkpt>
      <trkpt lat="44.50266" lon="-1.10539">
        <ele>22</ele>
        <time>2019-08-15T13:54:00Z</time>
      </trkpt>
      <trkpt lat="44.50266" lon="-1.10539">
        <ele>22</ele>
        <time>2019-08-15T13:54:05Z</time>
      </trkpt>
      <trkpt lat="44.50266" lon="-1.10539">
        <ele>22</ele>
        <time>2019-08-15T13:54:10Z</time>
      </trkpt>
      <trkpt lat="44.50266" lon="-1.10539">
        <ele>22</ele>
        <time>2019-08-15T13:54:15Z</time>
      </trkpt>
      <trkpt lat="44.50266" lon="-1.10539">
        <ele>22</ele>
        <time>2019-08-15T13:54:20Z</time>
      </trkpt>
      <trkpt lat="44.50266" lon="-1.10539">
        <ele>22</ele>
        <time>2019-08-15T13:54:25Z</time>
      </trkpt>
      <trkpt lat="44.50266" lon="-1.1054">
        <ele>22</ele>
        <time>2019-08-15T13:54:30Z</time>
      </trkpt>
      <trkpt lat="44.50265" lon="-1.1054">
        <ele>22</ele>
        <time>2019-08-15T13:54:35Z</time>
      </trkpt>
      <trkpt lat="44.50265" lon="-1.1054">
        <ele>22</ele>
        <time>2019-08-15T13:54:40Z</time>
      </trkpt>
      <trkpt lat="44.50265" lon="-1.1054">
        <ele>22</ele>
        <time>2019-08-15T13:54:45Z</time>
      </trkpt>
      <trkpt lat="44.50265" lon="-1.10539">
        <ele>22</ele>
        <time>2019-08-15T13:54:50Z</time>
      </trkpt>
      <trkpt lat="44.50265" lon="-1.1054">
        <ele>22</ele>
        <time>2019-08-15T13:54:55Z</time>
      </trkpt>
      <trkpt lat="44.50265" lon="-1.1054">
        <ele>22</ele>
        <time>2019-08-15T13:55:00Z</time>
      </trkpt>
      <trkpt lat="44.50265" lon="-1.1054">
        <ele>22</ele>
        <time>2019-08-15T13:55:05Z</time>
      </trkpt>
      <trkpt lat="44.50265" lon="-1.1054">
        <ele>22</ele>
        <time>2019-08-15T13:55:10Z</time>
      </trkpt>
      <trkpt lat="44.50265" lon="-1.1054">
        <ele>22</ele>
        <time>2019-08-15T13:55:15Z</time>
      </trkpt>
      <trkpt lat="44.50265" lon="-1.1054">
        <ele>22</ele>
        <time>2019-08-15T13:55:20Z</time>
      </trkpt>
      <trkpt lat="44.50265" lon="-1.10539">
        <ele>22</ele>
        <time>2019-08-15T13:55:25Z</time>
      </trkpt>
      <trkpt lat="44.50265" lon="-1.10539">
        <ele>22</ele>
        <time>2019-08-15T13:55:30Z</time>
      </trkpt>
      <trkpt lat="44.50265" lon="-1.1054">
        <ele>22</ele>
        <time>2019-08-15T13:55:35Z</time>
      </trkpt>
      <trkpt lat="44.50265" lon="-1.1054">
        <ele>22</ele>
        <time>2019-08-15T13:55:40Z</time>
      </trkpt>
      <trkpt lat="44.50265" lon="-1.10539">
        <ele>22</ele>
        <time>2019-08-15T13:55:45Z</time>
      </trkpt>
      <trkpt lat="44.50266" lon="-1.1054">
        <ele>22</ele>
        <time>2019-08-15T13:55:50Z</time>
      </trkpt>
      <trkpt lat="44.50267" lon="-1.1054">
        <ele>22</ele>
        <time>2019-08-15T13:55:55Z</time>
      </trkpt>
      <trkpt lat="44.50267" lon="-1.1054">
        <ele>22</ele>
        <time>2019-08-15T13:56:00Z</time>
      </trkpt>
      <trkpt lat="44.50267" lon="-1.1054">
        <ele>22</ele>
        <time>2019-08-15T13:56:05Z</time>
      </trkpt>
      <trkpt lat="44.50267" lon="-1.10539">
        <ele>22</ele>
        <time>2019-08-15T13:56:10Z</time>
      </trkpt>
      <trkpt lat="44.50267" lon="-1.1054">
        <ele>22</ele>
        <time>2019-08-15T13:56:15Z</time>
      </trkpt>
      <trkpt lat="44.50266" lon="-1.1054">
        <ele>22</ele>
        <time>2019-08-15T13:56:20Z</time>
      </trkpt>
      <trkpt lat="44.50266" lon="-1.1054">
        <ele>22</ele>
        <time>2019-08-15T13:56:25Z</time>
      </trkpt>
      <trkpt lat="44.50266" lon="-1.1054">
        <ele>22</ele>
        <time>2019-08-15T13:56:30Z</time>
      </trkpt>
      <trkpt lat="44.50266" lon="-1.10541">
        <ele>22</ele>
        <time>2019-08-15T13:56:35Z</time>
      </trkpt>
      <trkpt lat="44.50266" lon="-1.1054">
        <ele>22</ele>
        <time>2019-08-15T13:56:40Z</time>
      </trkpt>
      <trkpt lat="44.50266" lon="-1.1054">
        <ele>22</ele>
        <time>2019-08-15T13:56:45Z</time>
      </trkpt>
      <trkpt lat="44.50266" lon="-1.1054">
        <ele>22</ele>
        <time>2019-08-15T13:56:50Z</time>
      </trkpt>
      <trkpt lat="44.50265" lon="-1.1054">
        <ele>22</ele>
        <time>2019-08-15T13:56:55Z</time>
      </trkpt>
      <trkpt lat="44.50265" lon="-1.1054">
        <ele>22</ele>
        <time>2019-08-15T13:57:00Z</time>
      </trkpt>
      <trkpt lat="44.50266" lon="-1.1054">
        <ele>22</ele>
        <time>2019-08-15T13:57:05Z</time>
      </trkpt>
      <trkpt lat="44.50266" lon="-1.1054">
        <ele>22</ele>
        <time>2019-08-15T13:57:10Z</time>
      </trkpt>
      <trkpt lat="44.50266" lon="-1.10539">
        <ele>22</ele>
        <time>2019-08-15T13:57:15Z</time>
      </trkpt>
      <trkpt lat="44.50266" lon="-1.1054">
        <ele>22</ele>
        <time>2019-08-15T13:57:20Z</time>
      </trkpt>
      <trkpt lat="44.50266" lon="-1.10539">
        <ele>22</ele>
        <time>2019-08-15T13:57:25Z</time>
      </trkpt>
      <trkpt lat="44.50266" lon="-1.10539">
        <ele>22</ele>
        <time>2019-08-15T13:57:30Z</time>
      </trkpt>
      <trkpt lat="44.50267" lon="-1.10539">
        <ele>22</ele>
        <time>2019-08-15T13:57:35Z</time>
      </trkpt>
      <trkpt lat="44.50267" lon="-1.10539">
        <ele>22</ele>
        <time>2019-08-15T13:57:40Z</time>
      </trkpt>
      <trkpt lat="44.50267" lon="-1.10539">
        <ele>22</ele>
        <time>2019-08-15T13:57:45Z</time>
      </trkpt>
      <trkpt lat="44.50267" lon="-1.10539">
        <ele>22</ele>
        <time>2019-08-15T13:57:50Z</time>
      </trkpt>
      <trkpt lat="44.50267" lon="-1.10539">
        <ele>22</ele>
        <time>2019-08-15T13:57:55Z</time>
      </trkpt>
      <trkpt lat="44.50266" lon="-1.10538">
        <ele>22</ele>
        <time>2019-08-15T13:58:00Z</time>
      </trkpt>
      <trkpt lat="44.50266" lon="-1.10538">
        <ele>22</ele>
        <time>2019-08-15T13:58:05Z</time>
      </trkpt>
      <trkpt lat="44.50267" lon="-1.10538">
        <ele>22</ele>
        <time>2019-08-15T13:58:10Z</time>
      </trkpt>
      <trkpt lat="44.50267" lon="-1.10537">
        <ele>22</ele>
        <time>2019-08-15T13:58:15Z</time>
      </trkpt>
      <trkpt lat="44.50268" lon="-1.10538">
        <ele>22</ele>
        <time>2019-08-15T13:58:20Z</time>
      </trkpt>
      <trkpt lat="44.50268" lon="-1.10537">
        <ele>22</ele>
        <time>2019-08-15T13:58:25Z</time>
      </trkpt>
      <trkpt lat="44.50268" lon="-1.10538">
        <ele>22</ele>
        <time>2019-08-15T13:58:30Z</time>
      </trkpt>
      <trkpt lat="44.50267" lon="-1.10539">
        <ele>22</ele>
        <time>2019-08-15T13:58:35Z</time>
      </trkpt>
      <trkpt lat="44.5027" lon="-1.10541">
        <ele>23</ele>
        <time>2019-08-15T13:58:40Z</time>
      </trkpt>
      <trkpt lat="44.50272" lon="-1.10543">
        <ele>23</ele>
        <time>2019-08-15T13:58:45Z</time>
      </trkpt>
      <trkpt lat="44.50274" lon="-1.10546">
        <ele>23</ele>
        <time>2019-08-15T13:58:50Z</time>
      </trkpt>
      <trkpt lat="44.50274" lon="-1.10546">
        <ele>23</ele>
        <time>2019-08-15T13:58:55Z</time>
      </trkpt>
      <trkpt lat="44.50274" lon="-1.10547">
        <ele>23</ele>
        <time>2019-08-15T13:59:00Z</time>
      </trkpt>
      <trkpt lat="44.50274" lon="-1.10547">
        <ele>23</ele>
        <time>2019-08-15T13:59:05Z</time>
      </trkpt>
      <trkpt lat="44.50274" lon="-1.10547">
        <ele>23</ele>
        <time>2019-08-15T13:59:10Z</time>
      </trkpt>
      <trkpt lat="44.50275" lon="-1.10549">
        <ele>24</ele>
        <time>2019-08-15T13:59:15Z</time>
      </trkpt>
      <trkpt lat="44.50277" lon="-1.10553">
        <ele>23</ele>
        <time>2019-08-15T13:59:20Z</time>
      </trkpt>
      <trkpt lat="44.50279" lon="-1.10556">
        <ele>23</ele>
        <time>2019-08-15T13:59:25Z</time>
      </trkpt>
      <trkpt lat="44.5028" lon="-1.10559">
        <ele>22</ele>
        <time>2019-08-15T13:59:30Z</time>
      </trkpt>
      <trkpt lat="44.50282" lon="-1.10563">
        <ele>23</ele>
        <time>2019-08-15T13:59:35Z</time>
      </trkpt>
      <trkpt lat="44.50283" lon="-1.10567">
        <ele>23</ele>
        <time>2019-08-15T13:59:40Z</time>
      </trkpt>
      <trkpt lat="44.50284" lon="-1.10572">
        <ele>23</ele>
        <time>2019-08-15T13:59:45Z</time>
      </trkpt>
      <trkpt lat="44.50284" lon="-1.10576">
        <ele>23</ele>
        <time>2019-08-15T13:59:50Z</time>
      </trkpt>
      <trkpt lat="44.50284" lon="-1.1058">
        <ele>23</ele>
        <time>2019-08-15T13:59:55Z</time>
      </trkpt>
      <trkpt lat="44.50283" lon="-1.10583">
        <ele>23</ele>
        <time>2019-08-15T14:00:00Z</time>
      </trkpt>
      <trkpt lat="44.50282" lon="-1.10584">
        <ele>23</ele>
        <time>2019-08-15T14:00:05Z</time>
      </trkpt>
      <trkpt lat="44.50282" lon="-1.10583">
        <ele>23</ele>
        <time>2019-08-15T14:00:10Z</time>
      </trkpt>
      <trkpt lat="44.50282" lon="-1.10583">
        <ele>23</ele>
        <time>2019-08-15T14:00:15Z</time>
      </trkpt>
      <trkpt lat="44.50282" lon="-1.10583">
        <ele>23</ele>
        <time>2019-08-15T14:00:20Z</time>
      </trkpt>
      <trkpt lat="44.50282" lon="-1.10583">
        <ele>23</ele>
        <time>2019-08-15T14:00:25Z</time>
      </trkpt>
      <trkpt lat="44.50283" lon="-1.10583">
        <ele>23</ele>
        <time>2019-08-15T14:00:30Z</time>
      </trkpt>
      <trkpt lat="44.50283" lon="-1.10583">
        <ele>23</ele>
        <time>2019-08-15T14:00:35Z</time>
      </trkpt>
      <trkpt lat="44.50283" lon="-1.10583">
        <ele>23</ele>
        <time>2019-08-15T14:00:40Z</time>
      </trkpt>
      <trkpt lat="44.50283" lon="-1.10584">
        <ele>23</ele>
        <time>2019-08-15T14:00:45Z</time>
      </trkpt>
      <trkpt lat="44.50283" lon="-1.10584">
        <ele>23</ele>
        <time>2019-08-15T14:00:50Z</time>
      </trkpt>
      <trkpt lat="44.50283" lon="-1.10584">
        <ele>23</ele>
        <time>2019-08-15T14:00:55Z</time>
      </trkpt>
      <trkpt lat="44.50283" lon="-1.10584">
        <ele>23</ele>
        <time>2019-08-15T14:01:00Z</time>
      </trkpt>
      <trkpt lat="44.50282" lon="-1.10584">
        <ele>23</ele>
        <time>2019-08-15T14:01:05Z</time>
      </trkpt>
      <trkpt lat="44.50282" lon="-1.10584">
        <ele>23</ele>
        <time>2019-08-15T14:01:10Z</time>
      </trkpt>
      <trkpt lat="44.50282" lon="-1.10584">
        <ele>23</ele>
        <time>2019-08-15T14:01:15Z</time>
      </trkpt>
      <trkpt lat="44.50282" lon="-1.10584">
        <ele>23</ele>
        <time>2019-08-15T14:01:20Z</time>
      </trkpt>
      <trkpt lat="44.50282" lon="-1.10584">
        <ele>23</ele>
        <time>2019-08-15T14:01:25Z</time>
      </trkpt>
      <trkpt lat="44.50282" lon="-1.10584">
        <ele>23</ele>
        <time>2019-08-15T14:01:30Z</time>
      </trkpt>
      <trkpt lat="44.50282" lon="-1.10584">
        <ele>23</ele>
        <time>2019-08-15T14:01:35Z</time>
      </trkpt>
      <trkpt lat="44.50282" lon="-1.10584">
        <ele>23</ele>
        <time>2019-08-15T14:01:40Z</time>
      </trkpt>
      <trkpt lat="44.50282" lon="-1.10584">
        <ele>23</ele>
        <time>2019-08-15T14:01:45Z</time>
      </trkpt>
      <trkpt lat="44.50282" lon="-1.10584">
        <ele>23</ele>
        <time>2019-08-15T14:01:50Z</time>
      </trkpt>
      <trkpt lat="44.50281" lon="-1.10586">
        <ele>22</ele>
        <time>2019-08-15T14:01:55Z</time>
      </trkpt>
      <trkpt lat="44.50281" lon="-1.10586">
        <ele>23</ele>
        <time>2019-08-15T14:02:00Z</time>
      </trkpt>
      <trkpt lat="44.50282" lon="-1.10586">
        <ele>23</ele>
        <time>2019-08-15T14:02:05Z</time>
      </trkpt>
      <trkpt lat="44.5028" lon="-1.1059">
        <ele>22</ele>
        <time>2019-08-15T14:02:10Z</time>
      </trkpt>
      <trkpt lat="44.50276" lon="-1.10594">
        <ele>22</ele>
        <time>2019-08-15T14:02:15Z</time>
      </trkpt>
      <trkpt lat="44.50274" lon="-1.106">
        <ele>21</ele>
        <time>2019-08-15T14:02:20Z</time>
      </trkpt>
      <trkpt lat="44.50273" lon="-1.10607">
        <ele>20</ele>
        <time>2019-08-15T14:02:25Z</time>
      </trkpt>
      <trkpt lat="44.50276" lon="-1.10613">
        <ele>22</ele>
        <time>2019-08-15T14:02:30Z</time>
      </trkpt>
      <trkpt lat="44.50277" lon="-1.10618">
        <ele>22</ele>
        <time>2019-08-15T14:02:35Z</time>
      </trkpt>
      <trkpt lat="44.50279" lon="-1.10624">
        <ele>22</ele>
        <time>2019-08-15T14:02:40Z</time>
      </trkpt>
      <trkpt lat="44.5028" lon="-1.10631">
        <ele>22</ele>
        <time>2019-08-15T14:02:45Z</time>
      </trkpt>
      <trkpt lat="44.50281" lon="-1.10636">
        <ele>23</ele>
        <time>2019-08-15T14:02:50Z</time>
      </trkpt>
      <trkpt lat="44.50281" lon="-1.10642">
        <ele>22</ele>
        <time>2019-08-15T14:02:55Z</time>
      </trkpt>
      <trkpt lat="44.50281" lon="-1.10648">
        <ele>22</ele>
        <time>2019-08-15T14:03:00Z</time>
      </trkpt>
      <trkpt lat="44.5028" lon="-1.10653">
        <ele>22</ele>
        <time>2019-08-15T14:03:05Z</time>
      </trkpt>
      <trkpt lat="44.50281" lon="-1.10659">
        <ele>22</ele>
        <time>2019-08-15T14:03:10Z</time>
      </trkpt>
      <trkpt lat="44.50281" lon="-1.10665">
        <ele>23</ele>
        <time>2019-08-15T14:03:15Z</time>
      </trkpt>
      <trkpt lat="44.50281" lon="-1.10671">
        <ele>22</ele>
        <time>2019-08-15T14:03:20Z</time>
      </trkpt>
      <trkpt lat="44.50281" lon="-1.10677">
        <ele>20</ele>
        <time>2019-08-15T14:03:25Z</time>
      </trkpt>
      <trkpt lat="44.50281" lon="-1.10682">
        <ele>19</ele>
        <time>2019-08-15T14:03:30Z</time>
      </trkpt>
      <trkpt lat="44.50279" lon="-1.10686">
        <ele>19</ele>
        <time>2019-08-15T14:03:35Z</time>
      </trkpt>
      <trkpt lat="44.50277" lon="-1.10688">
        <ele>19</ele>
        <time>2019-08-15T14:03:40Z</time>
      </trkpt>
      <trkpt lat="44.50274" lon="-1.10688">
        <ele>18</ele>
        <time>2019-08-15T14:03:45Z</time>
      </trkpt>
      <trkpt lat="44.50274" lon="-1.10688">
        <ele>18</ele>
        <time>2019-08-15T14:03:50Z</time>
      </trkpt>
      <trkpt lat="44.50274" lon="-1.10688">
        <ele>18</ele>
        <time>2019-08-15T14:03:55Z</time>
      </trkpt>
      <trkpt lat="44.50274" lon="-1.10688">
        <ele>18</ele>
        <time>2019-08-15T14:04:00Z</time>
      </trkpt>
      <trkpt lat="44.50274" lon="-1.10687">
        <ele>19</ele>
        <time>2019-08-15T14:04:05Z</time>
      </trkpt>
      <trkpt lat="44.50274" lon="-1.10686">
        <ele>19</ele>
        <time>2019-08-15T14:04:10Z</time>
      </trkpt>
      <trkpt lat="44.50274" lon="-1.10687">
        <ele>19</ele>
        <time>2019-08-15T14:04:15Z</time>
      </trkpt>
      <trkpt lat="44.50274" lon="-1.10687">
        <ele>19</ele>
        <time>2019-08-15T14:04:20Z</time>
      </trkpt>
      <trkpt lat="44.50274" lon="-1.10687">
        <ele>19</ele>
        <time>2019-08-15T14:04:25Z</time>
      </trkpt>
      <trkpt lat="44.50274" lon="-1.10687">
        <ele>19</ele>
        <time>2019-08-15T14:04:30Z</time>
      </trkpt>
      <trkpt lat="44.50274" lon="-1.10687">
        <ele>19</ele>
        <time>2019-08-15T14:04:35Z</time>
      </trkpt>
      <trkpt lat="44.50274" lon="-1.10687">
        <ele>19</ele>
        <time>2019-08-15T14:04:40Z</time>
      </trkpt>
      <trkpt lat="44.50274" lon="-1.10687">
        <ele>19</ele>
        <time>2019-08-15T14:04:45Z</time>
      </trkpt>
      <trkpt lat="44.50274" lon="-1.10687">
        <ele>19</ele>
        <time>2019-08-15T14:04:50Z</time>
      </trkpt>
      <trkpt lat="44.50274" lon="-1.10687">
        <ele>19</ele>
        <time>2019-08-15T14:04:55Z</time>
      </trkpt>
      <trkpt lat="44.50274" lon="-1.10687">
        <ele>19</ele>
        <time>2019-08-15T14:05:00Z</time>
      </trkpt>
      <trkpt lat="44.50274" lon="-1.10687">
        <ele>19</ele>
        <time>2019-08-15T14:05:05Z</time>
      </trkpt>
      <trkpt lat="44.50274" lon="-1.10687">
        <ele>19</ele>
        <time>2019-08-15T14:05:10Z</time>
      </trkpt>
      <trkpt lat="44.50273" lon="-1.10684">
        <ele>19</ele>
        <time>2019-08-15T14:05:15Z</time>
      </trkpt>
      <trkpt lat="44.50272" lon="-1.10685">
        <ele>19</ele>
        <time>2019-08-15T14:05:20Z</time>
      </trkpt>
      <trkpt lat="44.50272" lon="-1.10687">
        <ele>19</ele>
        <time>2019-08-15T14:05:25Z</time>
      </trkpt>
      <trkpt lat="44.50273" lon="-1.10687">
        <ele>18</ele>
        <time>2019-08-15T14:05:30Z</time>
      </trkpt>
      <trkpt lat="44.50273" lon="-1.10688">
        <ele>18</ele>
        <time>2019-08-15T14:05:35Z</time>
      </trkpt>
      <trkpt lat="44.50273" lon="-1.10687">
        <ele>18</ele>
        <time>2019-08-15T14:05:40Z</time>
      </trkpt>
      <trkpt lat="44.50273" lon="-1.10687">
        <ele>18</ele>
        <time>2019-08-15T14:05:45Z</time>
      </trkpt>
      <trkpt lat="44.50273" lon="-1.10687">
        <ele>18</ele>
        <time>2019-08-15T14:05:50Z</time>
      </trkpt>
      <trkpt lat="44.50273" lon="-1.10687">
        <ele>19</ele>
        <time>2019-08-15T14:05:55Z</time>
      </trkpt>
      <trkpt lat="44.50273" lon="-1.10687">
        <ele>18</ele>
        <time>2019-08-15T14:06:00Z</time>
      </trkpt>
      <trkpt lat="44.50273" lon="-1.10687">
        <ele>19</ele>
        <time>2019-08-15T14:06:05Z</time>
      </trkpt>
      <trkpt lat="44.50273" lon="-1.10687">
        <ele>19</ele>
        <time>2019-08-15T14:06:10Z</time>
      </trkpt>
      <trkpt lat="44.50273" lon="-1.10687">
        <ele>19</ele>
        <time>2019-08-15T14:06:15Z</time>
      </trkpt>
      <trkpt lat="44.50273" lon="-1.10687">
        <ele>18</ele>
        <time>2019-08-15T14:06:20Z</time>
      </trkpt>
      <trkpt lat="44.50273" lon="-1.10687">
        <ele>18</ele>
        <time>2019-08-15T14:06:25Z</time>
      </trkpt>
      <trkpt lat="44.50273" lon="-1.10687">
        <ele>18</ele>
        <time>2019-08-15T14:06:30Z</time>
      </trkpt>
      <trkpt lat="44.50273" lon="-1.10687">
        <ele>19</ele>
        <time>2019-08-15T14:06:35Z</time>
      </trkpt>
      <trkpt lat="44.50273" lon="-1.10687">
        <ele>18</ele>
        <time>2019-08-15T14:06:40Z</time>
      </trkpt>
      <trkpt lat="44.50273" lon="-1.10687">
        <ele>18</ele>
        <time>2019-08-15T14:06:45Z</time>
      </trkpt>
      <trkpt lat="44.50273" lon="-1.10687">
        <ele>18</ele>
        <time>2019-08-15T14:06:50Z</time>
      </trkpt>
      <trkpt lat="44.50273" lon="-1.10687">
        <ele>18</ele>
        <time>2019-08-15T14:06:55Z</time>
      </trkpt>
      <trkpt lat="44.50273" lon="-1.10687">
        <ele>18</ele>
        <time>2019-08-15T14:07:00Z</time>
      </trkpt>
      <trkpt lat="44.50273" lon="-1.10687">
        <ele>18</ele>
        <time>2019-08-15T14:07:05Z</time>
      </trkpt>
      <trkpt lat="44.50273" lon="-1.10687">
        <ele>18</ele>
        <time>2019-08-15T14:07:10Z</time>
      </trkpt>
      <trkpt lat="44.50273" lon="-1.10687">
        <ele>18</ele>
        <time>2019-08-15T14:07:15Z</time>
      </trkpt>
      <trkpt lat="44.50273" lon="-1.10687">
        <ele>18</ele>
        <time>2019-08-15T14:07:20Z</time>
      </trkpt>
      <trkpt lat="44.50273" lon="-1.10687">
        <ele>18</ele>
        <time>2019-08-15T14:07:25Z</time>
      </trkpt>
      <trkpt lat="44.50273" lon="-1.10688">
        <ele>18</ele>
        <time>2019-08-15T14:07:30Z</time>
      </trkpt>
      <trkpt lat="44.50273" lon="-1.10687">
        <ele>18</ele>
        <time>2019-08-15T14:07:35Z</time>
      </trkpt>
      <trkpt lat="44.50273" lon="-1.10688">
        <ele>18</ele>
        <time>2019-08-15T14:07:40Z</time>
      </trkpt>
      <trkpt lat="44.50273" lon="-1.10687">
        <ele>18</ele>
        <time>2019-08-15T14:07:45Z</time>
      </trkpt>
      <trkpt lat="44.50273" lon="-1.10687">
        <ele>18</ele>
        <time>2019-08-15T14:07:50Z</time>
      </trkpt>
      <trkpt lat="44.50273" lon="-1.10687">
        <ele>18</ele>
        <time>2019-08-15T14:07:55Z</time>
      </trkpt>
      <trkpt lat="44.50273" lon="-1.10687">
        <ele>19</ele>
        <time>2019-08-15T14:08:00Z</time>
      </trkpt>
      <trkpt lat="44.50273" lon="-1.10687">
        <ele>18</ele>
        <time>2019-08-15T14:08:05Z</time>
      </trkpt>
      <trkpt lat="44.50273" lon="-1.10687">
        <ele>19</ele>
        <time>2019-08-15T14:08:10Z</time>
      </trkpt>
      <trkpt lat="44.50273" lon="-1.10687">
        <ele>18</ele>
        <time>2019-08-15T14:08:15Z</time>
      </trkpt>
      <trkpt lat="44.50273" lon="-1.10687">
        <ele>18</ele>
        <time>2019-08-15T14:08:20Z</time>
      </trkpt>
      <trkpt lat="44.50273" lon="-1.10687">
        <ele>18</ele>
        <time>2019-08-15T14:08:25Z</time>
      </trkpt>
      <trkpt lat="44.50273" lon="-1.10687">
        <ele>18</ele>
        <time>2019-08-15T14:08:30Z</time>
      </trkpt>
      <trkpt lat="44.50273" lon="-1.10687">
        <ele>18</ele>
        <time>2019-08-15T14:08:35Z</time>
      </trkpt>
      <trkpt lat="44.50273" lon="-1.10688">
        <ele>18</ele>
        <time>2019-08-15T14:08:40Z</time>
      </trkpt>
      <trkpt lat="44.50273" lon="-1.10688">
        <ele>18</ele>
        <time>2019-08-15T14:08:45Z</time>
      </trkpt>
      <trkpt lat="44.50273" lon="-1.10688">
        <ele>18</ele>
        <time>2019-08-15T14:08:50Z</time>
      </trkpt>
      <trkpt lat="44.50273" lon="-1.10688">
        <ele>18</ele>
        <time>2019-08-15T14:08:55Z</time>
      </trkpt>
      <trkpt lat="44.50273" lon="-1.10688">
        <ele>18</ele>
        <time>2019-08-15T14:09:00Z</time>
      </trkpt>
      <trkpt lat="44.50273" lon="-1.10688">
        <ele>18</ele>
        <time>2019-08-15T14:09:05Z</time>
      </trkpt>
      <trkpt lat="44.50273" lon="-1.10688">
        <ele>18</ele>
        <time>2019-08-15T14:09:10Z</time>
      </trkpt>
      <trkpt lat="44.50273" lon="-1.10688">
        <ele>18</ele>
        <time>2019-08-15T14:09:15Z</time>
      </trkpt>
      <trkpt lat="44.50273" lon="-1.10688">
        <ele>18</ele>
        <time>2019-08-15T14:09:20Z</time>
      </trkpt>
      <trkpt lat="44.50273" lon="-1.10688">
        <ele>18</ele>
        <time>2019-08-15T14:09:25Z</time>
      </trkpt>
      <trkpt lat="44.50273" lon="-1.10688">
        <ele>18</ele>
        <time>2019-08-15T14:09:30Z</time>
      </trkpt>
      <trkpt lat="44.50273" lon="-1.10688">
        <ele>18</ele>
        <time>2019-08-15T14:09:35Z</time>
      </trkpt>
      <trkpt lat="44.50273" lon="-1.10688">
        <ele>18</ele>
        <time>2019-08-15T14:09:40Z</time>
      </trkpt>
      <trkpt lat="44.50273" lon="-1.10688">
        <ele>18</ele>
        <time>2019-08-15T14:09:45Z</time>
      </trkpt>
      <trkpt lat="44.50273" lon="-1.10688">
        <ele>18</ele>
        <time>2019-08-15T14:09:50Z</time>
      </trkpt>
      <trkpt lat="44.50273" lon="-1.10688">
        <ele>18</ele>
        <time>2019-08-15T14:09:55Z</time>
      </trkpt>
      <trkpt lat="44.50273" lon="-1.10688">
        <ele>18</ele>
        <time>2019-08-15T14:10:00Z</time>
      </trkpt>
      <trkpt lat="44.50273" lon="-1.10688">
        <ele>18</ele>
        <time>2019-08-15T14:10:05Z</time>
      </trkpt>
      <trkpt lat="44.50273" lon="-1.10688">
        <ele>18</ele>
        <time>2019-08-15T14:10:10Z</time>
      </trkpt>
      <trkpt lat="44.50273" lon="-1.10688">
        <ele>18</ele>
        <time>2019-08-15T14:10:15Z</time>
      </trkpt>
      <trkpt lat="44.50273" lon="-1.10688">
        <ele>18</ele>
        <time>2019-08-15T14:10:20Z</time>
      </trkpt>
      <trkpt lat="44.50273" lon="-1.10688">
        <ele>18</ele>
        <time>2019-08-15T14:10:25Z</time>
      </trkpt>
      <trkpt lat="44.50273" lon="-1.10688">
        <ele>18</ele>
        <time>2019-08-15T14:10:30Z</time>
      </trkpt>
      <trkpt lat="44.50272" lon="-1.10688">
        <ele>18</ele>
        <time>2019-08-15T14:10:35Z</time>
      </trkpt>
      <trkpt lat="44.50273" lon="-1.10688">
        <ele>18</ele>
        <time>2019-08-15T14:10:40Z</time>
      </trkpt>
      <trkpt lat="44.50272" lon="-1.10688">
        <ele>18</ele>
        <time>2019-08-15T14:10:45Z</time>
      </trkpt>
      <trkpt lat="44.50272" lon="-1.10688">
        <ele>18</ele>
        <time>2019-08-15T14:10:50Z</time>
      </trkpt>
      <trkpt lat="44.50272" lon="-1.10688">
        <ele>18</ele>
        <time>2019-08-15T14:10:55Z</time>
      </trkpt>
      <trkpt lat="44.50272" lon="-1.10688">
        <ele>18</ele>
        <time>2019-08-15T14:11:00Z</time>
      </trkpt>
      <trkpt lat="44.50272" lon="-1.10688">
        <ele>18</ele>
        <time>2019-08-15T14:11:05Z</time>
      </trkpt>
      <trkpt lat="44.50273" lon="-1.10688">
        <ele>18</ele>
        <time>2019-08-15T14:11:10Z</time>
      </trkpt>
      <trkpt lat="44.50272" lon="-1.10688">
        <ele>18</ele>
        <time>2019-08-15T14:11:15Z</time>
      </trkpt>
      <trkpt lat="44.50272" lon="-1.10688">
        <ele>18</ele>
        <time>2019-08-15T14:11:20Z</time>
      </trkpt>
      <trkpt lat="44.50272" lon="-1.10688">
        <ele>18</ele>
        <time>2019-08-15T14:11:25Z</time>
      </trkpt>
      <trkpt lat="44.50272" lon="-1.10688">
        <ele>18</ele>
        <time>2019-08-15T14:11:30Z</time>
      </trkpt>
      <trkpt lat="44.50272" lon="-1.10688">
        <ele>18</ele>
        <time>2019-08-15T14:11:35Z</time>
      </trkpt>
      <trkpt lat="44.50272" lon="-1.10688">
        <ele>18</ele>
        <time>2019-08-15T14:11:40Z</time>
      </trkpt>
      <trkpt lat="44.50273" lon="-1.10689">
        <ele>18</ele>
        <time>2019-08-15T14:11:45Z</time>
      </trkpt>
      <trkpt lat="44.50272" lon="-1.10689">
        <ele>18</ele>
        <time>2019-08-15T14:11:50Z</time>
      </trkpt>
      <trkpt lat="44.50272" lon="-1.10689">
        <ele>18</ele>
        <time>2019-08-15T14:11:55Z</time>
      </trkpt>
      <trkpt lat="44.50272" lon="-1.10689">
        <ele>18</ele>
        <time>2019-08-15T14:12:00Z</time>
      </trkpt>
      <trkpt lat="44.50272" lon="-1.10688">
        <ele>18</ele>
        <time>2019-08-15T14:12:05Z</time>
      </trkpt>
      <trkpt lat="44.50272" lon="-1.10689">
        <ele>18</ele>
        <time>2019-08-15T14:12:10Z</time>
      </trkpt>
      <trkpt lat="44.50272" lon="-1.10689">
        <ele>18</ele>
        <time>2019-08-15T14:12:15Z</time>
      </trkpt>
      <trkpt lat="44.50272" lon="-1.10689">
        <ele>18</ele>
        <time>2019-08-15T14:12:20Z</time>
      </trkpt>
      <trkpt lat="44.50272" lon="-1.10689">
        <ele>18</ele>
        <time>2019-08-15T14:12:25Z</time>
      </trkpt>
      <trkpt lat="44.50272" lon="-1.10689">
        <ele>18</ele>
        <time>2019-08-15T14:12:30Z</time>
      </trkpt>
      <trkpt lat="44.50272" lon="-1.10689">
        <ele>18</ele>
        <time>2019-08-15T14:12:35Z</time>
      </trkpt>
      <trkpt lat="44.50272" lon="-1.10689">
        <ele>18</ele>
        <time>2019-08-15T14:12:40Z</time>
      </trkpt>
      <trkpt lat="44.50272" lon="-1.10689">
        <ele>18</ele>
        <time>2019-08-15T14:12:45Z</time>
      </trkpt>
      <trkpt lat="44.50272" lon="-1.10689">
        <ele>18</ele>
        <time>2019-08-15T14:12:50Z</time>
      </trkpt>
      <trkpt lat="44.50271" lon="-1.10689">
        <ele>18</ele>
        <time>2019-08-15T14:12:55Z</time>
      </trkpt>
      <trkpt lat="44.50271" lon="-1.10685">
        <ele>19</ele>
        <time>2019-08-15T14:13:00Z</time>
      </trkpt>
      <trkpt lat="44.5027" lon="-1.10679">
        <ele>19</ele>
        <time>2019-08-15T14:13:05Z</time>
      </trkpt>
      <trkpt lat="44.50267" lon="-1.10675">
        <ele>19</ele>
        <time>2019-08-15T14:13:10Z</time>
      </trkpt>
      <trkpt lat="44.50264" lon="-1.10669">
        <ele>19</ele>
        <time>2019-08-15T14:13:15Z</time>
      </trkpt>
      <trkpt lat="44.50263" lon="-1.10664">
        <ele>19</ele>
        <time>2019-08-15T14:13:20Z</time>
      </trkpt>
      <trkpt lat="44.50267" lon="-1.10664">
        <ele>19</ele>
        <time>2019-08-15T14:13:25Z</time>
      </trkpt>
      <trkpt lat="44.50268" lon="-1.10667">
        <ele>19</ele>
        <time>2019-08-15T14:13:30Z</time>
      </trkpt>
      <trkpt lat="44.50265" lon="-1.10665">
        <ele>19</ele>
        <time>2019-08-15T14:13:35Z</time>
      </trkpt>
      <trkpt lat="44.50262" lon="-1.10664">
        <ele>19</ele>
        <time>2019-08-15T14:13:40Z</time>
      </trkpt>
      <trkpt lat="44.50259" lon="-1.10661">
        <ele>19</ele>
        <time>2019-08-15T14:13:45Z</time>
      </trkpt>
      <trkpt lat="44.50259" lon="-1.1066">
        <ele>19</ele>
        <time>2019-08-15T14:13:50Z</time>
      </trkpt>
      <trkpt lat="44.5026" lon="-1.10662">
        <ele>19</ele>
        <time>2019-08-15T14:13:55Z</time>
      </trkpt>
      <trkpt lat="44.50258" lon="-1.10664">
        <ele>19</ele>
        <time>2019-08-15T14:14:00Z</time>
      </trkpt>
      <trkpt lat="44.50255" lon="-1.10665">
        <ele>18</ele>
        <time>2019-08-15T14:14:05Z</time>
      </trkpt>
      <trkpt lat="44.50255" lon="-1.10661">
        <ele>18</ele>
        <time>2019-08-15T14:14:10Z</time>
      </trkpt>
      <trkpt lat="44.50253" lon="-1.10657">
        <ele>18</ele>
        <time>2019-08-15T14:14:15Z</time>
      </trkpt>
      <trkpt lat="44.50252" lon="-1.10653">
        <ele>18</ele>
        <time>2019-08-15T14:14:20Z</time>
      </trkpt>
      <trkpt lat="44.50247" lon="-1.10648">
        <ele>18</ele>
        <time>2019-08-15T14:14:25Z</time>
      </trkpt>
      <trkpt lat="44.50242" lon="-1.10644">
        <ele>18</ele>
        <time>2019-08-15T14:14:30Z</time>
      </trkpt>
      <trkpt lat="44.50239" lon="-1.10642">
        <ele>18</ele>
        <time>2019-08-15T14:14:35Z</time>
      </trkpt>
      <trkpt lat="44.50237" lon="-1.1064">
        <ele>18</ele>
        <time>2019-08-15T14:14:40Z</time>
      </trkpt>
      <trkpt lat="44.50236" lon="-1.10641">
        <ele>18</ele>
        <time>2019-08-15T14:14:45Z</time>
      </trkpt>
      <trkpt lat="44.50232" lon="-1.10639">
        <ele>18</ele>
        <time>2019-08-15T14:14:50Z</time>
      </trkpt>
      <trkpt lat="44.50227" lon="-1.10639">
        <ele>18</ele>
        <time>2019-08-15T14:14:55Z</time>
      </trkpt>
      <trkpt lat="44.50224" lon="-1.1064">
        <ele>18</ele>
        <time>2019-08-15T14:15:00Z</time>
      </trkpt>
      <trkpt lat="44.50221" lon="-1.1064">
        <ele>18</ele>
        <time>2019-08-15T14:15:05Z</time>
      </trkpt>
      <trkpt lat="44.50217" lon="-1.1064">
        <ele>18</ele>
        <time>2019-08-15T14:15:10Z</time>
      </trkpt>
      <trkpt lat="44.50214" lon="-1.10643">
        <ele>18</ele>
        <time>2019-08-15T14:15:15Z</time>
      </trkpt>
      <trkpt lat="44.50212" lon="-1.10644">
        <ele>18</ele>
        <time>2019-08-15T14:15:20Z</time>
      </trkpt>
      <trkpt lat="44.50211" lon="-1.10646">
        <ele>18</ele>
        <time>2019-08-15T14:15:25Z</time>
      </trkpt>
      <trkpt lat="44.50209" lon="-1.10648">
        <ele>18</ele>
        <time>2019-08-15T14:15:30Z</time>
      </trkpt>
      <trkpt lat="44.50207" lon="-1.10648">
        <ele>18</ele>
        <time>2019-08-15T14:15:35Z</time>
      </trkpt>
      <trkpt lat="44.50205" lon="-1.10648">
        <ele>18</ele>
        <time>2019-08-15T14:15:40Z</time>
      </trkpt>
      <trkpt lat="44.50203" lon="-1.10648">
        <ele>18</ele>
        <time>2019-08-15T14:15:45Z</time>
      </trkpt>
      <trkpt lat="44.502" lon="-1.10648">
        <ele>18</ele>
        <time>2019-08-15T14:15:50Z</time>
      </trkpt>
      <trkpt lat="44.50198" lon="-1.10649">
        <ele>18</ele>
        <time>2019-08-15T14:15:55Z</time>
      </trkpt>
      <trkpt lat="44.50196" lon="-1.1065">
        <ele>18</ele>
        <time>2019-08-15T14:16:00Z</time>
      </trkpt>
      <trkpt lat="44.50194" lon="-1.10651">
        <ele>18</ele>
        <time>2019-08-15T14:16:05Z</time>
      </trkpt>
      <trkpt lat="44.50191" lon="-1.10652">
        <ele>18</ele>
        <time>2019-08-15T14:16:10Z</time>
      </trkpt>
      <trkpt lat="44.50189" lon="-1.10652">
        <ele>18</ele>
        <time>2019-08-15T14:16:15Z</time>
      </trkpt>
      <trkpt lat="44.50187" lon="-1.10653">
        <ele>18</ele>
        <time>2019-08-15T14:16:20Z</time>
      </trkpt>
      <trkpt lat="44.50186" lon="-1.10654">
        <ele>18</ele>
        <time>2019-08-15T14:16:25Z</time>
      </trkpt>
      <trkpt lat="44.50184" lon="-1.10654">
        <ele>18</ele>
        <time>2019-08-15T14:16:30Z</time>
      </trkpt>
      <trkpt lat="44.50182" lon="-1.10654">
        <ele>18</ele>
        <time>2019-08-15T14:16:35Z</time>
      </trkpt>
      <trkpt lat="44.5018" lon="-1.10655">
        <ele>18</ele>
        <time>2019-08-15T14:16:40Z</time>
      </trkpt>
      <trkpt lat="44.50178" lon="-1.10655">
        <ele>18</ele>
        <time>2019-08-15T14:16:45Z</time>
      </trkpt>
      <trkpt lat="44.50176" lon="-1.10657">
        <ele>18</ele>
        <time>2019-08-15T14:16:50Z</time>
      </trkpt>
      <trkpt lat="44.50174" lon="-1.10657">
        <ele>18</ele>
        <time>2019-08-15T14:16:55Z</time>
      </trkpt>
      <trkpt lat="44.50172" lon="-1.10657">
        <ele>18</ele>
        <time>2019-08-15T14:17:00Z</time>
      </trkpt>
      <trkpt lat="44.5017" lon="-1.10656">
        <ele>18</ele>
        <time>2019-08-15T14:17:05Z</time>
      </trkpt>
      <trkpt lat="44.50167" lon="-1.10656">
        <ele>18</ele>
        <time>2019-08-15T14:17:10Z</time>
      </trkpt>
      <trkpt lat="44.50165" lon="-1.10656">
        <ele>18</ele>
        <time>2019-08-15T14:17:15Z</time>
      </trkpt>
      <trkpt lat="44.50162" lon="-1.10656">
        <ele>18</ele>
        <time>2019-08-15T14:17:20Z</time>
      </trkpt>
      <trkpt lat="44.5016" lon="-1.10657">
        <ele>18</ele>
        <time>2019-08-15T14:17:25Z</time>
      </trkpt>
      <trkpt lat="44.50158" lon="-1.10658">
        <ele>18</ele>
        <time>2019-08-15T14:17:30Z</time>
      </trkpt>
      <trkpt lat="44.50155" lon="-1.10658">
        <ele>18</ele>
        <time>2019-08-15T14:17:35Z</time>
      </trkpt>
      <trkpt lat="44.50153" lon="-1.10658">
        <ele>18</ele>
        <time>2019-08-15T14:17:40Z</time>
      </trkpt>
      <trkpt lat="44.5015" lon="-1.10658">
        <ele>18</ele>
        <time>2019-08-15T14:17:45Z</time>
      </trkpt>
      <trkpt lat="44.50148" lon="-1.10658">
        <ele>18</ele>
        <time>2019-08-15T14:17:50Z</time>
      </trkpt>
      <trkpt lat="44.50146" lon="-1.10658">
        <ele>18</ele>
        <time>2019-08-15T14:17:55Z</time>
      </trkpt>
      <trkpt lat="44.50145" lon="-1.10657">
        <ele>18</ele>
        <time>2019-08-15T14:18:00Z</time>
      </trkpt>
      <trkpt lat="44.50142" lon="-1.10657">
        <ele>18</ele>
        <time>2019-08-15T14:18:05Z</time>
      </trkpt>
      <trkpt lat="44.5014" lon="-1.10656">
        <ele>18</ele>
        <time>2019-08-15T14:18:10Z</time>
      </trkpt>
      <trkpt lat="44.50137" lon="-1.10655">
        <ele>18</ele>
        <time>2019-08-15T14:18:15Z</time>
      </trkpt>
      <trkpt lat="44.50136" lon="-1.10654">
        <ele>18</ele>
        <time>2019-08-15T14:18:20Z</time>
      </trkpt>
      <trkpt lat="44.50135" lon="-1.10653">
        <ele>18</ele>
        <time>2019-08-15T14:18:25Z</time>
      </trkpt>
      <trkpt lat="44.50135" lon="-1.10652">
        <ele>18</ele>
        <time>2019-08-15T14:18:30Z</time>
      </trkpt>
      <trkpt lat="44.50134" lon="-1.1065">
        <ele>18</ele>
        <time>2019-08-15T14:18:35Z</time>
      </trkpt>
      <trkpt lat="44.50133" lon="-1.10649">
        <ele>18</ele>
        <time>2019-08-15T14:18:40Z</time>
      </trkpt>
      <trkpt lat="44.50132" lon="-1.10648">
        <ele>18</ele>
        <time>2019-08-15T14:18:45Z</time>
      </trkpt>
      <trkpt lat="44.5013" lon="-1.10648">
        <ele>18</ele>
        <time>2019-08-15T14:18:50Z</time>
      </trkpt>
      <trkpt lat="44.50129" lon="-1.10649">
        <ele>18</ele>
        <time>2019-08-15T14:18:55Z</time>
      </trkpt>
      <trkpt lat="44.50129" lon="-1.1065">
        <ele>18</ele>
        <time>2019-08-15T14:19:00Z</time>
      </trkpt>
      <trkpt lat="44.50129" lon="-1.10652">
        <ele>18</ele>
        <time>2019-08-15T14:19:05Z</time>
      </trkpt>
      <trkpt lat="44.50128" lon="-1.10653">
        <ele>18</ele>
        <time>2019-08-15T14:19:10Z</time>
      </trkpt>
      <trkpt lat="44.50128" lon="-1.10654">
        <ele>18</ele>
        <time>2019-08-15T14:19:15Z</time>
      </trkpt>
      <trkpt lat="44.50127" lon="-1.10655">
        <ele>18</ele>
        <time>2019-08-15T14:19:20Z</time>
      </trkpt>
      <trkpt lat="44.50127" lon="-1.10655">
        <ele>18</ele>
        <time>2019-08-15T14:19:25Z</time>
      </trkpt>
      <trkpt lat="44.50127" lon="-1.10655">
        <ele>18</ele>
        <time>2019-08-15T14:19:30Z</time>
      </trkpt>
      <trkpt lat="44.50128" lon="-1.10655">
        <ele>18</ele>
        <time>2019-08-15T14:19:35Z</time>
      </trkpt>
      <trkpt lat="44.50128" lon="-1.10654">
        <ele>18</ele>
        <time>2019-08-15T14:19:40Z</time>
      </trkpt>
      <trkpt lat="44.50129" lon="-1.10653">
        <ele>18</ele>
        <time>2019-08-15T14:19:45Z</time>
      </trkpt>
      <trkpt lat="44.50129" lon="-1.10654">
        <ele>18</ele>
        <time>2019-08-15T14:19:50Z</time>
      </trkpt>
      <trkpt lat="44.50129" lon="-1.10655">
        <ele>18</ele>
        <time>2019-08-15T14:19:55Z</time>
      </trkpt>
      <trkpt lat="44.50129" lon="-1.10657">
        <ele>18</ele>
        <time>2019-08-15T14:20:00Z</time>
      </trkpt>
      <trkpt lat="44.50129" lon="-1.10657">
        <ele>18</ele>
        <time>2019-08-15T14:20:05Z</time>
      </trkpt>
      <trkpt lat="44.5013" lon="-1.10657">
        <ele>18</ele>
        <time>2019-08-15T14:20:10Z</time>
      </trkpt>
      <trkpt lat="44.5013" lon="-1.10658">
        <ele>18</ele>
        <time>2019-08-15T14:20:15Z</time>
      </trkpt>
      <trkpt lat="44.5013" lon="-1.10658">
        <ele>18</ele>
        <time>2019-08-15T14:20:20Z</time>
      </trkpt>
      <trkpt lat="44.5013" lon="-1.10658">
        <ele>18</ele>
        <time>2019-08-15T14:20:25Z</time>
      </trkpt>
      <trkpt lat="44.5013" lon="-1.10658">
        <ele>18</ele>
        <time>2019-08-15T14:20:30Z</time>
      </trkpt>
      <trkpt lat="44.5013" lon="-1.10658">
        <ele>18</ele>
        <time>2019-08-15T14:20:35Z</time>
      </trkpt>
      <trkpt lat="44.5013" lon="-1.10657">
        <ele>18</ele>
        <time>2019-08-15T14:20:40Z</time>
      </trkpt>
      <trkpt lat="44.5013" lon="-1.10657">
        <ele>18</ele>
        <time>2019-08-15T14:20:45Z</time>
      </trkpt>
      <trkpt lat="44.5013" lon="-1.10657">
        <ele>18</ele>
        <time>2019-08-15T14:20:50Z</time>
      </trkpt>
      <trkpt lat="44.5013" lon="-1.10657">
        <ele>18</ele>
        <time>2019-08-15T14:20:55Z</time>
      </trkpt>
      <trkpt lat="44.50131" lon="-1.10657">
        <ele>18</ele>
        <time>2019-08-15T14:21:00Z</time>
      </trkpt>
      <trkpt lat="44.50131" lon="-1.10657">
        <ele>18</ele>
        <time>2019-08-15T14:21:05Z</time>
      </trkpt>
      <trkpt lat="44.50131" lon="-1.10657">
        <ele>18</ele>
        <time>2019-08-15T14:21:10Z</time>
      </trkpt>
      <trkpt lat="44.5013" lon="-1.10657">
        <ele>18</ele>
        <time>2019-08-15T14:21:15Z</time>
      </trkpt>
      <trkpt lat="44.5013" lon="-1.10658">
        <ele>18</ele>
        <time>2019-08-15T14:21:20Z</time>
      </trkpt>
      <trkpt lat="44.50129" lon="-1.10658">
        <ele>18</ele>
        <time>2019-08-15T14:21:25Z</time>
      </trkpt>
      <trkpt lat="44.50131" lon="-1.10656">
        <ele>18</ele>
        <time>2019-08-15T14:21:30Z</time>
      </trkpt>
      <trkpt lat="44.50131" lon="-1.10655">
        <ele>18</ele>
        <time>2019-08-15T14:21:35Z</time>
      </trkpt>
      <trkpt lat="44.50131" lon="-1.10655">
        <ele>18</ele>
        <time>2019-08-15T14:21:40Z</time>
      </trkpt>
      <trkpt lat="44.50131" lon="-1.10655">
        <ele>18</ele>
        <time>2019-08-15T14:21:45Z</time>
      </trkpt>
      <trkpt lat="44.50131" lon="-1.10655">
        <ele>18</ele>
        <time>2019-08-15T14:21:50Z</time>
      </trkpt>
      <trkpt lat="44.50131" lon="-1.10655">
        <ele>18</ele>
        <time>2019-08-15T14:21:55Z</time>
      </trkpt>
      <trkpt lat="44.50129" lon="-1.10655">
        <ele>18</ele>
        <time>2019-08-15T14:22:00Z</time>
      </trkpt>
      <trkpt lat="44.50129" lon="-1.10655">
        <ele>18</ele>
        <time>2019-08-15T14:22:05Z</time>
      </trkpt>
      <trkpt lat="44.50128" lon="-1.10656">
        <ele>18</ele>
        <time>2019-08-15T14:22:10Z</time>
      </trkpt>
      <trkpt lat="44.50129" lon="-1.10655">
        <ele>18</ele>
        <time>2019-08-15T14:22:15Z</time>
      </trkpt>
      <trkpt lat="44.50128" lon="-1.10655">
        <ele>18</ele>
        <time>2019-08-15T14:22:20Z</time>
      </trkpt>
      <trkpt lat="44.50128" lon="-1.10655">
        <ele>18</ele>
        <time>2019-08-15T14:22:25Z</time>
      </trkpt>
      <trkpt lat="44.50128" lon="-1.10655">
        <ele>18</ele>
        <time>2019-08-15T14:22:30Z</time>
      </trkpt>
      <trkpt lat="44.50128" lon="-1.10658">
        <ele>18</ele>
        <time>2019-08-15T14:22:35Z</time>
      </trkpt>
      <trkpt lat="44.50128" lon="-1.10659">
        <ele>18</ele>
        <time>2019-08-15T14:22:40Z</time>
      </trkpt>
      <trkpt lat="44.50129" lon="-1.1066">
        <ele>18</ele>
        <time>2019-08-15T14:22:45Z</time>
      </trkpt>
      <trkpt lat="44.50129" lon="-1.1066">
        <ele>18</ele>
        <time>2019-08-15T14:22:50Z</time>
      </trkpt>
      <trkpt lat="44.50129" lon="-1.1066">
        <ele>18</ele>
        <time>2019-08-15T14:22:55Z</time>
      </trkpt>
      <trkpt lat="44.50129" lon="-1.1066">
        <ele>18</ele>
        <time>2019-08-15T14:23:00Z</time>
      </trkpt>
      <trkpt lat="44.50129" lon="-1.1066">
        <ele>18</ele>
        <time>2019-08-15T14:23:05Z</time>
      </trkpt>
      <trkpt lat="44.50129" lon="-1.10659">
        <ele>18</ele>
        <time>2019-08-15T14:23:10Z</time>
      </trkpt>
      <trkpt lat="44.50128" lon="-1.10659">
        <ele>18</ele>
        <time>2019-08-15T14:23:15Z</time>
      </trkpt>
      <trkpt lat="44.50129" lon="-1.10659">
        <ele>18</ele>
        <time>2019-08-15T14:23:20Z</time>
      </trkpt>
      <trkpt lat="44.50129" lon="-1.10658">
        <ele>18</ele>
        <time>2019-08-15T14:23:25Z</time>
      </trkpt>
      <trkpt lat="44.50129" lon="-1.10658">
        <ele>18</ele>
        <time>2019-08-15T14:23:30Z</time>
      </trkpt>
      <trkpt lat="44.50129" lon="-1.10658">
        <ele>18</ele>
        <time>2019-08-15T14:23:35Z</time>
      </trkpt>
      <trkpt lat="44.5013" lon="-1.10657">
        <ele>18</ele>
        <time>2019-08-15T14:23:40Z</time>
      </trkpt>
      <trkpt lat="44.5013" lon="-1.10659">
        <ele>18</ele>
        <time>2019-08-15T14:23:45Z</time>
      </trkpt>
      <trkpt lat="44.50131" lon="-1.1066">
        <ele>18</ele>
        <time>2019-08-15T14:23:50Z</time>
      </trkpt>
      <trkpt lat="44.50131" lon="-1.10661">
        <ele>18</ele>
        <time>2019-08-15T14:23:55Z</time>
      </trkpt>
      <trkpt lat="44.5013" lon="-1.10664">
        <ele>18</ele>
        <time>2019-08-15T14:24:00Z</time>
      </trkpt>
      <trkpt lat="44.5013" lon="-1.10664">
        <ele>18</ele>
        <time>2019-08-15T14:24:05Z</time>
      </trkpt>
      <trkpt lat="44.50129" lon="-1.10666">
        <ele>18</ele>
        <time>2019-08-15T14:24:10Z</time>
      </trkpt>
      <trkpt lat="44.50129" lon="-1.1067">
        <ele>18</ele>
        <time>2019-08-15T14:24:15Z</time>
      </trkpt>
      <trkpt lat="44.50129" lon="-1.10673">
        <ele>18</ele>
        <time>2019-08-15T14:24:20Z</time>
      </trkpt>
      <trkpt lat="44.5013" lon="-1.10676">
        <ele>18</ele>
        <time>2019-08-15T14:24:25Z</time>
      </trkpt>
      <trkpt lat="44.5013" lon="-1.10679">
        <ele>18</ele>
        <time>2019-08-15T14:24:30Z</time>
      </trkpt>
      <trkpt lat="44.50131" lon="-1.10682">
        <ele>18</ele>
        <time>2019-08-15T14:24:35Z</time>
      </trkpt>
      <trkpt lat="44.50131" lon="-1.10685">
        <ele>18</ele>
        <time>2019-08-15T14:24:40Z</time>
      </trkpt>
      <trkpt lat="44.50132" lon="-1.10686">
        <ele>18</ele>
        <time>2019-08-15T14:24:45Z</time>
      </trkpt>
      <trkpt lat="44.50132" lon="-1.10688">
        <ele>18</ele>
        <time>2019-08-15T14:24:50Z</time>
      </trkpt>
      <trkpt lat="44.50132" lon="-1.10689">
        <ele>18</ele>
        <time>2019-08-15T14:24:55Z</time>
      </trkpt>
      <trkpt lat="44.50133" lon="-1.10688">
        <ele>18</ele>
        <time>2019-08-15T14:25:00Z</time>
      </trkpt>
      <trkpt lat="44.50133" lon="-1.10688">
        <ele>18</ele>
        <time>2019-08-15T14:25:05Z</time>
      </trkpt>
      <trkpt lat="44.50134" lon="-1.10687">
        <ele>18</ele>
        <time>2019-08-15T14:25:10Z</time>
      </trkpt>
      <trkpt lat="44.50135" lon="-1.10685">
        <ele>18</ele>
        <time>2019-08-15T14:25:15Z</time>
      </trkpt>
      <trkpt lat="44.50135" lon="-1.10686">
        <ele>18</ele>
        <time>2019-08-15T14:25:20Z</time>
      </trkpt>
      <trkpt lat="44.50134" lon="-1.10686">
        <ele>18</ele>
        <time>2019-08-15T14:25:25Z</time>
      </trkpt>
      <trkpt lat="44.50133" lon="-1.10686">
        <ele>18</ele>
        <time>2019-08-15T14:25:30Z</time>
      </trkpt>
      <trkpt lat="44.50133" lon="-1.10685">
        <ele>18</ele>
        <time>2019-08-15T14:25:35Z</time>
      </trkpt>
      <trkpt lat="44.50133" lon="-1.10686">
        <ele>18</ele>
        <time>2019-08-15T14:25:40Z</time>
      </trkpt>
      <trkpt lat="44.50133" lon="-1.10686">
        <ele>18</ele>
        <time>2019-08-15T14:25:45Z</time>
      </trkpt>
      <trkpt lat="44.50132" lon="-1.10686">
        <ele>18</ele>
        <time>2019-08-15T14:25:50Z</time>
      </trkpt>
      <trkpt lat="44.50132" lon="-1.10686">
        <ele>18</ele>
        <time>2019-08-15T14:25:55Z</time>
      </trkpt>
      <trkpt lat="44.50132" lon="-1.10688">
        <ele>18</ele>
        <time>2019-08-15T14:26:00Z</time>
      </trkpt>
      <trkpt lat="44.50132" lon="-1.10688">
        <ele>18</ele>
        <time>2019-08-15T14:26:05Z</time>
      </trkpt>
      <trkpt lat="44.50133" lon="-1.10689">
        <ele>18</ele>
        <time>2019-08-15T14:26:10Z</time>
      </trkpt>
      <trkpt lat="44.50132" lon="-1.10692">
        <ele>18</ele>
        <time>2019-08-15T14:26:15Z</time>
      </trkpt>
      <trkpt lat="44.50129" lon="-1.10694">
        <ele>18</ele>
        <time>2019-08-15T14:26:20Z</time>
      </trkpt>
      <trkpt lat="44.50127" lon="-1.10693">
        <ele>18</ele>
        <time>2019-08-15T14:26:25Z</time>
      </trkpt>
      <trkpt lat="44.50125" lon="-1.10692">
        <ele>18</ele>
        <time>2019-08-15T14:26:30Z</time>
      </trkpt>
      <trkpt lat="44.50124" lon="-1.10692">
        <ele>18</ele>
        <time>2019-08-15T14:26:35Z</time>
      </trkpt>
      <trkpt lat="44.50123" lon="-1.10692">
        <ele>18</ele>
        <time>2019-08-15T14:26:40Z</time>
      </trkpt>
      <trkpt lat="44.50123" lon="-1.10692">
        <ele>18</ele>
        <time>2019-08-15T14:26:45Z</time>
      </trkpt>
      <trkpt lat="44.50124" lon="-1.10692">
        <ele>18</ele>
        <time>2019-08-15T14:26:50Z</time>
      </trkpt>
      <trkpt lat="44.50124" lon="-1.10692">
        <ele>18</ele>
        <time>2019-08-15T14:26:55Z</time>
      </trkpt>
      <trkpt lat="44.50124" lon="-1.10692">
        <ele>18</ele>
        <time>2019-08-15T14:27:00Z</time>
      </trkpt>
      <trkpt lat="44.50124" lon="-1.10692">
        <ele>18</ele>
        <time>2019-08-15T14:27:05Z</time>
      </trkpt>
      <trkpt lat="44.50124" lon="-1.10692">
        <ele>18</ele>
        <time>2019-08-15T14:27:10Z</time>
      </trkpt>
      <trkpt lat="44.50124" lon="-1.10692">
        <ele>18</ele>
        <time>2019-08-15T14:27:15Z</time>
      </trkpt>
      <trkpt lat="44.50124" lon="-1.10692">
        <ele>18</ele>
        <time>2019-08-15T14:27:20Z</time>
      </trkpt>
      <trkpt lat="44.50125" lon="-1.10692">
        <ele>18</ele>
        <time>2019-08-15T14:27:25Z</time>
      </trkpt>
      <trkpt lat="44.50125" lon="-1.10692">
        <ele>18</ele>
        <time>2019-08-15T14:27:30Z</time>
      </trkpt>
      <trkpt lat="44.50125" lon="-1.10692">
        <ele>18</ele>
        <time>2019-08-15T14:27:35Z</time>
      </trkpt>
      <trkpt lat="44.50125" lon="-1.10692">
        <ele>18</ele>
        <time>2019-08-15T14:27:40Z</time>
      </trkpt>
      <trkpt lat="44.50125" lon="-1.10692">
        <ele>18</ele>
        <time>2019-08-15T14:27:45Z</time>
      </trkpt>
      <trkpt lat="44.50124" lon="-1.10692">
        <ele>18</ele>
        <time>2019-08-15T14:27:50Z</time>
      </trkpt>
      <trkpt lat="44.50124" lon="-1.10692">
        <ele>18</ele>
        <time>2019-08-15T14:27:55Z</time>
      </trkpt>
      <trkpt lat="44.50124" lon="-1.10692">
        <ele>18</ele>
        <time>2019-08-15T14:28:00Z</time>
      </trkpt>
      <trkpt lat="44.50124" lon="-1.10692">
        <ele>18</ele>
        <time>2019-08-15T14:28:05Z</time>
      </trkpt>
      <trkpt lat="44.50124" lon="-1.10692">
        <ele>18</ele>
        <time>2019-08-15T14:28:10Z</time>
      </trkpt>
      <trkpt lat="44.50124" lon="-1.10692">
        <ele>18</ele>
        <time>2019-08-15T14:28:15Z</time>
      </trkpt>
      <trkpt lat="44.50125" lon="-1.10692">
        <ele>18</ele>
        <time>2019-08-15T14:28:20Z</time>
      </trkpt>
      <trkpt lat="44.50125" lon="-1.10692">
        <ele>18</ele>
        <time>2019-08-15T14:28:25Z</time>
      </trkpt>
      <trkpt lat="44.50125" lon="-1.10692">
        <ele>18</ele>
        <time>2019-08-15T14:28:30Z</time>
      </trkpt>
      <trkpt lat="44.50125" lon="-1.10692">
        <ele>18</ele>
        <time>2019-08-15T14:28:35Z</time>
      </trkpt>
      <trkpt lat="44.50125" lon="-1.10692">
        <ele>18</ele>
        <time>2019-08-15T14:28:40Z</time>
      </trkpt>
      <trkpt lat="44.50125" lon="-1.10692">
        <ele>18</ele>
        <time>2019-08-15T14:28:45Z</time>
      </trkpt>
      <trkpt lat="44.50125" lon="-1.10692">
        <ele>18</ele>
        <time>2019-08-15T14:28:50Z</time>
      </trkpt>
      <trkpt lat="44.50125" lon="-1.10692">
        <ele>18</ele>
        <time>2019-08-15T14:28:55Z</time>
      </trkpt>
      <trkpt lat="44.50125" lon="-1.10692">
        <ele>18</ele>
        <time>2019-08-15T14:29:00Z</time>
      </trkpt>
      <trkpt lat="44.50125" lon="-1.10692">
        <ele>18</ele>
        <time>2019-08-15T14:29:05Z</time>
      </trkpt>
      <trkpt lat="44.50125" lon="-1.10692">
        <ele>18</ele>
        <time>2019-08-15T14:29:10Z</time>
      </trkpt>
      <trkpt lat="44.50125" lon="-1.10692">
        <ele>18</ele>
        <time>2019-08-15T14:29:15Z</time>
      </trkpt>
      <trkpt lat="44.50125" lon="-1.10693">
        <ele>18</ele>
        <time>2019-08-15T14:29:20Z</time>
      </trkpt>
      <trkpt lat="44.50124" lon="-1.10693">
        <ele>18</ele>
        <time>2019-08-15T14:29:25Z</time>
      </trkpt>
      <trkpt lat="44.50124" lon="-1.10693">
        <ele>18</ele>
        <time>2019-08-15T14:29:30Z</time>
      </trkpt>
      <trkpt lat="44.50124" lon="-1.10693">
        <ele>18</ele>
        <time>2019-08-15T14:29:35Z</time>
      </trkpt>
      <trkpt lat="44.50125" lon="-1.10693">
        <ele>18</ele>
        <time>2019-08-15T14:29:40Z</time>
      </trkpt>
      <trkpt lat="44.50125" lon="-1.10695">
        <ele>18</ele>
        <time>2019-08-15T14:29:45Z</time>
      </trkpt>
      <trkpt lat="44.50125" lon="-1.10695">
        <ele>18</ele>
        <time>2019-08-15T14:29:50Z</time>
      </trkpt>
      <trkpt lat="44.50125" lon="-1.10694">
        <ele>18</ele>
        <time>2019-08-15T14:29:55Z</time>
      </trkpt>
      <trkpt lat="44.50125" lon="-1.10693">
        <ele>18</ele>
        <time>2019-08-15T14:30:00Z</time>
      </trkpt>
      <trkpt lat="44.50126" lon="-1.10692">
        <ele>18</ele>
        <time>2019-08-15T14:30:05Z</time>
      </trkpt>
      <trkpt lat="44.50124" lon="-1.10691">
        <ele>18</ele>
        <time>2019-08-15T14:30:10Z</time>
      </trkpt>
      <trkpt lat="44.50124" lon="-1.10692">
        <ele>18</ele>
        <time>2019-08-15T14:30:15Z</time>
      </trkpt>
      <trkpt lat="44.50124" lon="-1.10692">
        <ele>18</ele>
        <time>2019-08-15T14:30:20Z</time>
      </trkpt>
      <trkpt lat="44.50123" lon="-1.10691">
        <ele>18</ele>
        <time>2019-08-15T14:30:25Z</time>
      </trkpt>
      <trkpt lat="44.50122" lon="-1.1069">
        <ele>18</ele>
        <time>2019-08-15T14:30:30Z</time>
      </trkpt>
      <trkpt lat="44.50121" lon="-1.1069">
        <ele>18</ele>
        <time>2019-08-15T14:30:35Z</time>
      </trkpt>
      <trkpt lat="44.50121" lon="-1.10693">
        <ele>18</ele>
        <time>2019-08-15T14:30:40Z</time>
      </trkpt>
      <trkpt lat="44.50125" lon="-1.10694">
        <ele>18</ele>
        <time>2019-08-15T14:30:45Z</time>
      </trkpt>
      <trkpt lat="44.50128" lon="-1.10694">
        <ele>18</ele>
        <time>2019-08-15T14:30:50Z</time>
      </trkpt>
      <trkpt lat="44.5013" lon="-1.10694">
        <ele>18</ele>
        <time>2019-08-15T14:30:55Z</time>
      </trkpt>
      <trkpt lat="44.50133" lon="-1.10697">
        <ele>18</ele>
        <time>2019-08-15T14:31:00Z</time>
      </trkpt>
      <trkpt lat="44.50133" lon="-1.10701">
        <ele>18</ele>
        <time>2019-08-15T14:31:05Z</time>
      </trkpt>
      <trkpt lat="44.50131" lon="-1.10701">
        <ele>18</ele>
        <time>2019-08-15T14:31:10Z</time>
      </trkpt>
      <trkpt lat="44.50131" lon="-1.107">
        <ele>18</ele>
        <time>2019-08-15T14:31:15Z</time>
      </trkpt>
      <trkpt lat="44.5013" lon="-1.10701">
        <ele>18</ele>
        <time>2019-08-15T14:31:20Z</time>
      </trkpt>
      <trkpt lat="44.50129" lon="-1.10702">
        <ele>18</ele>
        <time>2019-08-15T14:31:25Z</time>
      </trkpt>
      <trkpt lat="44.50129" lon="-1.10701">
        <ele>18</ele>
        <time>2019-08-15T14:31:30Z</time>
      </trkpt>
      <trkpt lat="44.5013" lon="-1.10701">
        <ele>18</ele>
        <time>2019-08-15T14:31:35Z</time>
      </trkpt>
      <trkpt lat="44.5013" lon="-1.10701">
        <ele>18</ele>
        <time>2019-08-15T14:31:40Z</time>
      </trkpt>
      <trkpt lat="44.50131" lon="-1.10701">
        <ele>18</ele>
        <time>2019-08-15T14:31:45Z</time>
      </trkpt>
      <trkpt lat="44.50131" lon="-1.10701">
        <ele>18</ele>
        <time>2019-08-15T14:31:50Z</time>
      </trkpt>
      <trkpt lat="44.50131" lon="-1.10701">
        <ele>18</ele>
        <time>2019-08-15T14:31:55Z</time>
      </trkpt>
      <trkpt lat="44.50131" lon="-1.107">
        <ele>18</ele>
        <time>2019-08-15T14:32:00Z</time>
      </trkpt>
      <trkpt lat="44.50131" lon="-1.10698">
        <ele>18</ele>
        <time>2019-08-15T14:32:05Z</time>
      </trkpt>
      <trkpt lat="44.50131" lon="-1.10698">
        <ele>18</ele>
        <time>2019-08-15T14:32:10Z</time>
      </trkpt>
      <trkpt lat="44.5013" lon="-1.10697">
        <ele>18</ele>
        <time>2019-08-15T14:32:15Z</time>
      </trkpt>
      <trkpt lat="44.50129" lon="-1.10695">
        <ele>18</ele>
        <time>2019-08-15T14:32:20Z</time>
      </trkpt>
      <trkpt lat="44.50127" lon="-1.10693">
        <ele>18</ele>
        <time>2019-08-15T14:32:25Z</time>
      </trkpt>
      <trkpt lat="44.50127" lon="-1.10694">
        <ele>18</ele>
        <time>2019-08-15T14:32:30Z</time>
      </trkpt>
      <trkpt lat="44.50127" lon="-1.10692">
        <ele>18</ele>
        <time>2019-08-15T14:32:35Z</time>
      </trkpt>
      <trkpt lat="44.50127" lon="-1.10692">
        <ele>18</ele>
        <time>2019-08-15T14:32:40Z</time>
      </trkpt>
      <trkpt lat="44.50126" lon="-1.10691">
        <ele>18</ele>
        <time>2019-08-15T14:32:45Z</time>
      </trkpt>
      <trkpt lat="44.50126" lon="-1.10691">
        <ele>18</ele>
        <time>2019-08-15T14:32:50Z</time>
      </trkpt>
      <trkpt lat="44.50126" lon="-1.10691">
        <ele>18</ele>
        <time>2019-08-15T14:32:55Z</time>
      </trkpt>
      <trkpt lat="44.50126" lon="-1.10691">
        <ele>18</ele>
        <time>2019-08-15T14:33:00Z</time>
      </trkpt>
      <trkpt lat="44.50126" lon="-1.10691">
        <ele>18</ele>
        <time>2019-08-15T14:33:05Z</time>
      </trkpt>
      <trkpt lat="44.50126" lon="-1.10691">
        <ele>18</ele>
        <time>2019-08-15T14:33:10Z</time>
      </trkpt>
      <trkpt lat="44.50126" lon="-1.10691">
        <ele>18</ele>
        <time>2019-08-15T14:33:15Z</time>
      </trkpt>
      <trkpt lat="44.50126" lon="-1.10691">
        <ele>18</ele>
        <time>2019-08-15T14:33:20Z</time>
      </trkpt>
      <trkpt lat="44.50126" lon="-1.1069">
        <ele>18</ele>
        <time>2019-08-15T14:33:25Z</time>
      </trkpt>
      <trkpt lat="44.50125" lon="-1.1069">
        <ele>18</ele>
        <time>2019-08-15T14:33:30Z</time>
      </trkpt>
      <trkpt lat="44.50125" lon="-1.1069">
        <ele>18</ele>
        <time>2019-08-15T14:33:35Z</time>
      </trkpt>
      <trkpt lat="44.50125" lon="-1.1069">
        <ele>18</ele>
        <time>2019-08-15T14:33:40Z</time>
      </trkpt>
      <trkpt lat="44.50125" lon="-1.10689">
        <ele>18</ele>
        <time>2019-08-15T14:33:45Z</time>
      </trkpt>
      <trkpt lat="44.50125" lon="-1.10689">
        <ele>18</ele>
        <time>2019-08-15T14:33:50Z</time>
      </trkpt>
      <trkpt lat="44.50125" lon="-1.10689">
        <ele>18</ele>
        <time>2019-08-15T14:33:55Z</time>
      </trkpt>
      <trkpt lat="44.50125" lon="-1.10689">
        <ele>18</ele>
        <time>2019-08-15T14:34:00Z</time>
      </trkpt>
      <trkpt lat="44.50125" lon="-1.10688">
        <ele>18</ele>
        <time>2019-08-15T14:34:05Z</time>
      </trkpt>
      <trkpt lat="44.50125" lon="-1.10687">
        <ele>18</ele>
        <time>2019-08-15T14:34:10Z</time>
      </trkpt>
      <trkpt lat="44.50125" lon="-1.10686">
        <ele>18</ele>
        <time>2019-08-15T14:34:15Z</time>
      </trkpt>
      <trkpt lat="44.50124" lon="-1.10685">
        <ele>18</ele>
        <time>2019-08-15T14:34:20Z</time>
      </trkpt>
      <trkpt lat="44.50124" lon="-1.10685">
        <ele>18</ele>
        <time>2019-08-15T14:34:25Z</time>
      </trkpt>
      <trkpt lat="44.50125" lon="-1.10685">
        <ele>18</ele>
        <time>2019-08-15T14:34:30Z</time>
      </trkpt>
      <trkpt lat="44.50125" lon="-1.10686">
        <ele>18</ele>
        <time>2019-08-15T14:34:35Z</time>
      </trkpt>
      <trkpt lat="44.50125" lon="-1.10686">
        <ele>18</ele>
        <time>2019-08-15T14:34:40Z</time>
      </trkpt>
      <trkpt lat="44.50125" lon="-1.10686">
        <ele>18</ele>
        <time>2019-08-15T14:34:45Z</time>
      </trkpt>
      <trkpt lat="44.50125" lon="-1.10686">
        <ele>18</ele>
        <time>2019-08-15T14:34:50Z</time>
      </trkpt>
      <trkpt lat="44.50125" lon="-1.10686">
        <ele>18</ele>
        <time>2019-08-15T14:34:55Z</time>
      </trkpt>
      <trkpt lat="44.50125" lon="-1.10686">
        <ele>18</ele>
        <time>2019-08-15T14:35:00Z</time>
      </trkpt>
      <trkpt lat="44.50125" lon="-1.10686">
        <ele>18</ele>
        <time>2019-08-15T14:35:05Z</time>
      </trkpt>
      <trkpt lat="44.50126" lon="-1.10686">
        <ele>18</ele>
        <time>2019-08-15T14:35:10Z</time>
      </trkpt>
      <trkpt lat="44.50126" lon="-1.10686">
        <ele>18</ele>
        <time>2019-08-15T14:35:15Z</time>
      </trkpt>
      <trkpt lat="44.50126" lon="-1.10685">
        <ele>18</ele>
        <time>2019-08-15T14:35:20Z</time>
      </trkpt>
      <trkpt lat="44.50125" lon="-1.10685">
        <ele>18</ele>
        <time>2019-08-15T14:35:25Z</time>
      </trkpt>
      <trkpt lat="44.50125" lon="-1.10686">
        <ele>18</ele>
        <time>2019-08-15T14:35:30Z</time>
      </trkpt>
      <trkpt lat="44.50125" lon="-1.10688">
        <ele>18</ele>
        <time>2019-08-15T14:35:35Z</time>
      </trkpt>
      <trkpt lat="44.50125" lon="-1.10689">
        <ele>18</ele>
        <time>2019-08-15T14:35:40Z</time>
      </trkpt>
      <trkpt lat="44.50126" lon="-1.10687">
        <ele>18</ele>
        <time>2019-08-15T14:35:45Z</time>
      </trkpt>
      <trkpt lat="44.50124" lon="-1.10682">
        <ele>18</ele>
        <time>2019-08-15T14:35:50Z</time>
      </trkpt>
      <trkpt lat="44.50123" lon="-1.10682">
        <ele>18</ele>
        <time>2019-08-15T14:35:55Z</time>
      </trkpt>
      <trkpt lat="44.50123" lon="-1.10682">
        <ele>18</ele>
        <time>2019-08-15T14:36:00Z</time>
      </trkpt>
      <trkpt lat="44.50123" lon="-1.1068">
        <ele>18</ele>
        <time>2019-08-15T14:36:05Z</time>
      </trkpt>
      <trkpt lat="44.50122" lon="-1.10678">
        <ele>18</ele>
        <time>2019-08-15T14:36:10Z</time>
      </trkpt>
      <trkpt lat="44.5012" lon="-1.10678">
        <ele>18</ele>
        <time>2019-08-15T14:36:15Z</time>
      </trkpt>
      <trkpt lat="44.50115" lon="-1.10682">
        <ele>18</ele>
        <time>2019-08-15T14:36:20Z</time>
      </trkpt>
      <trkpt lat="44.5011" lon="-1.10686">
        <ele>18</ele>
        <time>2019-08-15T14:36:25Z</time>
      </trkpt>
      <trkpt lat="44.50104" lon="-1.10688">
        <ele>18</ele>
        <time>2019-08-15T14:36:30Z</time>
      </trkpt>
      <trkpt lat="44.50098" lon="-1.1069">
        <ele>18</ele>
        <time>2019-08-15T14:36:35Z</time>
      </trkpt>
      <trkpt lat="44.50092" lon="-1.10692">
        <ele>18</ele>
        <time>2019-08-15T14:36:40Z</time>
      </trkpt>
      <trkpt lat="44.50087" lon="-1.10694">
        <ele>18</ele>
        <time>2019-08-15T14:36:45Z</time>
      </trkpt>
      <trkpt lat="44.50082" lon="-1.10696">
        <ele>18</ele>
        <time>2019-08-15T14:36:50Z</time>
      </trkpt>
      <trkpt lat="44.50077" lon="-1.10698">
        <ele>18</ele>
        <time>2019-08-15T14:36:55Z</time>
      </trkpt>
      <trkpt lat="44.50071" lon="-1.10701">
        <ele>18</ele>
        <time>2019-08-15T14:37:00Z</time>
      </trkpt>
      <trkpt lat="44.50064" lon="-1.10702">
        <ele>18</ele>
        <time>2019-08-15T14:37:05Z</time>
      </trkpt>
      <trkpt lat="44.50055" lon="-1.10702">
        <ele>18</ele>
        <time>2019-08-15T14:37:10Z</time>
      </trkpt>
      <trkpt lat="44.50046" lon="-1.10702">
        <ele>18</ele>
        <time>2019-08-15T14:37:15Z</time>
      </trkpt>
      <trkpt lat="44.50036" lon="-1.10705">
        <ele>18</ele>
        <time>2019-08-15T14:37:20Z</time>
      </trkpt>
      <trkpt lat="44.50026" lon="-1.10709">
        <ele>18</ele>
        <time>2019-08-15T14:37:25Z</time>
      </trkpt>
      <trkpt lat="44.50017" lon="-1.10715">
        <ele>18</ele>
        <time>2019-08-15T14:37:30Z</time>
      </trkpt>
      <trkpt lat="44.50011" lon="-1.10722">
        <ele>18</ele>
        <time>2019-08-15T14:37:35Z</time>
      </trkpt>
      <trkpt lat="44.50004" lon="-1.10727">
        <ele>18</ele>
        <time>2019-08-15T14:37:40Z</time>
      </trkpt>
      <trkpt lat="44.49997" lon="-1.10732">
        <ele>18</ele>
        <time>2019-08-15T14:37:45Z</time>
      </trkpt>
      <trkpt lat="44.49991" lon="-1.10738">
        <ele>18</ele>
        <time>2019-08-15T14:37:50Z</time>
      </trkpt>
      <trkpt lat="44.49987" lon="-1.10744">
        <ele>18</ele>
        <time>2019-08-15T14:37:55Z</time>
      </trkpt>
      <trkpt lat="44.49982" lon="-1.10748">
        <ele>18</ele>
        <time>2019-08-15T14:38:00Z</time>
      </trkpt>
      <trkpt lat="44.49977" lon="-1.10752">
        <ele>18</ele>
        <time>2019-08-15T14:38:05Z</time>
      </trkpt>
      <trkpt lat="44.49973" lon="-1.10756">
        <ele>18</ele>
        <time>2019-08-15T14:38:10Z</time>
      </trkpt>
      <trkpt lat="44.49968" lon="-1.10759">
        <ele>18</ele>
        <time>2019-08-15T14:38:15Z</time>
      </trkpt>
      <trkpt lat="44.49964" lon="-1.10761">
        <ele>18</ele>
        <time>2019-08-15T14:38:20Z</time>
      </trkpt>
      <trkpt lat="44.4996" lon="-1.10764">
        <ele>18</ele>
        <time>2019-08-15T14:38:25Z</time>
      </trkpt>
      <trkpt lat="44.49953" lon="-1.10767">
        <ele>18</ele>
        <time>2019-08-15T14:38:30Z</time>
      </trkpt>
      <trkpt lat="44.49947" lon="-1.10772">
        <ele>18</ele>
        <time>2019-08-15T14:38:35Z</time>
      </trkpt>
      <trkpt lat="44.4994" lon="-1.10777">
        <ele>18</ele>
        <time>2019-08-15T14:38:40Z</time>
      </trkpt>
      <trkpt lat="44.49933" lon="-1.10782">
        <ele>18</ele>
        <time>2019-08-15T14:38:45Z</time>
      </trkpt>
      <trkpt lat="44.49923" lon="-1.10785">
        <ele>18</ele>
        <time>2019-08-15T14:38:50Z</time>
      </trkpt>
      <trkpt lat="44.49912" lon="-1.10791">
        <ele>18</ele>
        <time>2019-08-15T14:38:55Z</time>
      </trkpt>
      <trkpt lat="44.49901" lon="-1.10795">
        <ele>18</ele>
        <time>2019-08-15T14:39:00Z</time>
      </trkpt>
      <trkpt lat="44.49893" lon="-1.108">
        <ele>18</ele>
        <time>2019-08-15T14:39:05Z</time>
      </trkpt>
      <trkpt lat="44.49886" lon="-1.10807">
        <ele>18</ele>
        <time>2019-08-15T14:39:10Z</time>
      </trkpt>
      <trkpt lat="44.4988" lon="-1.10815">
        <ele>18</ele>
        <time>2019-08-15T14:39:15Z</time>
      </trkpt>
      <trkpt lat="44.49874" lon="-1.10823">
        <ele>18</ele>
        <time>2019-08-15T14:39:20Z</time>
      </trkpt>
      <trkpt lat="44.49867" lon="-1.1083">
        <ele>18</ele>
        <time>2019-08-15T14:39:25Z</time>
      </trkpt>
      <trkpt lat="44.49859" lon="-1.10836">
        <ele>18</ele>
        <time>2019-08-15T14:39:30Z</time>
      </trkpt>
      <trkpt lat="44.49853" lon="-1.10844">
        <ele>18</ele>
        <time>2019-08-15T14:39:35Z</time>
      </trkpt>
      <trkpt lat="44.49849" lon="-1.1085">
        <ele>18</ele>
        <time>2019-08-15T14:39:40Z</time>
      </trkpt>
      <trkpt lat="44.49843" lon="-1.10854">
        <ele>18</ele>
        <time>2019-08-15T14:39:45Z</time>
      </trkpt>
      <trkpt lat="44.49837" lon="-1.10858">
        <ele>18</ele>
        <time>2019-08-15T14:39:50Z</time>
      </trkpt>
      <trkpt lat="44.4983" lon="-1.10864">
        <ele>18</ele>
        <time>2019-08-15T14:39:55Z</time>
      </trkpt>
      <trkpt lat="44.49823" lon="-1.10871">
        <ele>18</ele>
        <time>2019-08-15T14:40:00Z</time>
      </trkpt>
      <trkpt lat="44.49817" lon="-1.10878">
        <ele>18</ele>
        <time>2019-08-15T14:40:05Z</time>
      </trkpt>
      <trkpt lat="44.4981" lon="-1.10884">
        <ele>18</ele>
        <time>2019-08-15T14:40:10Z</time>
      </trkpt>
      <trkpt lat="44.49803" lon="-1.10889">
        <ele>18</ele>
        <time>2019-08-15T14:40:15Z</time>
      </trkpt>
      <trkpt lat="44.49797" lon="-1.10894">
        <ele>18</ele>
        <time>2019-08-15T14:40:20Z</time>
      </trkpt>
      <trkpt lat="44.4979" lon="-1.10901">
        <ele>18</ele>
        <time>2019-08-15T14:40:25Z</time>
      </trkpt>
      <trkpt lat="44.49782" lon="-1.10907">
        <ele>18</ele>
        <time>2019-08-15T14:40:30Z</time>
      </trkpt>
      <trkpt lat="44.49775" lon="-1.10913">
        <ele>18</ele>
        <time>2019-08-15T14:40:35Z</time>
      </trkpt>
      <trkpt lat="44.49768" lon="-1.1092">
        <ele>18</ele>
        <time>2019-08-15T14:40:40Z</time>
      </trkpt>
      <trkpt lat="44.4976" lon="-1.10928">
        <ele>18</ele>
        <time>2019-08-15T14:40:45Z</time>
      </trkpt>
      <trkpt lat="44.49752" lon="-1.10936">
        <ele>18</ele>
        <time>2019-08-15T14:40:50Z</time>
      </trkpt>
      <trkpt lat="44.49743" lon="-1.10945">
        <ele>18</ele>
        <time>2019-08-15T14:40:55Z</time>
      </trkpt>
      <trkpt lat="44.49734" lon="-1.10953">
        <ele>18</ele>
        <time>2019-08-15T14:41:00Z</time>
      </trkpt>
      <trkpt lat="44.49725" lon="-1.10962">
        <ele>18</ele>
        <time>2019-08-15T14:41:05Z</time>
      </trkpt>
      <trkpt lat="44.49716" lon="-1.10971">
        <ele>18</ele>
        <time>2019-08-15T14:41:10Z</time>
      </trkpt>
      <trkpt lat="44.49706" lon="-1.10979">
        <ele>18</ele>
        <time>2019-08-15T14:41:15Z</time>
      </trkpt>
      <trkpt lat="44.49697" lon="-1.10985">
        <ele>18</ele>
        <time>2019-08-15T14:41:20Z</time>
      </trkpt>
      <trkpt lat="44.49688" lon="-1.10993">
        <ele>18</ele>
        <time>2019-08-15T14:41:25Z</time>
      </trkpt>
      <trkpt lat="44.49679" lon="-1.10999">
        <ele>18</ele>
        <time>2019-08-15T14:41:30Z</time>
      </trkpt>
      <trkpt lat="44.49669" lon="-1.11004">
        <ele>18</ele>
        <time>2019-08-15T14:41:35Z</time>
      </trkpt>
      <trkpt lat="44.49659" lon="-1.11009">
        <ele>18</ele>
        <time>2019-08-15T14:41:40Z</time>
      </trkpt>
      <trkpt lat="44.49649" lon="-1.11014">
        <ele>18</ele>
        <time>2019-08-15T14:41:45Z</time>
      </trkpt>
      <trkpt lat="44.49638" lon="-1.1102">
        <ele>18</ele>
        <time>2019-08-15T14:41:50Z</time>
      </trkpt>
      <trkpt lat="44.49628" lon="-1.11025">
        <ele>18</ele>
        <time>2019-08-15T14:41:55Z</time>
      </trkpt>
      <trkpt lat="44.49618" lon="-1.11032">
        <ele>18</ele>
        <time>2019-08-15T14:42:00Z</time>
      </trkpt>
      <trkpt lat="44.49607" lon="-1.1104">
        <ele>18</ele>
        <time>2019-08-15T14:42:05Z</time>
      </trkpt>
      <trkpt lat="44.49598" lon="-1.11044">
        <ele>18</ele>
        <time>2019-08-15T14:42:10Z</time>
      </trkpt>
      <trkpt lat="44.49588" lon="-1.11048">
        <ele>18</ele>
        <time>2019-08-15T14:42:15Z</time>
      </trkpt>
      <trkpt lat="44.49577" lon="-1.11051">
        <ele>18</ele>
        <time>2019-08-15T14:42:20Z</time>
      </trkpt>
      <trkpt lat="44.49568" lon="-1.11055">
        <ele>18</ele>
        <time>2019-08-15T14:42:25Z</time>
      </trkpt>
      <trkpt lat="44.49559" lon="-1.11059">
        <ele>18</ele>
        <time>2019-08-15T14:42:30Z</time>
      </trkpt>
      <trkpt lat="44.4955" lon="-1.11064">
        <ele>18</ele>
        <time>2019-08-15T14:42:35Z</time>
      </trkpt>
      <trkpt lat="44.49542" lon="-1.11069">
        <ele>18</ele>
        <time>2019-08-15T14:42:40Z</time>
      </trkpt>
      <trkpt lat="44.49534" lon="-1.11072">
        <ele>18</ele>
        <time>2019-08-15T14:42:45Z</time>
      </trkpt>
      <trkpt lat="44.49525" lon="-1.11076">
        <ele>18</ele>
        <time>2019-08-15T14:42:50Z</time>
      </trkpt>
      <trkpt lat="44.49516" lon="-1.11081">
        <ele>18</ele>
        <time>2019-08-15T14:42:55Z</time>
      </trkpt>
      <trkpt lat="44.49506" lon="-1.11085">
        <ele>18</ele>
        <time>2019-08-15T14:43:00Z</time>
      </trkpt>
      <trkpt lat="44.49497" lon="-1.1109">
        <ele>18</ele>
        <time>2019-08-15T14:43:05Z</time>
      </trkpt>
      <trkpt lat="44.49488" lon="-1.11095">
        <ele>18</ele>
        <time>2019-08-15T14:43:10Z</time>
      </trkpt>
      <trkpt lat="44.49479" lon="-1.11098">
        <ele>18</ele>
        <time>2019-08-15T14:43:15Z</time>
      </trkpt>
      <trkpt lat="44.49468" lon="-1.11102">
        <ele>18</ele>
        <time>2019-08-15T14:43:20Z</time>
      </trkpt>
      <trkpt lat="44.49459" lon="-1.11107">
        <ele>18</ele>
        <time>2019-08-15T14:43:25Z</time>
      </trkpt>
      <trkpt lat="44.4945" lon="-1.11113">
        <ele>18</ele>
        <time>2019-08-15T14:43:30Z</time>
      </trkpt>
      <trkpt lat="44.49442" lon="-1.11119">
        <ele>18</ele>
        <time>2019-08-15T14:43:35Z</time>
      </trkpt>
      <trkpt lat="44.49433" lon="-1.11126">
        <ele>18</ele>
        <time>2019-08-15T14:43:40Z</time>
      </trkpt>
      <trkpt lat="44.49425" lon="-1.11133">
        <ele>18</ele>
        <time>2019-08-15T14:43:45Z</time>
      </trkpt>
      <trkpt lat="44.49417" lon="-1.1114">
        <ele>18</ele>
        <time>2019-08-15T14:43:50Z</time>
      </trkpt>
      <trkpt lat="44.49408" lon="-1.11147">
        <ele>18</ele>
        <time>2019-08-15T14:43:55Z</time>
      </trkpt>
      <trkpt lat="44.494" lon="-1.11154">
        <ele>18</ele>
        <time>2019-08-15T14:44:00Z</time>
      </trkpt>
      <trkpt lat="44.4939" lon="-1.11159">
        <ele>18</ele>
        <time>2019-08-15T14:44:05Z</time>
      </trkpt>
      <trkpt lat="44.4938" lon="-1.11166">
        <ele>18</ele>
        <time>2019-08-15T14:44:10Z</time>
      </trkpt>
      <trkpt lat="44.4937" lon="-1.11173">
        <ele>18</ele>
        <time>2019-08-15T14:44:15Z</time>
      </trkpt>
      <trkpt lat="44.49361" lon="-1.11178">
        <ele>18</ele>
        <time>2019-08-15T14:44:20Z</time>
      </trkpt>
      <trkpt lat="44.4935" lon="-1.11183">
        <ele>18</ele>
        <time>2019-08-15T14:44:25Z</time>
      </trkpt>
      <trkpt lat="44.49339" lon="-1.1119">
        <ele>18</ele>
        <time>2019-08-15T14:44:30Z</time>
      </trkpt>
      <trkpt lat="44.49329" lon="-1.11198">
        <ele>18</ele>
        <time>2019-08-15T14:44:35Z</time>
      </trkpt>
      <trkpt lat="44.4932" lon="-1.11205">
        <ele>18</ele>
        <time>2019-08-15T14:44:40Z</time>
      </trkpt>
      <trkpt lat="44.4931" lon="-1.11211">
        <ele>18</ele>
        <time>2019-08-15T14:44:45Z</time>
      </trkpt>
      <trkpt lat="44.49299" lon="-1.11217">
        <ele>18</ele>
        <time>2019-08-15T14:44:50Z</time>
      </trkpt>
      <trkpt lat="44.49289" lon="-1.11223">
        <ele>18</ele>
        <time>2019-08-15T14:44:55Z</time>
      </trkpt>
      <trkpt lat="44.4928" lon="-1.11229">
        <ele>18</ele>
        <time>2019-08-15T14:45:00Z</time>
      </trkpt>
      <trkpt lat="44.49271" lon="-1.11233">
        <ele>18</ele>
        <time>2019-08-15T14:45:05Z</time>
      </trkpt>
      <trkpt lat="44.49264" lon="-1.11237">
        <ele>18</ele>
        <time>2019-08-15T14:45:10Z</time>
      </trkpt>
      <trkpt lat="44.49256" lon="-1.11241">
        <ele>18</ele>
        <time>2019-08-15T14:45:15Z</time>
      </trkpt>
      <trkpt lat="44.49248" lon="-1.11245">
        <ele>18</ele>
        <time>2019-08-15T14:45:20Z</time>
      </trkpt>
      <trkpt lat="44.49239" lon="-1.11248">
        <ele>18</ele>
        <time>2019-08-15T14:45:25Z</time>
      </trkpt>
      <trkpt lat="44.49229" lon="-1.11252">
        <ele>18</ele>
        <time>2019-08-15T14:45:30Z</time>
      </trkpt>
      <trkpt lat="44.4922" lon="-1.11256">
        <ele>18</ele>
        <time>2019-08-15T14:45:35Z</time>
      </trkpt>
      <trkpt lat="44.49212" lon="-1.11261">
        <ele>18</ele>
        <time>2019-08-15T14:45:40Z</time>
      </trkpt>
      <trkpt lat="44.49204" lon="-1.11265">
        <ele>18</ele>
        <time>2019-08-15T14:45:45Z</time>
      </trkpt>
      <trkpt lat="44.49196" lon="-1.11268">
        <ele>18</ele>
        <time>2019-08-15T14:45:50Z</time>
      </trkpt>
      <trkpt lat="44.49187" lon="-1.11271">
        <ele>18</ele>
        <time>2019-08-15T14:45:55Z</time>
      </trkpt>
      <trkpt lat="44.49176" lon="-1.11273">
        <ele>18</ele>
        <time>2019-08-15T14:46:00Z</time>
      </trkpt>
      <trkpt lat="44.49165" lon="-1.11276">
        <ele>18</ele>
        <time>2019-08-15T14:46:05Z</time>
      </trkpt>
      <trkpt lat="44.49155" lon="-1.11279">
        <ele>18</ele>
        <time>2019-08-15T14:46:10Z</time>
      </trkpt>
      <trkpt lat="44.49144" lon="-1.11282">
        <ele>18</ele>
        <time>2019-08-15T14:46:15Z</time>
      </trkpt>
      <trkpt lat="44.49133" lon="-1.11286">
        <ele>18</ele>
        <time>2019-08-15T14:46:20Z</time>
      </trkpt>
      <trkpt lat="44.49121" lon="-1.1129">
        <ele>18</ele>
        <time>2019-08-15T14:46:25Z</time>
      </trkpt>
      <trkpt lat="44.4911" lon="-1.11295">
        <ele>18</ele>
        <time>2019-08-15T14:46:30Z</time>
      </trkpt>
      <trkpt lat="44.491" lon="-1.11301">
        <ele>18</ele>
        <time>2019-08-15T14:46:35Z</time>
      </trkpt>
      <trkpt lat="44.49089" lon="-1.11305">
        <ele>18</ele>
        <time>2019-08-15T14:46:40Z</time>
      </trkpt>
      <trkpt lat="44.49079" lon="-1.11311">
        <ele>18</ele>
        <time>2019-08-15T14:46:45Z</time>
      </trkpt>
      <trkpt lat="44.49071" lon="-1.11317">
        <ele>18</ele>
        <time>2019-08-15T14:46:50Z</time>
      </trkpt>
      <trkpt lat="44.49061" lon="-1.11322">
        <ele>18</ele>
        <time>2019-08-15T14:46:55Z</time>
      </trkpt>
      <trkpt lat="44.49052" lon="-1.11327">
        <ele>18</ele>
        <time>2019-08-15T14:47:00Z</time>
      </trkpt>
      <trkpt lat="44.49043" lon="-1.11331">
        <ele>18</ele>
        <time>2019-08-15T14:47:05Z</time>
      </trkpt>
      <trkpt lat="44.49036" lon="-1.11336">
        <ele>18</ele>
        <time>2019-08-15T14:47:10Z</time>
      </trkpt>
      <trkpt lat="44.49027" lon="-1.11342">
        <ele>18</ele>
        <time>2019-08-15T14:47:15Z</time>
      </trkpt>
      <trkpt lat="44.49018" lon="-1.11347">
        <ele>18</ele>
        <time>2019-08-15T14:47:20Z</time>
      </trkpt>
      <trkpt lat="44.49008" lon="-1.11353">
        <ele>18</ele>
        <time>2019-08-15T14:47:25Z</time>
      </trkpt>
      <trkpt lat="44.48998" lon="-1.11359">
        <ele>18</ele>
        <time>2019-08-15T14:47:30Z</time>
      </trkpt>
      <trkpt lat="44.48989" lon="-1.11366">
        <ele>18</ele>
        <time>2019-08-15T14:47:35Z</time>
      </trkpt>
      <trkpt lat="44.48981" lon="-1.11373">
        <ele>18</ele>
        <time>2019-08-15T14:47:40Z</time>
      </trkpt>
      <trkpt lat="44.48972" lon="-1.1138">
        <ele>18</ele>
        <time>2019-08-15T14:47:45Z</time>
      </trkpt>
      <trkpt lat="44.48966" lon="-1.11388">
        <ele>18</ele>
        <time>2019-08-15T14:47:50Z</time>
      </trkpt>
      <trkpt lat="44.48961" lon="-1.11394">
        <ele>18</ele>
        <time>2019-08-15T14:47:55Z</time>
      </trkpt>
      <trkpt lat="44.48956" lon="-1.11398">
        <ele>18</ele>
        <time>2019-08-15T14:48:00Z</time>
      </trkpt>
      <trkpt lat="44.4895" lon="-1.11403">
        <ele>18</ele>
        <time>2019-08-15T14:48:05Z</time>
      </trkpt>
      <trkpt lat="44.48944" lon="-1.11408">
        <ele>18</ele>
        <time>2019-08-15T14:48:10Z</time>
      </trkpt>
      <trkpt lat="44.48938" lon="-1.11413">
        <ele>18</ele>
        <time>2019-08-15T14:48:15Z</time>
      </trkpt>
      <trkpt lat="44.48933" lon="-1.1142">
        <ele>18</ele>
        <time>2019-08-15T14:48:20Z</time>
      </trkpt>
      <trkpt lat="44.48934" lon="-1.11427">
        <ele>18</ele>
        <time>2019-08-15T14:48:25Z</time>
      </trkpt>
      <trkpt lat="44.48936" lon="-1.11429">
        <ele>18</ele>
        <time>2019-08-15T14:48:30Z</time>
      </trkpt>
      <trkpt lat="44.48938" lon="-1.1143">
        <ele>18</ele>
        <time>2019-08-15T14:48:35Z</time>
      </trkpt>
      <trkpt lat="44.48943" lon="-1.11433">
        <ele>18</ele>
        <time>2019-08-15T14:48:40Z</time>
      </trkpt>
      <trkpt lat="44.48951" lon="-1.11435">
        <ele>18</ele>
        <time>2019-08-15T14:48:45Z</time>
      </trkpt>
      <trkpt lat="44.48962" lon="-1.11425">
        <ele>18</ele>
        <time>2019-08-15T14:48:50Z</time>
      </trkpt>
      <trkpt lat="44.48967" lon="-1.1141">
        <ele>18</ele>
        <time>2019-08-15T14:48:55Z</time>
      </trkpt>
      <trkpt lat="44.48971" lon="-1.11395">
        <ele>18</ele>
        <time>2019-08-15T14:49:00Z</time>
      </trkpt>
      <trkpt lat="44.48976" lon="-1.11381">
        <ele>18</ele>
        <time>2019-08-15T14:49:05Z</time>
      </trkpt>
      <trkpt lat="44.48981" lon="-1.11365">
        <ele>18</ele>
        <time>2019-08-15T14:49:10Z</time>
      </trkpt>
      <trkpt lat="44.48987" lon="-1.11352">
        <ele>18</ele>
        <time>2019-08-15T14:49:15Z</time>
      </trkpt>
      <trkpt lat="44.48992" lon="-1.11339">
        <ele>18</ele>
        <time>2019-08-15T14:49:20Z</time>
      </trkpt>
      <trkpt lat="44.48998" lon="-1.11326">
        <ele>18</ele>
        <time>2019-08-15T14:49:25Z</time>
      </trkpt>
      <trkpt lat="44.49004" lon="-1.11314">
        <ele>18</ele>
        <time>2019-08-15T14:49:30Z</time>
      </trkpt>
      <trkpt lat="44.49012" lon="-1.11302">
        <ele>18</ele>
        <time>2019-08-15T14:49:35Z</time>
      </trkpt>
      <trkpt lat="44.49019" lon="-1.1129">
        <ele>18</ele>
        <time>2019-08-15T14:49:40Z</time>
      </trkpt>
      <trkpt lat="44.49027" lon="-1.11278">
        <ele>18</ele>
        <time>2019-08-15T14:49:45Z</time>
      </trkpt>
      <trkpt lat="44.49035" lon="-1.11266">
        <ele>18</ele>
        <time>2019-08-15T14:49:50Z</time>
      </trkpt>
      <trkpt lat="44.49042" lon="-1.11252">
        <ele>18</ele>
        <time>2019-08-15T14:49:55Z</time>
      </trkpt>
      <trkpt lat="44.49046" lon="-1.11237">
        <ele>18</ele>
        <time>2019-08-15T14:50:00Z</time>
      </trkpt>
      <trkpt lat="44.49049" lon="-1.11223">
        <ele>18</ele>
        <time>2019-08-15T14:50:05Z</time>
      </trkpt>
      <trkpt lat="44.49053" lon="-1.11208">
        <ele>18</ele>
        <time>2019-08-15T14:50:10Z</time>
      </trkpt>
      <trkpt lat="44.49057" lon="-1.11194">
        <ele>18</ele>
        <time>2019-08-15T14:50:15Z</time>
      </trkpt>
      <trkpt lat="44.4906" lon="-1.11179">
        <ele>18</ele>
        <time>2019-08-15T14:50:20Z</time>
      </trkpt>
      <trkpt lat="44.49063" lon="-1.11165">
        <ele>18</ele>
        <time>2019-08-15T14:50:25Z</time>
      </trkpt>
      <trkpt lat="44.49066" lon="-1.1115">
        <ele>18</ele>
        <time>2019-08-15T14:50:30Z</time>
      </trkpt>
      <trkpt lat="44.49068" lon="-1.11136">
        <ele>18</ele>
        <time>2019-08-15T14:50:35Z</time>
      </trkpt>
      <trkpt lat="44.49069" lon="-1.11121">
        <ele>18</ele>
        <time>2019-08-15T14:50:40Z</time>
      </trkpt>
      <trkpt lat="44.4907" lon="-1.11105">
        <ele>18</ele>
        <time>2019-08-15T14:50:45Z</time>
      </trkpt>
      <trkpt lat="44.49072" lon="-1.11091">
        <ele>18</ele>
        <time>2019-08-15T14:50:50Z</time>
      </trkpt>
      <trkpt lat="44.49072" lon="-1.11075">
        <ele>18</ele>
        <time>2019-08-15T14:50:55Z</time>
      </trkpt>
      <trkpt lat="44.49072" lon="-1.11059">
        <ele>18</ele>
        <time>2019-08-15T14:51:00Z</time>
      </trkpt>
      <trkpt lat="44.49074" lon="-1.11043">
        <ele>18</ele>
        <time>2019-08-15T14:51:05Z</time>
      </trkpt>
      <trkpt lat="44.49076" lon="-1.11026">
        <ele>18</ele>
        <time>2019-08-15T14:51:10Z</time>
      </trkpt>
      <trkpt lat="44.49079" lon="-1.1101">
        <ele>18</ele>
        <time>2019-08-15T14:51:15Z</time>
      </trkpt>
      <trkpt lat="44.4908" lon="-1.10994">
        <ele>18</ele>
        <time>2019-08-15T14:51:20Z</time>
      </trkpt>
      <trkpt lat="44.49083" lon="-1.10979">
        <ele>18</ele>
        <time>2019-08-15T14:51:25Z</time>
      </trkpt>
      <trkpt lat="44.49087" lon="-1.10963">
        <ele>18</ele>
        <time>2019-08-15T14:51:30Z</time>
      </trkpt>
      <trkpt lat="44.49091" lon="-1.10948">
        <ele>18</ele>
        <time>2019-08-15T14:51:35Z</time>
      </trkpt>
      <trkpt lat="44.49095" lon="-1.10933">
        <ele>18</ele>
        <time>2019-08-15T14:51:40Z</time>
      </trkpt>
      <trkpt lat="44.49099" lon="-1.10919">
        <ele>18</ele>
        <time>2019-08-15T14:51:45Z</time>
      </trkpt>
      <trkpt lat="44.49104" lon="-1.10905">
        <ele>18</ele>
        <time>2019-08-15T14:51:50Z</time>
      </trkpt>
      <trkpt lat="44.49109" lon="-1.10891">
        <ele>18</ele>
        <time>2019-08-15T14:51:55Z</time>
      </trkpt>
      <trkpt lat="44.49114" lon="-1.10877">
        <ele>18</ele>
        <time>2019-08-15T14:52:00Z</time>
      </trkpt>
      <trkpt lat="44.49121" lon="-1.10864">
        <ele>18</ele>
        <time>2019-08-15T14:52:05Z</time>
      </trkpt>
      <trkpt lat="44.49126" lon="-1.10851">
        <ele>18</ele>
        <time>2019-08-15T14:52:10Z</time>
      </trkpt>
      <trkpt lat="44.49129" lon="-1.10838">
        <ele>18</ele>
        <time>2019-08-15T14:52:15Z</time>
      </trkpt>
      <trkpt lat="44.49132" lon="-1.10825">
        <ele>18</ele>
        <time>2019-08-15T14:52:20Z</time>
      </trkpt>
      <trkpt lat="44.49134" lon="-1.10813">
        <ele>18</ele>
        <time>2019-08-15T14:52:25Z</time>
      </trkpt>
      <trkpt lat="44.49136" lon="-1.10802">
        <ele>18</ele>
        <time>2019-08-15T14:52:30Z</time>
      </trkpt>
      <trkpt lat="44.49138" lon="-1.1079">
        <ele>18</ele>
        <time>2019-08-15T14:52:35Z</time>
      </trkpt>
      <trkpt lat="44.4914" lon="-1.10777">
        <ele>18</ele>
        <time>2019-08-15T14:52:40Z</time>
      </trkpt>
      <trkpt lat="44.49145" lon="-1.10761">
        <ele>18</ele>
        <time>2019-08-15T14:52:45Z</time>
      </trkpt>
      <trkpt lat="44.4915" lon="-1.10746">
        <ele>18</ele>
        <time>2019-08-15T14:52:50Z</time>
      </trkpt>
      <trkpt lat="44.49153" lon="-1.1073">
        <ele>18</ele>
        <time>2019-08-15T14:52:55Z</time>
      </trkpt>
      <trkpt lat="44.49153" lon="-1.10715">
        <ele>18</ele>
        <time>2019-08-15T14:53:00Z</time>
      </trkpt>
      <trkpt lat="44.49155" lon="-1.10699">
        <ele>18</ele>
        <time>2019-08-15T14:53:05Z</time>
      </trkpt>
      <trkpt lat="44.49157" lon="-1.10683">
        <ele>18</ele>
        <time>2019-08-15T14:53:10Z</time>
      </trkpt>
      <trkpt lat="44.49159" lon="-1.10665">
        <ele>18</ele>
        <time>2019-08-15T14:53:15Z</time>
      </trkpt>
      <trkpt lat="44.49162" lon="-1.10648">
        <ele>18</ele>
        <time>2019-08-15T14:53:20Z</time>
      </trkpt>
      <trkpt lat="44.49166" lon="-1.10631">
        <ele>18</ele>
        <time>2019-08-15T14:53:25Z</time>
      </trkpt>
      <trkpt lat="44.4917" lon="-1.10614">
        <ele>18</ele>
        <time>2019-08-15T14:53:30Z</time>
      </trkpt>
      <trkpt lat="44.49173" lon="-1.10597">
        <ele>18</ele>
        <time>2019-08-15T14:53:35Z</time>
      </trkpt>
      <trkpt lat="44.49177" lon="-1.10582">
        <ele>18</ele>
        <time>2019-08-15T14:53:40Z</time>
      </trkpt>
      <trkpt lat="44.4918" lon="-1.10566">
        <ele>18</ele>
        <time>2019-08-15T14:53:45Z</time>
      </trkpt>
      <trkpt lat="44.49184" lon="-1.10549">
        <ele>18</ele>
        <time>2019-08-15T14:53:50Z</time>
      </trkpt>
      <trkpt lat="44.49187" lon="-1.10532">
        <ele>18</ele>
        <time>2019-08-15T14:53:55Z</time>
      </trkpt>
      <trkpt lat="44.4919" lon="-1.10516">
        <ele>18</ele>
        <time>2019-08-15T14:54:00Z</time>
      </trkpt>
      <trkpt lat="44.49192" lon="-1.105">
        <ele>18</ele>
        <time>2019-08-15T14:54:05Z</time>
      </trkpt>
      <trkpt lat="44.49195" lon="-1.10485">
        <ele>18</ele>
        <time>2019-08-15T14:54:10Z</time>
      </trkpt>
      <trkpt lat="44.49199" lon="-1.1047">
        <ele>18</ele>
        <time>2019-08-15T14:54:15Z</time>
      </trkpt>
      <trkpt lat="44.49201" lon="-1.10454">
        <ele>18</ele>
        <time>2019-08-15T14:54:20Z</time>
      </trkpt>
      <trkpt lat="44.49203" lon="-1.10439">
        <ele>18</ele>
        <time>2019-08-15T14:54:25Z</time>
      </trkpt>
      <trkpt lat="44.49205" lon="-1.10425">
        <ele>18</ele>
        <time>2019-08-15T14:54:30Z</time>
      </trkpt>
      <trkpt lat="44.49208" lon="-1.1041">
        <ele>18</ele>
        <time>2019-08-15T14:54:35Z</time>
      </trkpt>
      <trkpt lat="44.49215" lon="-1.10396">
        <ele>18</ele>
        <time>2019-08-15T14:54:40Z</time>
      </trkpt>
      <trkpt lat="44.49226" lon="-1.10385">
        <ele>18</ele>
        <time>2019-08-15T14:54:45Z</time>
      </trkpt>
      <trkpt lat="44.49236" lon="-1.10375">
        <ele>18</ele>
        <time>2019-08-15T14:54:50Z</time>
      </trkpt>
      <trkpt lat="44.49246" lon="-1.10363">
        <ele>18</ele>
        <time>2019-08-15T14:54:55Z</time>
      </trkpt>
      <trkpt lat="44.49256" lon="-1.10352">
        <ele>18</ele>
        <time>2019-08-15T14:55:00Z</time>
      </trkpt>
      <trkpt lat="44.49269" lon="-1.10349">
        <ele>18</ele>
        <time>2019-08-15T14:55:05Z</time>
      </trkpt>
      <trkpt lat="44.49282" lon="-1.10347">
        <ele>18</ele>
        <time>2019-08-15T14:55:10Z</time>
      </trkpt>
      <trkpt lat="44.49295" lon="-1.10341">
        <ele>18</ele>
        <time>2019-08-15T14:55:15Z</time>
      </trkpt>
      <trkpt lat="44.49306" lon="-1.1033">
        <ele>18</ele>
        <time>2019-08-15T14:55:20Z</time>
      </trkpt>
      <trkpt lat="44.49311" lon="-1.10316">
        <ele>18</ele>
        <time>2019-08-15T14:55:25Z</time>
      </trkpt>
      <trkpt lat="44.49314" lon="-1.10303">
        <ele>18</ele>
        <time>2019-08-15T14:55:30Z</time>
      </trkpt>
      <trkpt lat="44.49316" lon="-1.10289">
        <ele>18</ele>
        <time>2019-08-15T14:55:35Z</time>
      </trkpt>
      <trkpt lat="44.49316" lon="-1.10277">
        <ele>18</ele>
        <time>2019-08-15T14:55:40Z</time>
      </trkpt>
      <trkpt lat="44.49316" lon="-1.10265">
        <ele>18</ele>
        <time>2019-08-15T14:55:45Z</time>
      </trkpt>
      <trkpt lat="44.49313" lon="-1.10253">
        <ele>18</ele>
        <time>2019-08-15T14:55:50Z</time>
      </trkpt>
      <trkpt lat="44.49309" lon="-1.1024">
        <ele>18</ele>
        <time>2019-08-15T14:55:55Z</time>
      </trkpt>
      <trkpt lat="44.49305" lon="-1.10226">
        <ele>18</ele>
        <time>2019-08-15T14:56:00Z</time>
      </trkpt>
      <trkpt lat="44.493" lon="-1.1021">
        <ele>18</ele>
        <time>2019-08-15T14:56:05Z</time>
      </trkpt>
      <trkpt lat="44.49295" lon="-1.10194">
        <ele>18</ele>
        <time>2019-08-15T14:56:10Z</time>
      </trkpt>
      <trkpt lat="44.4929" lon="-1.10179">
        <ele>18</ele>
        <time>2019-08-15T14:56:15Z</time>
      </trkpt>
      <trkpt lat="44.49284" lon="-1.10164">
        <ele>18</ele>
        <time>2019-08-15T14:56:20Z</time>
      </trkpt>
      <trkpt lat="44.49279" lon="-1.10149">
        <ele>18</ele>
        <time>2019-08-15T14:56:25Z</time>
      </trkpt>
      <trkpt lat="44.49273" lon="-1.10133">
        <ele>18</ele>
        <time>2019-08-15T14:56:30Z</time>
      </trkpt>
      <trkpt lat="44.49267" lon="-1.10119">
        <ele>18</ele>
        <time>2019-08-15T14:56:35Z</time>
      </trkpt>
      <trkpt lat="44.49261" lon="-1.10104">
        <ele>18</ele>
        <time>2019-08-15T14:56:40Z</time>
      </trkpt>
      <trkpt lat="44.49256" lon="-1.10088">
        <ele>18</ele>
        <time>2019-08-15T14:56:45Z</time>
      </trkpt>
      <trkpt lat="44.49252" lon="-1.10071">
        <ele>18</ele>
        <time>2019-08-15T14:56:50Z</time>
      </trkpt>
      <trkpt lat="44.49249" lon="-1.10054">
        <ele>18</ele>
        <time>2019-08-15T14:56:55Z</time>
      </trkpt>
      <trkpt lat="44.49245" lon="-1.10037">
        <ele>18</ele>
        <time>2019-08-15T14:57:00Z</time>
      </trkpt>
      <trkpt lat="44.49242" lon="-1.10022">
        <ele>18</ele>
        <time>2019-08-15T14:57:05Z</time>
      </trkpt>
      <trkpt lat="44.49237" lon="-1.10005">
        <ele>18</ele>
        <time>2019-08-15T14:57:10Z</time>
      </trkpt>
      <trkpt lat="44.49233" lon="-1.09987">
        <ele>18</ele>
        <time>2019-08-15T14:57:15Z</time>
      </trkpt>
      <trkpt lat="44.4923" lon="-1.0997">
        <ele>18</ele>
        <time>2019-08-15T14:57:20Z</time>
      </trkpt>
      <trkpt lat="44.49228" lon="-1.09955">
        <ele>18</ele>
        <time>2019-08-15T14:57:25Z</time>
      </trkpt>
      <trkpt lat="44.49227" lon="-1.09939">
        <ele>18</ele>
        <time>2019-08-15T14:57:30Z</time>
      </trkpt>
      <trkpt lat="44.49223" lon="-1.09925">
        <ele>18</ele>
        <time>2019-08-15T14:57:35Z</time>
      </trkpt>
      <trkpt lat="44.49221" lon="-1.09909">
        <ele>18</ele>
        <time>2019-08-15T14:57:40Z</time>
      </trkpt>
      <trkpt lat="44.49219" lon="-1.09893">
        <ele>18</ele>
        <time>2019-08-15T14:57:45Z</time>
      </trkpt>
      <trkpt lat="44.49216" lon="-1.09879">
        <ele>18</ele>
        <time>2019-08-15T14:57:50Z</time>
      </trkpt>
      <trkpt lat="44.49214" lon="-1.09864">
        <ele>18</ele>
        <time>2019-08-15T14:57:55Z</time>
      </trkpt>
      <trkpt lat="44.49213" lon="-1.09849">
        <ele>18</ele>
        <time>2019-08-15T14:58:00Z</time>
      </trkpt>
      <trkpt lat="44.49211" lon="-1.09833">
        <ele>18</ele>
        <time>2019-08-15T14:58:05Z</time>
      </trkpt>
      <trkpt lat="44.49209" lon="-1.09818">
        <ele>18</ele>
        <time>2019-08-15T14:58:10Z</time>
      </trkpt>
      <trkpt lat="44.49207" lon="-1.09803">
        <ele>18</ele>
        <time>2019-08-15T14:58:15Z</time>
      </trkpt>
      <trkpt lat="44.49205" lon="-1.09788">
        <ele>18</ele>
        <time>2019-08-15T14:58:20Z</time>
      </trkpt>
      <trkpt lat="44.49204" lon="-1.09774">
        <ele>18</ele>
        <time>2019-08-15T14:58:25Z</time>
      </trkpt>
      <trkpt lat="44.49203" lon="-1.09761">
        <ele>18</ele>
        <time>2019-08-15T14:58:30Z</time>
      </trkpt>
      <trkpt lat="44.49201" lon="-1.09747">
        <ele>18</ele>
        <time>2019-08-15T14:58:35Z</time>
      </trkpt>
      <trkpt lat="44.492" lon="-1.09734">
        <ele>18</ele>
        <time>2019-08-15T14:58:40Z</time>
      </trkpt>
      <trkpt lat="44.49198" lon="-1.09719">
        <ele>18</ele>
        <time>2019-08-15T14:58:45Z</time>
      </trkpt>
      <trkpt lat="44.49196" lon="-1.09705">
        <ele>18</ele>
        <time>2019-08-15T14:58:50Z</time>
      </trkpt>
      <trkpt lat="44.49194" lon="-1.09689">
        <ele>18</ele>
        <time>2019-08-15T14:58:55Z</time>
      </trkpt>
      <trkpt lat="44.49193" lon="-1.09675">
        <ele>18</ele>
        <time>2019-08-15T14:59:00Z</time>
      </trkpt>
      <trkpt lat="44.49192" lon="-1.09659">
        <ele>18</ele>
        <time>2019-08-15T14:59:05Z</time>
      </trkpt>
      <trkpt lat="44.49191" lon="-1.09644">
        <ele>18</ele>
        <time>2019-08-15T14:59:10Z</time>
      </trkpt>
      <trkpt lat="44.49191" lon="-1.09629">
        <ele>18</ele>
        <time>2019-08-15T14:59:15Z</time>
      </trkpt>
      <trkpt lat="44.49192" lon="-1.09614">
        <ele>18</ele>
        <time>2019-08-15T14:59:20Z</time>
      </trkpt>
      <trkpt lat="44.49192" lon="-1.09599">
        <ele>18</ele>
        <time>2019-08-15T14:59:25Z</time>
      </trkpt>
      <trkpt lat="44.49193" lon="-1.09584">
        <ele>18</ele>
        <time>2019-08-15T14:59:30Z</time>
      </trkpt>
      <trkpt lat="44.49194" lon="-1.09568">
        <ele>18</ele>
        <time>2019-08-15T14:59:35Z</time>
      </trkpt>
      <trkpt lat="44.49195" lon="-1.09553">
        <ele>18</ele>
        <time>2019-08-15T14:59:40Z</time>
      </trkpt>
      <trkpt lat="44.49196" lon="-1.09538">
        <ele>18</ele>
        <time>2019-08-15T14:59:45Z</time>
      </trkpt>
      <trkpt lat="44.49197" lon="-1.09523">
        <ele>18</ele>
        <time>2019-08-15T14:59:50Z</time>
      </trkpt>
      <trkpt lat="44.49197" lon="-1.09508">
        <ele>18</ele>
        <time>2019-08-15T14:59:55Z</time>
      </trkpt>
      <trkpt lat="44.49197" lon="-1.09492">
        <ele>18</ele>
        <time>2019-08-15T15:00:00Z</time>
      </trkpt>
      <trkpt lat="44.49196" lon="-1.09476">
        <ele>18</ele>
        <time>2019-08-15T15:00:05Z</time>
      </trkpt>
      <trkpt lat="44.49196" lon="-1.09461">
        <ele>18</ele>
        <time>2019-08-15T15:00:10Z</time>
      </trkpt>
      <trkpt lat="44.49195" lon="-1.09446">
        <ele>18</ele>
        <time>2019-08-15T15:00:15Z</time>
      </trkpt>
      <trkpt lat="44.49196" lon="-1.09433">
        <ele>18</ele>
        <time>2019-08-15T15:00:20Z</time>
      </trkpt>
      <trkpt lat="44.49196" lon="-1.09419">
        <ele>18</ele>
        <time>2019-08-15T15:00:25Z</time>
      </trkpt>
      <trkpt lat="44.49194" lon="-1.09404">
        <ele>18</ele>
        <time>2019-08-15T15:00:30Z</time>
      </trkpt>
      <trkpt lat="44.49193" lon="-1.09391">
        <ele>18</ele>
        <time>2019-08-15T15:00:35Z</time>
      </trkpt>
      <trkpt lat="44.49193" lon="-1.09377">
        <ele>18</ele>
        <time>2019-08-15T15:00:40Z</time>
      </trkpt>
      <trkpt lat="44.49192" lon="-1.09363">
        <ele>18</ele>
        <time>2019-08-15T15:00:45Z</time>
      </trkpt>
      <trkpt lat="44.49192" lon="-1.09348">
        <ele>18</ele>
        <time>2019-08-15T15:00:50Z</time>
      </trkpt>
      <trkpt lat="44.49192" lon="-1.09334">
        <ele>18</ele>
        <time>2019-08-15T15:00:55Z</time>
      </trkpt>
      <trkpt lat="44.49193" lon="-1.09321">
        <ele>18</ele>
        <time>2019-08-15T15:01:00Z</time>
      </trkpt>
      <trkpt lat="44.49192" lon="-1.09306">
        <ele>18</ele>
        <time>2019-08-15T15:01:05Z</time>
      </trkpt>
      <trkpt lat="44.49191" lon="-1.09292">
        <ele>18</ele>
        <time>2019-08-15T15:01:10Z</time>
      </trkpt>
      <trkpt lat="44.4919" lon="-1.09278">
        <ele>18</ele>
        <time>2019-08-15T15:01:15Z</time>
      </trkpt>
      <trkpt lat="44.49189" lon="-1.09264">
        <ele>18</ele>
        <time>2019-08-15T15:01:20Z</time>
      </trkpt>
      <trkpt lat="44.49187" lon="-1.09251">
        <ele>18</ele>
        <time>2019-08-15T15:01:25Z</time>
      </trkpt>
      <trkpt lat="44.49185" lon="-1.09237">
        <ele>18</ele>
        <time>2019-08-15T15:01:30Z</time>
      </trkpt>
      <trkpt lat="44.49182" lon="-1.09222">
        <ele>18</ele>
        <time>2019-08-15T15:01:35Z</time>
      </trkpt>
      <trkpt lat="44.49178" lon="-1.09205">
        <ele>18</ele>
        <time>2019-08-15T15:01:40Z</time>
      </trkpt>
      <trkpt lat="44.49173" lon="-1.09189">
        <ele>18</ele>
        <time>2019-08-15T15:01:45Z</time>
      </trkpt>
      <trkpt lat="44.49168" lon="-1.09173">
        <ele>18</ele>
        <time>2019-08-15T15:01:50Z</time>
      </trkpt>
      <trkpt lat="44.49162" lon="-1.09156">
        <ele>18</ele>
        <time>2019-08-15T15:01:55Z</time>
      </trkpt>
      <trkpt lat="44.49157" lon="-1.0914">
        <ele>18</ele>
        <time>2019-08-15T15:02:00Z</time>
      </trkpt>
      <trkpt lat="44.49151" lon="-1.09125">
        <ele>18</ele>
        <time>2019-08-15T15:02:05Z</time>
      </trkpt>
      <trkpt lat="44.49145" lon="-1.09111">
        <ele>18</ele>
        <time>2019-08-15T15:02:10Z</time>
      </trkpt>
      <trkpt lat="44.49135" lon="-1.09101">
        <ele>18</ele>
        <time>2019-08-15T15:02:15Z</time>
      </trkpt>
      <trkpt lat="44.49126" lon="-1.09095">
        <ele>18</ele>
        <time>2019-08-15T15:02:20Z</time>
      </trkpt>
      <trkpt lat="44.49117" lon="-1.09087">
        <ele>18</ele>
        <time>2019-08-15T15:02:25Z</time>
      </trkpt>
      <trkpt lat="44.49108" lon="-1.09079">
        <ele>18</ele>
        <time>2019-08-15T15:02:30Z</time>
      </trkpt>
      <trkpt lat="44.49099" lon="-1.0907">
        <ele>18</ele>
        <time>2019-08-15T15:02:35Z</time>
      </trkpt>
      <trkpt lat="44.4909" lon="-1.09057">
        <ele>18</ele>
        <time>2019-08-15T15:02:40Z</time>
      </trkpt>
      <trkpt lat="44.49084" lon="-1.09038">
        <ele>18</ele>
        <time>2019-08-15T15:02:45Z</time>
      </trkpt>
      <trkpt lat="44.49081" lon="-1.0902">
        <ele>18</ele>
        <time>2019-08-15T15:02:50Z</time>
      </trkpt>
      <trkpt lat="44.49079" lon="-1.09003">
        <ele>18</ele>
        <time>2019-08-15T15:02:55Z</time>
      </trkpt>
      <trkpt lat="44.49078" lon="-1.08986">
        <ele>18</ele>
        <time>2019-08-15T15:03:00Z</time>
      </trkpt>
      <trkpt lat="44.49079" lon="-1.08969">
        <ele>18</ele>
        <time>2019-08-15T15:03:05Z</time>
      </trkpt>
      <trkpt lat="44.4908" lon="-1.08953">
        <ele>18</ele>
        <time>2019-08-15T15:03:10Z</time>
      </trkpt>
      <trkpt lat="44.49082" lon="-1.08939">
        <ele>18</ele>
        <time>2019-08-15T15:03:15Z</time>
      </trkpt>
      <trkpt lat="44.49084" lon="-1.08925">
        <ele>18</ele>
        <time>2019-08-15T15:03:20Z</time>
      </trkpt>
      <trkpt lat="44.49086" lon="-1.08911">
        <ele>18</ele>
        <time>2019-08-15T15:03:25Z</time>
      </trkpt>
      <trkpt lat="44.49088" lon="-1.08896">
        <ele>18</ele>
        <time>2019-08-15T15:03:30Z</time>
      </trkpt>
      <trkpt lat="44.4909" lon="-1.08881">
        <ele>18</ele>
        <time>2019-08-15T15:03:35Z</time>
      </trkpt>
      <trkpt lat="44.49092" lon="-1.08865">
        <ele>18</ele>
        <time>2019-08-15T15:03:40Z</time>
      </trkpt>
      <trkpt lat="44.49095" lon="-1.08849">
        <ele>18</ele>
        <time>2019-08-15T15:03:45Z</time>
      </trkpt>
      <trkpt lat="44.49098" lon="-1.08835">
        <ele>18</ele>
        <time>2019-08-15T15:03:50Z</time>
      </trkpt>
      <trkpt lat="44.49101" lon="-1.0882">
        <ele>18</ele>
        <time>2019-08-15T15:03:55Z</time>
      </trkpt>
      <trkpt lat="44.49104" lon="-1.08805">
        <ele>18</ele>
        <time>2019-08-15T15:04:00Z</time>
      </trkpt>
      <trkpt lat="44.49107" lon="-1.0879">
        <ele>18</ele>
        <time>2019-08-15T15:04:05Z</time>
      </trkpt>
      <trkpt lat="44.49111" lon="-1.08774">
        <ele>18</ele>
        <time>2019-08-15T15:04:10Z</time>
      </trkpt>
      <trkpt lat="44.49115" lon="-1.0876">
        <ele>18</ele>
        <time>2019-08-15T15:04:15Z</time>
      </trkpt>
      <trkpt lat="44.49121" lon="-1.08745">
        <ele>18</ele>
        <time>2019-08-15T15:04:20Z</time>
      </trkpt>
      <trkpt lat="44.49126" lon="-1.0873">
        <ele>18</ele>
        <time>2019-08-15T15:04:25Z</time>
      </trkpt>
      <trkpt lat="44.49132" lon="-1.08716">
        <ele>18</ele>
        <time>2019-08-15T15:04:30Z</time>
      </trkpt>
      <trkpt lat="44.49137" lon="-1.08702">
        <ele>18</ele>
        <time>2019-08-15T15:04:35Z</time>
      </trkpt>
      <trkpt lat="44.49142" lon="-1.08688">
        <ele>18</ele>
        <time>2019-08-15T15:04:40Z</time>
      </trkpt>
      <trkpt lat="44.49147" lon="-1.08674">
        <ele>18</ele>
        <time>2019-08-15T15:04:45Z</time>
      </trkpt>
      <trkpt lat="44.49152" lon="-1.08661">
        <ele>18</ele>
        <time>2019-08-15T15:04:50Z</time>
      </trkpt>
      <trkpt lat="44.49158" lon="-1.08648">
        <ele>18</ele>
        <time>2019-08-15T15:04:55Z</time>
      </trkpt>
      <trkpt lat="44.49163" lon="-1.08634">
        <ele>18</ele>
        <time>2019-08-15T15:05:00Z</time>
      </trkpt>
      <trkpt lat="44.49167" lon="-1.0862">
        <ele>18</ele>
        <time>2019-08-15T15:05:05Z</time>
      </trkpt>
      <trkpt lat="44.49172" lon="-1.08607">
        <ele>18</ele>
        <time>2019-08-15T15:05:10Z</time>
      </trkpt>
      <trkpt lat="44.49177" lon="-1.08594">
        <ele>18</ele>
        <time>2019-08-15T15:05:15Z</time>
      </trkpt>
      <trkpt lat="44.49182" lon="-1.08581">
        <ele>18</ele>
        <time>2019-08-15T15:05:20Z</time>
      </trkpt>
      <trkpt lat="44.49187" lon="-1.08569">
        <ele>18</ele>
        <time>2019-08-15T15:05:25Z</time>
      </trkpt>
      <trkpt lat="44.49193" lon="-1.08556">
        <ele>18</ele>
        <time>2019-08-15T15:05:30Z</time>
      </trkpt>
      <trkpt lat="44.49198" lon="-1.08543">
        <ele>18</ele>
        <time>2019-08-15T15:05:35Z</time>
      </trkpt>
      <trkpt lat="44.49203" lon="-1.08531">
        <ele>18</ele>
        <time>2019-08-15T15:05:40Z</time>
      </trkpt>
      <trkpt lat="44.49208" lon="-1.08519">
        <ele>18</ele>
        <time>2019-08-15T15:05:45Z</time>
      </trkpt>
      <trkpt lat="44.49214" lon="-1.08507">
        <ele>18</ele>
        <time>2019-08-15T15:05:50Z</time>
      </trkpt>
      <trkpt lat="44.49219" lon="-1.08496">
        <ele>18</ele>
        <time>2019-08-15T15:05:55Z</time>
      </trkpt>
      <trkpt lat="44.49225" lon="-1.08483">
        <ele>18</ele>
        <time>2019-08-15T15:06:00Z</time>
      </trkpt>
      <trkpt lat="44.49231" lon="-1.08471">
        <ele>18</ele>
        <time>2019-08-15T15:06:05Z</time>
      </trkpt>
      <trkpt lat="44.49237" lon="-1.08458">
        <ele>18</ele>
        <time>2019-08-15T15:06:10Z</time>
      </trkpt>
      <trkpt lat="44.49243" lon="-1.08445">
        <ele>18</ele>
        <time>2019-08-15T15:06:15Z</time>
      </trkpt>
      <trkpt lat="44.49248" lon="-1.08433">
        <ele>18</ele>
        <time>2019-08-15T15:06:20Z</time>
      </trkpt>
      <trkpt lat="44.49254" lon="-1.08421">
        <ele>18</ele>
        <time>2019-08-15T15:06:25Z</time>
      </trkpt>
      <trkpt lat="44.49259" lon="-1.08409">
        <ele>18</ele>
        <time>2019-08-15T15:06:30Z</time>
      </trkpt>
      <trkpt lat="44.49264" lon="-1.08396">
        <ele>18</ele>
        <time>2019-08-15T15:06:35Z</time>
      </trkpt>
      <trkpt lat="44.49269" lon="-1.08383">
        <ele>18</ele>
        <time>2019-08-15T15:06:40Z</time>
      </trkpt>
      <trkpt lat="44.49275" lon="-1.0837">
        <ele>18</ele>
        <time>2019-08-15T15:06:45Z</time>
      </trkpt>
      <trkpt lat="44.49281" lon="-1.08357">
        <ele>18</ele>
        <time>2019-08-15T15:06:50Z</time>
      </trkpt>
      <trkpt lat="44.49287" lon="-1.08344">
        <ele>18</ele>
        <time>2019-08-15T15:06:55Z</time>
      </trkpt>
      <trkpt lat="44.49293" lon="-1.08332">
        <ele>18</ele>
        <time>2019-08-15T15:07:00Z</time>
      </trkpt>
      <trkpt lat="44.493" lon="-1.08319">
        <ele>18</ele>
        <time>2019-08-15T15:07:05Z</time>
      </trkpt>
      <trkpt lat="44.49305" lon="-1.08307">
        <ele>18</ele>
        <time>2019-08-15T15:07:10Z</time>
      </trkpt>
      <trkpt lat="44.49311" lon="-1.08294">
        <ele>18</ele>
        <time>2019-08-15T15:07:15Z</time>
      </trkpt>
      <trkpt lat="44.49316" lon="-1.08282">
        <ele>18</ele>
        <time>2019-08-15T15:07:20Z</time>
      </trkpt>
      <trkpt lat="44.49322" lon="-1.0827">
        <ele>18</ele>
        <time>2019-08-15T15:07:25Z</time>
      </trkpt>
      <trkpt lat="44.49328" lon="-1.08256">
        <ele>18</ele>
        <time>2019-08-15T15:07:30Z</time>
      </trkpt>
      <trkpt lat="44.49333" lon="-1.08243">
        <ele>18</ele>
        <time>2019-08-15T15:07:35Z</time>
      </trkpt>
      <trkpt lat="44.49339" lon="-1.08231">
        <ele>18</ele>
        <time>2019-08-15T15:07:40Z</time>
      </trkpt>
      <trkpt lat="44.49344" lon="-1.0822">
        <ele>18</ele>
        <time>2019-08-15T15:07:45Z</time>
      </trkpt>
      <trkpt lat="44.4935" lon="-1.08207">
        <ele>18</ele>
        <time>2019-08-15T15:07:50Z</time>
      </trkpt>
      <trkpt lat="44.49355" lon="-1.08196">
        <ele>18</ele>
        <time>2019-08-15T15:07:55Z</time>
      </trkpt>
      <trkpt lat="44.49361" lon="-1.08184">
        <ele>18</ele>
        <time>2019-08-15T15:08:00Z</time>
      </trkpt>
      <trkpt lat="44.49366" lon="-1.08173">
        <ele>18</ele>
        <time>2019-08-15T15:08:05Z</time>
      </trkpt>
      <trkpt lat="44.49371" lon="-1.08161">
        <ele>18</ele>
        <time>2019-08-15T15:08:10Z</time>
      </trkpt>
      <trkpt lat="44.49376" lon="-1.0815">
        <ele>18</ele>
        <time>2019-08-15T15:08:15Z</time>
      </trkpt>
      <trkpt lat="44.4938" lon="-1.08138">
        <ele>18</ele>
        <time>2019-08-15T15:08:20Z</time>
      </trkpt>
      <trkpt lat="44.49385" lon="-1.08126">
        <ele>18</ele>
        <time>2019-08-15T15:08:25Z</time>
      </trkpt>
      <trkpt lat="44.49389" lon="-1.08114">
        <ele>18</ele>
        <time>2019-08-15T15:08:30Z</time>
      </trkpt>
      <trkpt lat="44.49394" lon="-1.08101">
        <ele>18</ele>
        <time>2019-08-15T15:08:35Z</time>
      </trkpt>
      <trkpt lat="44.49397" lon="-1.08088">
        <ele>18</ele>
        <time>2019-08-15T15:08:40Z</time>
      </trkpt>
      <trkpt lat="44.49401" lon="-1.08076">
        <ele>18</ele>
        <time>2019-08-15T15:08:45Z</time>
      </trkpt>
      <trkpt lat="44.49406" lon="-1.08064">
        <ele>18</ele>
        <time>2019-08-15T15:08:50Z</time>
      </trkpt>
      <trkpt lat="44.4941" lon="-1.08052">
        <ele>18</ele>
        <time>2019-08-15T15:08:55Z</time>
      </trkpt>
      <trkpt lat="44.49415" lon="-1.08039">
        <ele>18</ele>
        <time>2019-08-15T15:09:00Z</time>
      </trkpt>
      <trkpt lat="44.49421" lon="-1.08027">
        <ele>18</ele>
        <time>2019-08-15T15:09:05Z</time>
      </trkpt>
      <trkpt lat="44.49426" lon="-1.08014">
        <ele>18</ele>
        <time>2019-08-15T15:09:10Z</time>
      </trkpt>
      <trkpt lat="44.49429" lon="-1.07999">
        <ele>18</ele>
        <time>2019-08-15T15:09:15Z</time>
      </trkpt>
      <trkpt lat="44.49432" lon="-1.07984">
        <ele>18</ele>
        <time>2019-08-15T15:09:20Z</time>
      </trkpt>
      <trkpt lat="44.49437" lon="-1.0797">
        <ele>18</ele>
        <time>2019-08-15T15:09:25Z</time>
      </trkpt>
      <trkpt lat="44.49434" lon="-1.07957">
        <ele>18</ele>
        <time>2019-08-15T15:09:30Z</time>
      </trkpt>
      <trkpt lat="44.49426" lon="-1.0795">
        <ele>18</ele>
        <time>2019-08-15T15:09:35Z</time>
      </trkpt>
      <trkpt lat="44.4942" lon="-1.07953">
        <ele>18</ele>
        <time>2019-08-15T15:09:40Z</time>
      </trkpt>
      <trkpt lat="44.49417" lon="-1.07953">
        <ele>18</ele>
        <time>2019-08-15T15:09:45Z</time>
      </trkpt>
      <trkpt lat="44.49417" lon="-1.07953">
        <ele>18</ele>
        <time>2019-08-15T15:09:50Z</time>
      </trkpt>
      <trkpt lat="44.49417" lon="-1.07952">
        <ele>18</ele>
        <time>2019-08-15T15:09:55Z</time>
      </trkpt>
      <trkpt lat="44.49418" lon="-1.07951">
        <ele>18</ele>
        <time>2019-08-15T15:10:00Z</time>
      </trkpt>
      <trkpt lat="44.49419" lon="-1.0795">
        <ele>18</ele>
        <time>2019-08-15T15:10:05Z</time>
      </trkpt>
      <trkpt lat="44.49421" lon="-1.07949">
        <ele>18</ele>
        <time>2019-08-15T15:10:10Z</time>
      </trkpt>
      <trkpt lat="44.49423" lon="-1.07949">
        <ele>18</ele>
        <time>2019-08-15T15:10:15Z</time>
      </trkpt>
      <trkpt lat="44.49424" lon="-1.07949">
        <ele>18</ele>
        <time>2019-08-15T15:10:20Z</time>
      </trkpt>
      <trkpt lat="44.49425" lon="-1.07949">
        <ele>18</ele>
        <time>2019-08-15T15:10:25Z</time>
      </trkpt>
      <trkpt lat="44.49426" lon="-1.07949">
        <ele>18</ele>
        <time>2019-08-15T15:10:30Z</time>
      </trkpt>
      <trkpt lat="44.49427" lon="-1.07949">
        <ele>18</ele>
        <time>2019-08-15T15:10:35Z</time>
      </trkpt>
      <trkpt lat="44.49427" lon="-1.07949">
        <ele>18</ele>
        <time>2019-08-15T15:10:40Z</time>
      </trkpt>
      <trkpt lat="44.49428" lon="-1.07949">
        <ele>18</ele>
        <time>2019-08-15T15:10:45Z</time>
      </trkpt>
      <trkpt lat="44.49428" lon="-1.07949">
        <ele>18</ele>
        <time>2019-08-15T15:10:50Z</time>
      </trkpt>
      <trkpt lat="44.49428" lon="-1.07949">
        <ele>18</ele>
        <time>2019-08-15T15:10:55Z</time>
      </trkpt>
      <trkpt lat="44.49427" lon="-1.07949">
        <ele>18</ele>
        <time>2019-08-15T15:11:00Z</time>
      </trkpt>
      <trkpt lat="44.49426" lon="-1.07947">
        <ele>18</ele>
        <time>2019-08-15T15:11:05Z</time>
      </trkpt>
      <trkpt lat="44.49426" lon="-1.07947">
        <ele>18</ele>
        <time>2019-08-15T15:11:10Z</time>
      </trkpt>
      <trkpt lat="44.49425" lon="-1.07947">
        <ele>18</ele>
        <time>2019-08-15T15:11:15Z</time>
      </trkpt>
      <trkpt lat="44.49424" lon="-1.07948">
        <ele>18</ele>
        <time>2019-08-15T15:11:20Z</time>
      </trkpt>
      <trkpt lat="44.49424" lon="-1.07948">
        <ele>18</ele>
        <time>2019-08-15T15:11:21Z</time>
      </trkpt>
      <trkpt lat="44.49423" lon="-1.07949">
        <ele>18</ele>
        <time>2019-08-15T15:11:25Z</time>
      </trkpt>
      <trkpt lat="44.49423" lon="-1.0795">
        <ele>18</ele>
        <time>2019-08-15T15:11:30Z</time>
      </trkpt>
      <trkpt lat="44.49423" lon="-1.0795">
        <ele>18</ele>
        <time>2019-08-15T15:11:35Z</time>
      </trkpt>
      <trkpt lat="44.49424" lon="-1.0795">
        <ele>18</ele>
        <time>2019-08-15T15:11:40Z</time>
      </trkpt>
      <trkpt lat="44.49424" lon="-1.07951">
        <ele>18</ele>
        <time>2019-08-15T15:11:45Z</time>
      </trkpt>
      <trkpt lat="44.49424" lon="-1.07952">
        <ele>18</ele>
        <time>2019-08-15T15:11:47Z</time>
      </trkpt>
      <trkpt lat="44.49425" lon="-1.07952">
        <ele>18</ele>
        <time>2019-08-15T15:11:50Z</time>
      </trkpt>
      <trkpt lat="44.49424" lon="-1.07953">
        <ele>18</ele>
        <time>2019-08-15T15:11:55Z</time>
      </trkpt>
      <trkpt lat="44.49425" lon="-1.07953">
        <ele>18</ele>
        <time>2019-08-15T15:12:00Z</time>
      </trkpt>
      <trkpt lat="44.49426" lon="-1.07953">
        <ele>18</ele>
        <time>2019-08-15T15:12:05Z</time>
      </trkpt>
      <trkpt lat="44.49426" lon="-1.07953">
        <ele>18</ele>
        <time>2019-08-15T15:12:10Z</time>
      </trkpt>
      <trkpt lat="44.49425" lon="-1.07953">
        <ele>18</ele>
        <time>2019-08-15T15:12:15Z</time>
      </trkpt>
      <trkpt lat="44.49425" lon="-1.07953">
        <ele>18</ele>
        <time>2019-08-15T15:12:20Z</time>
      </trkpt>
      <trkpt lat="44.49424" lon="-1.07953">
        <ele>18</ele>
        <time>2019-08-15T15:12:25Z</time>
      </trkpt>
      <trkpt lat="44.49423" lon="-1.07954">
        <ele>18</ele>
        <time>2019-08-15T15:12:30Z</time>
      </trkpt>
      <trkpt lat="44.49423" lon="-1.07954">
        <ele>18</ele>
        <time>2019-08-15T15:12:35Z</time>
      </trkpt>
      <trkpt lat="44.49422" lon="-1.07954">
        <ele>18</ele>
        <time>2019-08-15T15:12:40Z</time>
      </trkpt>
      <trkpt lat="44.49422" lon="-1.07955">
        <ele>18</ele>
        <time>2019-08-15T15:12:45Z</time>
      </trkpt>
      <trkpt lat="44.49422" lon="-1.07955">
        <ele>18</ele>
        <time>2019-08-15T15:12:50Z</time>
      </trkpt>
      <trkpt lat="44.49422" lon="-1.07955">
        <ele>18</ele>
        <time>2019-08-15T15:12:55Z</time>
      </trkpt>
      <trkpt lat="44.49423" lon="-1.07954">
        <ele>18</ele>
        <time>2019-08-15T15:13:00Z</time>
      </trkpt>
      <trkpt lat="44.49424" lon="-1.07955">
        <ele>18</ele>
        <time>2019-08-15T15:13:05Z</time>
      </trkpt>
      <trkpt lat="44.49424" lon="-1.07956">
        <ele>18</ele>
        <time>2019-08-15T15:13:10Z</time>
      </trkpt>
      <trkpt lat="44.49423" lon="-1.07956">
        <ele>18</ele>
        <time>2019-08-15T15:13:15Z</time>
      </trkpt>
      <trkpt lat="44.49423" lon="-1.07955">
        <ele>18</ele>
        <time>2019-08-15T15:13:20Z</time>
      </trkpt>
      <trkpt lat="44.49423" lon="-1.07955">
        <ele>18</ele>
        <time>2019-08-15T15:13:25Z</time>
      </trkpt>
      <trkpt lat="44.49423" lon="-1.07956">
        <ele>18</ele>
        <time>2019-08-15T15:13:30Z</time>
      </trkpt>
      <trkpt lat="44.49423" lon="-1.07955">
        <ele>18</ele>
        <time>2019-08-15T15:13:35Z</time>
      </trkpt>
      <trkpt lat="44.49423" lon="-1.07955">
        <ele>18</ele>
        <time>2019-08-15T15:13:40Z</time>
      </trkpt>
      <trkpt lat="44.49423" lon="-1.07955">
        <ele>18</ele>
        <time>2019-08-15T15:13:45Z</time>
      </trkpt>
      <trkpt lat="44.49423" lon="-1.07954">
        <ele>18</ele>
        <time>2019-08-15T15:13:50Z</time>
      </trkpt>
      <trkpt lat="44.49423" lon="-1.07956">
        <ele>18</ele>
        <time>2019-08-15T15:13:55Z</time>
      </trkpt>
      <trkpt lat="44.49423" lon="-1.07957">
        <ele>18</ele>
        <time>2019-08-15T15:13:58Z</time>
      </trkpt>
      <trkpt lat="44.49423" lon="-1.07957">
        <ele>18</ele>
        <time>2019-08-15T15:14:00Z</time>
      </trkpt>
      <trkpt lat="44.49423" lon="-1.07958">
        <ele>18</ele>
        <time>2019-08-15T15:14:05Z</time>
      </trkpt>
      <trkpt lat="44.49423" lon="-1.07958">
        <ele>18</ele>
        <time>2019-08-15T15:14:10Z</time>
      </trkpt>
      <trkpt lat="44.49423" lon="-1.07957">
        <ele>18</ele>
        <time>2019-08-15T15:14:15Z</time>
      </trkpt>
      <trkpt lat="44.49424" lon="-1.07958">
        <ele>18</ele>
        <time>2019-08-15T15:14:20Z</time>
      </trkpt>
      <trkpt lat="44.49423" lon="-1.07958">
        <ele>18</ele>
        <time>2019-08-15T15:14:25Z</time>
      </trkpt>
      <trkpt lat="44.49423" lon="-1.07959">
        <ele>18</ele>
        <time>2019-08-15T15:14:30Z</time>
      </trkpt>
      <trkpt lat="44.49422" lon="-1.07958">
        <ele>18</ele>
        <time>2019-08-15T15:14:35Z</time>
      </trkpt>
      <trkpt lat="44.49422" lon="-1.07958">
        <ele>18</ele>
        <time>2019-08-15T15:14:40Z</time>
      </trkpt>
      <trkpt lat="44.49423" lon="-1.07959">
        <ele>18</ele>
        <time>2019-08-15T15:14:45Z</time>
      </trkpt>
      <trkpt lat="44.49423" lon="-1.07959">
        <ele>18</ele>
        <time>2019-08-15T15:14:50Z</time>
      </trkpt>
      <trkpt lat="44.49423" lon="-1.07958">
        <ele>18</ele>
        <time>2019-08-15T15:14:55Z</time>
      </trkpt>
      <trkpt lat="44.49423" lon="-1.07958">
        <ele>18</ele>
        <time>2019-08-15T15:15:00Z</time>
      </trkpt>
      <trkpt lat="44.49423" lon="-1.07958">
        <ele>18</ele>
        <time>2019-08-15T15:15:05Z</time>
      </trkpt>
      <trkpt lat="44.49422" lon="-1.07958">
        <ele>18</ele>
        <time>2019-08-15T15:15:10Z</time>
      </trkpt>
      <trkpt lat="44.49422" lon="-1.07958">
        <ele>18</ele>
        <time>2019-08-15T15:15:15Z</time>
      </trkpt>
      <trkpt lat="44.49421" lon="-1.07958">
        <ele>18</ele>
        <time>2019-08-15T15:15:20Z</time>
      </trkpt>
      <trkpt lat="44.49421" lon="-1.07958">
        <ele>18</ele>
        <time>2019-08-15T15:15:25Z</time>
      </trkpt>
      <trkpt lat="44.49421" lon="-1.07958">
        <ele>18</ele>
        <time>2019-08-15T15:15:30Z</time>
      </trkpt>
      <trkpt lat="44.49422" lon="-1.07958">
        <ele>18</ele>
        <time>2019-08-15T15:15:35Z</time>
      </trkpt>
      <trkpt lat="44.49422" lon="-1.07958">
        <ele>18</ele>
        <time>2019-08-15T15:15:40Z</time>
      </trkpt>
      <trkpt lat="44.49422" lon="-1.07958">
        <ele>18</ele>
        <time>2019-08-15T15:15:45Z</time>
      </trkpt>
      <trkpt lat="44.49423" lon="-1.07958">
        <ele>18</ele>
        <time>2019-08-15T15:15:50Z</time>
      </trkpt>
      <trkpt lat="44.49423" lon="-1.07958">
        <ele>18</ele>
        <time>2019-08-15T15:15:55Z</time>
      </trkpt>
      <trkpt lat="44.49423" lon="-1.07958">
        <ele>18</ele>
        <time>2019-08-15T15:16:00Z</time>
      </trkpt>
      <trkpt lat="44.49423" lon="-1.07958">
        <ele>18</ele>
        <time>2019-08-15T15:16:05Z</time>
      </trkpt>
      <trkpt lat="44.49423" lon="-1.07958">
        <ele>18</ele>
        <time>2019-08-15T15:16:10Z</time>
      </trkpt>
      <trkpt lat="44.49423" lon="-1.07958">
        <ele>18</ele>
        <time>2019-08-15T15:16:15Z</time>
      </trkpt>
      <trkpt lat="44.49423" lon="-1.07957">
        <ele>18</ele>
        <time>2019-08-15T15:16:20Z</time>
      </trkpt>
      <trkpt lat="44.49423" lon="-1.07958">
        <ele>18</ele>
        <time>2019-08-15T15:16:25Z</time>
      </trkpt>
      <trkpt lat="44.49422" lon="-1.07957">
        <ele>18</ele>
        <time>2019-08-15T15:16:30Z</time>
      </trkpt>
      <trkpt lat="44.49422" lon="-1.07957">
        <ele>18</ele>
        <time>2019-08-15T15:16:35Z</time>
      </trkpt>
      <trkpt lat="44.49423" lon="-1.07957">
        <ele>18</ele>
        <time>2019-08-15T15:16:40Z</time>
      </trkpt>
      <trkpt lat="44.49423" lon="-1.07957">
        <ele>18</ele>
        <time>2019-08-15T15:16:45Z</time>
      </trkpt>
      <trkpt lat="44.49423" lon="-1.07957">
        <ele>18</ele>
        <time>2019-08-15T15:16:50Z</time>
      </trkpt>
      <trkpt lat="44.49423" lon="-1.07957">
        <ele>18</ele>
        <time>2019-08-15T15:16:55Z</time>
      </trkpt>
      <trkpt lat="44.49423" lon="-1.07957">
        <ele>18</ele>
        <time>2019-08-15T15:17:00Z</time>
      </trkpt>
      <trkpt lat="44.49422" lon="-1.07956">
        <ele>18</ele>
        <time>2019-08-15T15:17:05Z</time>
      </trkpt>
      <trkpt lat="44.49421" lon="-1.07957">
        <ele>18</ele>
        <time>2019-08-15T15:17:10Z</time>
      </trkpt>
      <trkpt lat="44.4942" lon="-1.07957">
        <ele>18</ele>
        <time>2019-08-15T15:17:15Z</time>
      </trkpt>
      <trkpt lat="44.4942" lon="-1.07956">
        <ele>18</ele>
        <time>2019-08-15T15:17:20Z</time>
      </trkpt>
      <trkpt lat="44.4942" lon="-1.07957">
        <ele>18</ele>
        <time>2019-08-15T15:17:25Z</time>
      </trkpt>
      <trkpt lat="44.4942" lon="-1.07957">
        <ele>18</ele>
        <time>2019-08-15T15:17:30Z</time>
      </trkpt>
      <trkpt lat="44.4942" lon="-1.07958">
        <ele>18</ele>
        <time>2019-08-15T15:17:35Z</time>
      </trkpt>
      <trkpt lat="44.4942" lon="-1.07958">
        <ele>18</ele>
        <time>2019-08-15T15:17:40Z</time>
      </trkpt>
      <trkpt lat="44.4942" lon="-1.07957">
        <ele>18</ele>
        <time>2019-08-15T15:17:45Z</time>
      </trkpt>
      <trkpt lat="44.49421" lon="-1.07959">
        <ele>18</ele>
        <time>2019-08-15T15:17:50Z</time>
      </trkpt>
      <trkpt lat="44.4942" lon="-1.07959">
        <ele>18</ele>
        <time>2019-08-15T15:17:55Z</time>
      </trkpt>
      <trkpt lat="44.49419" lon="-1.0796">
        <ele>18</ele>
        <time>2019-08-15T15:18:00Z</time>
      </trkpt>
      <trkpt lat="44.4942" lon="-1.07961">
        <ele>18</ele>
        <time>2019-08-15T15:18:05Z</time>
      </trkpt>
      <trkpt lat="44.49421" lon="-1.07962">
        <ele>18</ele>
        <time>2019-08-15T15:18:10Z</time>
      </trkpt>
      <trkpt lat="44.49421" lon="-1.07961">
        <ele>18</ele>
        <time>2019-08-15T15:18:15Z</time>
      </trkpt>
      <trkpt lat="44.49421" lon="-1.07961">
        <ele>18</ele>
        <time>2019-08-15T15:18:20Z</time>
      </trkpt>
      <trkpt lat="44.49421" lon="-1.07961">
        <ele>18</ele>
        <time>2019-08-15T15:18:25Z</time>
      </trkpt>
      <trkpt lat="44.49421" lon="-1.07961">
        <ele>18</ele>
        <time>2019-08-15T15:18:30Z</time>
      </trkpt>
      <trkpt lat="44.49421" lon="-1.07961">
        <ele>18</ele>
        <time>2019-08-15T15:18:35Z</time>
      </trkpt>
      <trkpt lat="44.4942" lon="-1.07959">
        <ele>18</ele>
        <time>2019-08-15T15:18:40Z</time>
      </trkpt>
      <trkpt lat="44.49421" lon="-1.07961">
        <ele>18</ele>
        <time>2019-08-15T15:18:45Z</time>
      </trkpt>
      <trkpt lat="44.49421" lon="-1.07962">
        <ele>18</ele>
        <time>2019-08-15T15:18:50Z</time>
      </trkpt>
      <trkpt lat="44.49421" lon="-1.07961">
        <ele>18</ele>
        <time>2019-08-15T15:18:55Z</time>
      </trkpt>
      <trkpt lat="44.4942" lon="-1.07961">
        <ele>18</ele>
        <time>2019-08-15T15:19:00Z</time>
      </trkpt>
      <trkpt lat="44.49419" lon="-1.07961">
        <ele>18</ele>
        <time>2019-08-15T15:19:05Z</time>
      </trkpt>
      <trkpt lat="44.49419" lon="-1.07961">
        <ele>18</ele>
        <time>2019-08-15T15:19:10Z</time>
      </trkpt>
      <trkpt lat="44.4942" lon="-1.07962">
        <ele>18</ele>
        <time>2019-08-15T15:19:15Z</time>
      </trkpt>
      <trkpt lat="44.4942" lon="-1.07962">
        <ele>18</ele>
        <time>2019-08-15T15:19:20Z</time>
      </trkpt>
      <trkpt lat="44.4942" lon="-1.07962">
        <ele>18</ele>
        <time>2019-08-15T15:19:25Z</time>
      </trkpt>
      <trkpt lat="44.4942" lon="-1.07962">
        <ele>18</ele>
        <time>2019-08-15T15:19:30Z</time>
      </trkpt>
      <trkpt lat="44.4942" lon="-1.07962">
        <ele>18</ele>
        <time>2019-08-15T15:19:35Z</time>
      </trkpt>
      <trkpt lat="44.4942" lon="-1.07962">
        <ele>18</ele>
        <time>2019-08-15T15:19:40Z</time>
      </trkpt>
      <trkpt lat="44.4942" lon="-1.07962">
        <ele>18</ele>
        <time>2019-08-15T15:19:45Z</time>
      </trkpt>
      <trkpt lat="44.4942" lon="-1.07963">
        <ele>18</ele>
        <time>2019-08-15T15:19:50Z</time>
      </trkpt>
      <trkpt lat="44.4942" lon="-1.07963">
        <ele>18</ele>
        <time>2019-08-15T15:19:55Z</time>
      </trkpt>
      <trkpt lat="44.4942" lon="-1.07965">
        <ele>18</ele>
        <time>2019-08-15T15:20:00Z</time>
      </trkpt>
      <trkpt lat="44.49419" lon="-1.07966">
        <ele>18</ele>
        <time>2019-08-15T15:20:05Z</time>
      </trkpt>
      <trkpt lat="44.49419" lon="-1.07965">
        <ele>18</ele>
        <time>2019-08-15T15:20:10Z</time>
      </trkpt>
      <trkpt lat="44.49419" lon="-1.07965">
        <ele>18</ele>
        <time>2019-08-15T15:20:15Z</time>
      </trkpt>
      <trkpt lat="44.4942" lon="-1.07965">
        <ele>18</ele>
        <time>2019-08-15T15:20:20Z</time>
      </trkpt>
      <trkpt lat="44.4942" lon="-1.07966">
        <ele>18</ele>
        <time>2019-08-15T15:20:25Z</time>
      </trkpt>
      <trkpt lat="44.4942" lon="-1.07965">
        <ele>18</ele>
        <time>2019-08-15T15:20:30Z</time>
      </trkpt>
      <trkpt lat="44.4942" lon="-1.07964">
        <ele>18</ele>
        <time>2019-08-15T15:20:35Z</time>
      </trkpt>
      <trkpt lat="44.4942" lon="-1.07964">
        <ele>18</ele>
        <time>2019-08-15T15:20:40Z</time>
      </trkpt>
      <trkpt lat="44.4942" lon="-1.07964">
        <ele>18</ele>
        <time>2019-08-15T15:20:45Z</time>
      </trkpt>
      <trkpt lat="44.4942" lon="-1.07964">
        <ele>18</ele>
        <time>2019-08-15T15:20:50Z</time>
      </trkpt>
      <trkpt lat="44.4942" lon="-1.07964">
        <ele>18</ele>
        <time>2019-08-15T15:20:55Z</time>
      </trkpt>
      <trkpt lat="44.4942" lon="-1.07964">
        <ele>18</ele>
        <time>2019-08-15T15:21:00Z</time>
      </trkpt>
      <trkpt lat="44.4942" lon="-1.07964">
        <ele>18</ele>
        <time>2019-08-15T15:21:05Z</time>
      </trkpt>
      <trkpt lat="44.4942" lon="-1.07964">
        <ele>18</ele>
        <time>2019-08-15T15:21:10Z</time>
      </trkpt>
      <trkpt lat="44.4942" lon="-1.07965">
        <ele>18</ele>
        <time>2019-08-15T15:21:15Z</time>
      </trkpt>
      <trkpt lat="44.4942" lon="-1.07965">
        <ele>18</ele>
        <time>2019-08-15T15:21:20Z</time>
      </trkpt>
      <trkpt lat="44.4942" lon="-1.07964">
        <ele>18</ele>
        <time>2019-08-15T15:21:25Z</time>
      </trkpt>
      <trkpt lat="44.4942" lon="-1.07964">
        <ele>18</ele>
        <time>2019-08-15T15:21:30Z</time>
      </trkpt>
      <trkpt lat="44.4942" lon="-1.07964">
        <ele>18</ele>
        <time>2019-08-15T15:21:35Z</time>
      </trkpt>
      <trkpt lat="44.4942" lon="-1.07964">
        <ele>18</ele>
        <time>2019-08-15T15:21:40Z</time>
      </trkpt>
      <trkpt lat="44.4942" lon="-1.07964">
        <ele>18</ele>
        <time>2019-08-15T15:21:45Z</time>
      </trkpt>
      <trkpt lat="44.4942" lon="-1.07964">
        <ele>18</ele>
        <time>2019-08-15T15:21:50Z</time>
      </trkpt>
      <trkpt lat="44.49421" lon="-1.07963">
        <ele>18</ele>
        <time>2019-08-15T15:21:55Z</time>
      </trkpt>
      <trkpt lat="44.49423" lon="-1.0796">
        <ele>18</ele>
        <time>2019-08-15T15:22:00Z</time>
      </trkpt>
      <trkpt lat="44.49423" lon="-1.0796">
        <ele>18</ele>
        <time>2019-08-15T15:22:05Z</time>
      </trkpt>
      <trkpt lat="44.49422" lon="-1.0796">
        <ele>18</ele>
        <time>2019-08-15T15:22:10Z</time>
      </trkpt>
      <trkpt lat="44.49421" lon="-1.0796">
        <ele>18</ele>
        <time>2019-08-15T15:22:15Z</time>
      </trkpt>
      <trkpt lat="44.4942" lon="-1.0796">
        <ele>18</ele>
        <time>2019-08-15T15:22:20Z</time>
      </trkpt>
      <trkpt lat="44.4942" lon="-1.0796">
        <ele>18</ele>
        <time>2019-08-15T15:22:25Z</time>
      </trkpt>
      <trkpt lat="44.4942" lon="-1.0796">
        <ele>18</ele>
        <time>2019-08-15T15:22:30Z</time>
      </trkpt>
      <trkpt lat="44.4942" lon="-1.0796">
        <ele>18</ele>
        <time>2019-08-15T15:22:34Z</time>
      </trkpt>
    </trkseg>
  </trk>
</gpx>